<?xml version="1.0" encoding="UTF-8" standalone="no" ?>
<gpx xmlns="http://www.topografix.com/GPX/1/1" xmlns:xsi="http://www.w3.org/2001/XMLSchema-instance" xsi:schemaLocation="http://www.topografix.com/GPX/1/1 http://www.topografix.com/GPX/1/1/gpx.xsd" version="1.1" creator="VisuGPX - https://www.visugpx.com">
  <metadata>
    <name> Balade autout de St Nizier</name>
  </metadata>
  <trk>
    <name><![CDATA[ Balade autout de St Nizier_1]]></name>
    <trkseg>
      <trkpt lat="45.17133" lon="5.63084">
        <ele>1170.8</ele>
        <time>2021-04-23T08:49:08.000Z</time>
      </trkpt>
      <trkpt lat="45.17131" lon="5.63083">
        <ele>1170.8</ele>
        <time>2021-04-23T08:49:09.000Z</time>
      </trkpt>
      <trkpt lat="45.1713" lon="5.63083">
        <ele>1170.6</ele>
        <time>2021-04-23T08:49:10.000Z</time>
      </trkpt>
      <trkpt lat="45.17128" lon="5.63083">
        <ele>1170.6</ele>
        <time>2021-04-23T08:49:11.000Z</time>
      </trkpt>
      <trkpt lat="45.17127" lon="5.63083">
        <ele>1170.6</ele>
        <time>2021-04-23T08:49:12.000Z</time>
      </trkpt>
      <trkpt lat="45.17121" lon="5.6308">
        <ele>1170.6</ele>
        <time>2021-04-23T08:49:16.000Z</time>
      </trkpt>
      <trkpt lat="45.17118" lon="5.63078">
        <ele>1170.8</ele>
        <time>2021-04-23T08:49:18.000Z</time>
      </trkpt>
      <trkpt lat="45.17115" lon="5.63078">
        <ele>1170.8</ele>
        <time>2021-04-23T08:49:20.000Z</time>
      </trkpt>
      <trkpt lat="45.17107" lon="5.63077">
        <ele>1170.8</ele>
        <time>2021-04-23T08:49:25.000Z</time>
      </trkpt>
      <trkpt lat="45.17104" lon="5.63077">
        <ele>1170.8</ele>
        <time>2021-04-23T08:49:26.000Z</time>
      </trkpt>
      <trkpt lat="45.17093" lon="5.63074">
        <ele>1170.4</ele>
        <time>2021-04-23T08:49:31.000Z</time>
      </trkpt>
      <trkpt lat="45.17085" lon="5.6307">
        <ele>1170.4</ele>
        <time>2021-04-23T08:49:34.000Z</time>
      </trkpt>
      <trkpt lat="45.1708" lon="5.63067">
        <ele>1170.4</ele>
        <time>2021-04-23T08:49:36.000Z</time>
      </trkpt>
      <trkpt lat="45.17073" lon="5.63061">
        <ele>1170.4</ele>
        <time>2021-04-23T08:49:39.000Z</time>
      </trkpt>
      <trkpt lat="45.17071" lon="5.63059">
        <ele>1170.4</ele>
        <time>2021-04-23T08:49:40.000Z</time>
      </trkpt>
      <trkpt lat="45.17069" lon="5.63055">
        <ele>1170.4</ele>
        <time>2021-04-23T08:49:41.000Z</time>
      </trkpt>
      <trkpt lat="45.17068" lon="5.63052">
        <ele>1170.4</ele>
        <time>2021-04-23T08:49:42.000Z</time>
      </trkpt>
      <trkpt lat="45.17067" lon="5.63048">
        <ele>1170.6</ele>
        <time>2021-04-23T08:49:43.000Z</time>
      </trkpt>
      <trkpt lat="45.17067" lon="5.63045">
        <ele>1170.4</ele>
        <time>2021-04-23T08:49:44.000Z</time>
      </trkpt>
      <trkpt lat="45.17065" lon="5.63037">
        <ele>1170.8</ele>
        <time>2021-04-23T08:49:46.000Z</time>
      </trkpt>
      <trkpt lat="45.17062" lon="5.6303">
        <ele>1170.8</ele>
        <time>2021-04-23T08:49:48.000Z</time>
      </trkpt>
      <trkpt lat="45.1706" lon="5.63026">
        <ele>1170.8</ele>
        <time>2021-04-23T08:49:49.000Z</time>
      </trkpt>
      <trkpt lat="45.17058" lon="5.63023">
        <ele>1170.8</ele>
        <time>2021-04-23T08:49:50.000Z</time>
      </trkpt>
      <trkpt lat="45.17054" lon="5.63018">
        <ele>1170.8</ele>
        <time>2021-04-23T08:49:52.000Z</time>
      </trkpt>
      <trkpt lat="45.17051" lon="5.63014">
        <ele>1170.8</ele>
        <time>2021-04-23T08:49:54.000Z</time>
      </trkpt>
      <trkpt lat="45.17037" lon="5.63005">
        <ele>1171.2</ele>
        <time>2021-04-23T08:49:59.000Z</time>
      </trkpt>
      <trkpt lat="45.17034" lon="5.63005">
        <ele>1171.2</ele>
        <time>2021-04-23T08:50:00.000Z</time>
      </trkpt>
      <trkpt lat="45.17031" lon="5.63005">
        <ele>1171.2</ele>
        <time>2021-04-23T08:50:01.000Z</time>
      </trkpt>
      <trkpt lat="45.17012" lon="5.63008">
        <ele>1171.4</ele>
        <time>2021-04-23T08:50:07.000Z</time>
      </trkpt>
      <trkpt lat="45.17003" lon="5.63011">
        <ele>1171.6</ele>
        <time>2021-04-23T08:50:10.000Z</time>
      </trkpt>
      <trkpt lat="45.17" lon="5.63012">
        <ele>1171.8</ele>
        <time>2021-04-23T08:50:11.000Z</time>
      </trkpt>
      <trkpt lat="45.16996" lon="5.63012">
        <ele>1172</ele>
        <time>2021-04-23T08:50:12.000Z</time>
      </trkpt>
      <trkpt lat="45.16991" lon="5.63013">
        <ele>1172.4</ele>
        <time>2021-04-23T08:50:14.000Z</time>
      </trkpt>
      <trkpt lat="45.16988" lon="5.63013">
        <ele>1172.4</ele>
        <time>2021-04-23T08:50:15.000Z</time>
      </trkpt>
      <trkpt lat="45.16985" lon="5.63013">
        <ele>1172.6</ele>
        <time>2021-04-23T08:50:16.000Z</time>
      </trkpt>
      <trkpt lat="45.16983" lon="5.63013">
        <ele>1172.6</ele>
        <time>2021-04-23T08:50:17.000Z</time>
      </trkpt>
      <trkpt lat="45.1698" lon="5.63013">
        <ele>1172.8</ele>
        <time>2021-04-23T08:50:18.000Z</time>
      </trkpt>
      <trkpt lat="45.16978" lon="5.63013">
        <ele>1173</ele>
        <time>2021-04-23T08:50:19.000Z</time>
      </trkpt>
      <trkpt lat="45.16975" lon="5.63014">
        <ele>1173</ele>
        <time>2021-04-23T08:50:20.000Z</time>
      </trkpt>
      <trkpt lat="45.16972" lon="5.63014">
        <ele>1173</ele>
        <time>2021-04-23T08:50:21.000Z</time>
      </trkpt>
      <trkpt lat="45.1697" lon="5.63015">
        <ele>1173.2</ele>
        <time>2021-04-23T08:50:22.000Z</time>
      </trkpt>
      <trkpt lat="45.16967" lon="5.63016">
        <ele>1173.4</ele>
        <time>2021-04-23T08:50:23.000Z</time>
      </trkpt>
      <trkpt lat="45.16965" lon="5.63016">
        <ele>1173.4</ele>
        <time>2021-04-23T08:50:24.000Z</time>
      </trkpt>
      <trkpt lat="45.16962" lon="5.63016">
        <ele>1173.6</ele>
        <time>2021-04-23T08:50:25.000Z</time>
      </trkpt>
      <trkpt lat="45.16959" lon="5.63016">
        <ele>1173.8</ele>
        <time>2021-04-23T08:50:26.000Z</time>
      </trkpt>
      <trkpt lat="45.16958" lon="5.63016">
        <ele>1173.8</ele>
        <time>2021-04-23T08:50:27.000Z</time>
      </trkpt>
      <trkpt lat="45.16956" lon="5.63016">
        <ele>1174</ele>
        <time>2021-04-23T08:50:28.000Z</time>
      </trkpt>
      <trkpt lat="45.16953" lon="5.63017">
        <ele>1174.2</ele>
        <time>2021-04-23T08:50:30.000Z</time>
      </trkpt>
      <trkpt lat="45.16952" lon="5.63016">
        <ele>1174.2</ele>
        <time>2021-04-23T08:50:31.000Z</time>
      </trkpt>
      <trkpt lat="45.1695" lon="5.63016">
        <ele>1174.2</ele>
        <time>2021-04-23T08:50:32.000Z</time>
      </trkpt>
      <trkpt lat="45.16948" lon="5.63015">
        <ele>1174.2</ele>
        <time>2021-04-23T08:50:33.000Z</time>
      </trkpt>
      <trkpt lat="45.16947" lon="5.63012">
        <ele>1174.2</ele>
        <time>2021-04-23T08:50:34.000Z</time>
      </trkpt>
      <trkpt lat="45.16946" lon="5.63009">
        <ele>1174.2</ele>
        <time>2021-04-23T08:50:35.000Z</time>
      </trkpt>
      <trkpt lat="45.16945" lon="5.63006">
        <ele>1174.2</ele>
        <time>2021-04-23T08:50:36.000Z</time>
      </trkpt>
      <trkpt lat="45.16944" lon="5.63003">
        <ele>1174</ele>
        <time>2021-04-23T08:50:37.000Z</time>
      </trkpt>
      <trkpt lat="45.16942" lon="5.63001">
        <ele>1174</ele>
        <time>2021-04-23T08:50:38.000Z</time>
      </trkpt>
      <trkpt lat="45.16941" lon="5.63">
        <ele>1174</ele>
        <time>2021-04-23T08:50:39.000Z</time>
      </trkpt>
      <trkpt lat="45.16939" lon="5.62998">
        <ele>1174.2</ele>
        <time>2021-04-23T08:50:40.000Z</time>
      </trkpt>
      <trkpt lat="45.16937" lon="5.62997">
        <ele>1174.4</ele>
        <time>2021-04-23T08:50:41.000Z</time>
      </trkpt>
      <trkpt lat="45.16935" lon="5.62997">
        <ele>1174.6</ele>
        <time>2021-04-23T08:50:42.000Z</time>
      </trkpt>
      <trkpt lat="45.16933" lon="5.62996">
        <ele>1174.6</ele>
        <time>2021-04-23T08:50:43.000Z</time>
      </trkpt>
      <trkpt lat="45.16931" lon="5.62997">
        <ele>1174.6</ele>
        <time>2021-04-23T08:50:44.000Z</time>
      </trkpt>
      <trkpt lat="45.16928" lon="5.62998">
        <ele>1174.8</ele>
        <time>2021-04-23T08:50:46.000Z</time>
      </trkpt>
      <trkpt lat="45.16927" lon="5.63">
        <ele>1174.8</ele>
        <time>2021-04-23T08:50:47.000Z</time>
      </trkpt>
      <trkpt lat="45.16927" lon="5.63003">
        <ele>1174.8</ele>
        <time>2021-04-23T08:50:48.000Z</time>
      </trkpt>
      <trkpt lat="45.16927" lon="5.63006">
        <ele>1174.8</ele>
        <time>2021-04-23T08:50:49.000Z</time>
      </trkpt>
      <trkpt lat="45.16926" lon="5.63008">
        <ele>1175</ele>
        <time>2021-04-23T08:50:50.000Z</time>
      </trkpt>
      <trkpt lat="45.16925" lon="5.63009">
        <ele>1175</ele>
        <time>2021-04-23T08:50:51.000Z</time>
      </trkpt>
      <trkpt lat="45.16923" lon="5.6301">
        <ele>1175</ele>
        <time>2021-04-23T08:50:52.000Z</time>
      </trkpt>
      <trkpt lat="45.16921" lon="5.6301">
        <ele>1175</ele>
        <time>2021-04-23T08:50:53.000Z</time>
      </trkpt>
      <trkpt lat="45.1692" lon="5.6301">
        <ele>1175</ele>
        <time>2021-04-23T08:50:54.000Z</time>
      </trkpt>
      <trkpt lat="45.16918" lon="5.63009">
        <ele>1175</ele>
        <time>2021-04-23T08:50:55.000Z</time>
      </trkpt>
      <trkpt lat="45.16918" lon="5.63009">
        <ele>1175</ele>
        <time>2021-04-23T08:50:56.000Z</time>
      </trkpt>
      <trkpt lat="45.16918" lon="5.63009">
        <ele>1175</ele>
        <time>2021-04-23T08:50:58.000Z</time>
      </trkpt>
      <trkpt lat="45.16916" lon="5.6301">
        <ele>1175.2</ele>
        <time>2021-04-23T08:51:02.000Z</time>
      </trkpt>
      <trkpt lat="45.16916" lon="5.63011">
        <ele>1175.2</ele>
        <time>2021-04-23T08:51:03.000Z</time>
      </trkpt>
      <trkpt lat="45.16916" lon="5.63011">
        <ele>1175</ele>
        <time>2021-04-23T08:51:04.000Z</time>
      </trkpt>
      <trkpt lat="45.16916" lon="5.63011">
        <ele>1175</ele>
        <time>2021-04-23T08:51:05.000Z</time>
      </trkpt>
      <trkpt lat="45.16916" lon="5.63011">
        <ele>1174.4</ele>
        <time>2021-04-23T08:51:14.000Z</time>
      </trkpt>
      <trkpt lat="45.16916" lon="5.63011">
        <ele>1174.2</ele>
        <time>2021-04-23T08:51:20.000Z</time>
      </trkpt>
      <trkpt lat="45.16916" lon="5.63011">
        <ele>1174.2</ele>
        <time>2021-04-23T08:51:22.000Z</time>
      </trkpt>
      <trkpt lat="45.16914" lon="5.63007">
        <ele>1174.4</ele>
        <time>2021-04-23T08:51:29.000Z</time>
      </trkpt>
      <trkpt lat="45.16914" lon="5.63007">
        <ele>1174.4</ele>
        <time>2021-04-23T08:51:30.000Z</time>
      </trkpt>
      <trkpt lat="45.16914" lon="5.63005">
        <ele>1173.8</ele>
        <time>2021-04-23T08:51:45.000Z</time>
      </trkpt>
      <trkpt lat="45.16914" lon="5.63002">
        <ele>1173.8</ele>
        <time>2021-04-23T08:51:47.000Z</time>
      </trkpt>
      <trkpt lat="45.16913" lon="5.63001">
        <ele>1173.8</ele>
        <time>2021-04-23T08:51:48.000Z</time>
      </trkpt>
      <trkpt lat="45.16912" lon="5.63">
        <ele>1173.8</ele>
        <time>2021-04-23T08:51:49.000Z</time>
      </trkpt>
      <trkpt lat="45.16912" lon="5.63">
        <ele>1173.8</ele>
        <time>2021-04-23T08:51:55.000Z</time>
      </trkpt>
      <trkpt lat="45.16912" lon="5.63">
        <ele>1173.6</ele>
        <time>2021-04-23T08:51:56.000Z</time>
      </trkpt>
      <trkpt lat="45.16912" lon="5.63">
        <ele>1173.6</ele>
        <time>2021-04-23T08:52:01.000Z</time>
      </trkpt>
      <trkpt lat="45.16912" lon="5.62998">
        <ele>1173.2</ele>
        <time>2021-04-23T08:52:07.000Z</time>
      </trkpt>
      <trkpt lat="45.16912" lon="5.62998">
        <ele>1173.2</ele>
        <time>2021-04-23T08:52:08.000Z</time>
      </trkpt>
      <trkpt lat="45.16912" lon="5.62998">
        <ele>1173.2</ele>
        <time>2021-04-23T08:52:11.000Z</time>
      </trkpt>
      <trkpt lat="45.16913" lon="5.62998">
        <ele>1172.8</ele>
        <time>2021-04-23T08:52:24.000Z</time>
      </trkpt>
      <trkpt lat="45.16913" lon="5.62997">
        <ele>1172.4</ele>
        <time>2021-04-23T08:52:32.000Z</time>
      </trkpt>
      <trkpt lat="45.16913" lon="5.62997">
        <ele>1172.6</ele>
        <time>2021-04-23T08:52:39.000Z</time>
      </trkpt>
      <trkpt lat="45.16913" lon="5.62997">
        <ele>1172.8</ele>
        <time>2021-04-23T08:52:43.000Z</time>
      </trkpt>
      <trkpt lat="45.16913" lon="5.62998">
        <ele>1172.6</ele>
        <time>2021-04-23T08:52:53.000Z</time>
      </trkpt>
      <trkpt lat="45.16912" lon="5.62999">
        <ele>1172.2</ele>
        <time>2021-04-23T08:53:01.000Z</time>
      </trkpt>
      <trkpt lat="45.16912" lon="5.62999">
        <ele>1172</ele>
        <time>2021-04-23T08:53:09.000Z</time>
      </trkpt>
      <trkpt lat="45.16912" lon="5.62999">
        <ele>1172</ele>
        <time>2021-04-23T08:53:25.000Z</time>
      </trkpt>
      <trkpt lat="45.16912" lon="5.62999">
        <ele>1172</ele>
        <time>2021-04-23T08:53:34.000Z</time>
      </trkpt>
      <trkpt lat="45.16912" lon="5.62999">
        <ele>1172</ele>
        <time>2021-04-23T08:53:38.000Z</time>
      </trkpt>
      <trkpt lat="45.16912" lon="5.62999">
        <ele>1172</ele>
        <time>2021-04-23T08:53:40.000Z</time>
      </trkpt>
      <trkpt lat="45.16912" lon="5.62999">
        <ele>1172</ele>
        <time>2021-04-23T08:53:42.000Z</time>
      </trkpt>
      <trkpt lat="45.16912" lon="5.62999">
        <ele>1172</ele>
        <time>2021-04-23T08:53:43.000Z</time>
      </trkpt>
      <trkpt lat="45.16912" lon="5.62999">
        <ele>1172</ele>
        <time>2021-04-23T08:53:44.000Z</time>
      </trkpt>
      <trkpt lat="45.16912" lon="5.62999">
        <ele>1172</ele>
        <time>2021-04-23T08:53:45.000Z</time>
      </trkpt>
      <trkpt lat="45.16912" lon="5.62999">
        <ele>1172.2</ele>
        <time>2021-04-23T08:53:54.000Z</time>
      </trkpt>
      <trkpt lat="45.16912" lon="5.62999">
        <ele>1172.2</ele>
        <time>2021-04-23T08:53:56.000Z</time>
      </trkpt>
      <trkpt lat="45.16912" lon="5.62999">
        <ele>1172</ele>
        <time>2021-04-23T08:53:58.000Z</time>
      </trkpt>
      <trkpt lat="45.16912" lon="5.62999">
        <ele>1172</ele>
        <time>2021-04-23T08:54:00.000Z</time>
      </trkpt>
      <trkpt lat="45.16912" lon="5.62999">
        <ele>1171.8</ele>
        <time>2021-04-23T08:54:02.000Z</time>
      </trkpt>
      <trkpt lat="45.16912" lon="5.62999">
        <ele>1171.8</ele>
        <time>2021-04-23T08:54:14.000Z</time>
      </trkpt>
      <trkpt lat="45.16912" lon="5.62999">
        <ele>1171.8</ele>
        <time>2021-04-23T08:54:20.000Z</time>
      </trkpt>
      <trkpt lat="45.16911" lon="5.62999">
        <ele>1171.8</ele>
        <time>2021-04-23T08:54:23.000Z</time>
      </trkpt>
      <trkpt lat="45.16911" lon="5.62999">
        <ele>1171.8</ele>
        <time>2021-04-23T08:54:26.000Z</time>
      </trkpt>
      <trkpt lat="45.16911" lon="5.62999">
        <ele>1171.8</ele>
        <time>2021-04-23T08:54:30.000Z</time>
      </trkpt>
      <trkpt lat="45.16911" lon="5.62999">
        <ele>1171.8</ele>
        <time>2021-04-23T08:54:42.000Z</time>
      </trkpt>
      <trkpt lat="45.16911" lon="5.62999">
        <ele>1171.8</ele>
        <time>2021-04-23T08:54:44.000Z</time>
      </trkpt>
      <trkpt lat="45.16911" lon="5.62999">
        <ele>1171.8</ele>
        <time>2021-04-23T08:54:48.000Z</time>
      </trkpt>
      <trkpt lat="45.16911" lon="5.62998">
        <ele>1171.8</ele>
        <time>2021-04-23T08:55:14.000Z</time>
      </trkpt>
      <trkpt lat="45.16911" lon="5.62998">
        <ele>1171.8</ele>
        <time>2021-04-23T08:55:26.000Z</time>
      </trkpt>
      <trkpt lat="45.16911" lon="5.62998">
        <ele>1171.8</ele>
        <time>2021-04-23T08:55:31.000Z</time>
      </trkpt>
      <trkpt lat="45.16911" lon="5.62998">
        <ele>1171.8</ele>
        <time>2021-04-23T08:55:50.000Z</time>
      </trkpt>
      <trkpt lat="45.16911" lon="5.62998">
        <ele>1171.8</ele>
        <time>2021-04-23T08:55:56.000Z</time>
      </trkpt>
      <trkpt lat="45.16911" lon="5.62998">
        <ele>1171.8</ele>
        <time>2021-04-23T08:56:04.000Z</time>
      </trkpt>
      <trkpt lat="45.16911" lon="5.62998">
        <ele>1171.8</ele>
        <time>2021-04-23T08:56:08.000Z</time>
      </trkpt>
      <trkpt lat="45.16911" lon="5.62998">
        <ele>1171.8</ele>
        <time>2021-04-23T08:56:10.000Z</time>
      </trkpt>
      <trkpt lat="45.16911" lon="5.62998">
        <ele>1171.8</ele>
        <time>2021-04-23T08:56:20.000Z</time>
      </trkpt>
      <trkpt lat="45.16911" lon="5.62998">
        <ele>1171.8</ele>
        <time>2021-04-23T08:56:33.000Z</time>
      </trkpt>
      <trkpt lat="45.16911" lon="5.62998">
        <ele>1171.8</ele>
        <time>2021-04-23T08:56:52.000Z</time>
      </trkpt>
      <trkpt lat="45.16911" lon="5.62998">
        <ele>1171.8</ele>
        <time>2021-04-23T08:57:11.000Z</time>
      </trkpt>
      <trkpt lat="45.16911" lon="5.62998">
        <ele>1171.8</ele>
        <time>2021-04-23T08:57:15.000Z</time>
      </trkpt>
      <trkpt lat="45.16911" lon="5.62998">
        <ele>1171.8</ele>
        <time>2021-04-23T08:57:23.000Z</time>
      </trkpt>
      <trkpt lat="45.16911" lon="5.62998">
        <ele>1171.8</ele>
        <time>2021-04-23T08:57:26.000Z</time>
      </trkpt>
      <trkpt lat="45.16911" lon="5.62998">
        <ele>1171.8</ele>
        <time>2021-04-23T08:57:59.000Z</time>
      </trkpt>
      <trkpt lat="45.16911" lon="5.62998">
        <ele>1171.8</ele>
        <time>2021-04-23T08:58:12.000Z</time>
      </trkpt>
      <trkpt lat="45.16911" lon="5.62998">
        <ele>1171.8</ele>
        <time>2021-04-23T08:58:15.000Z</time>
      </trkpt>
      <trkpt lat="45.16911" lon="5.62998">
        <ele>1171.8</ele>
        <time>2021-04-23T08:58:17.000Z</time>
      </trkpt>
      <trkpt lat="45.16912" lon="5.62999">
        <ele>1171.8</ele>
        <time>2021-04-23T08:58:32.000Z</time>
      </trkpt>
      <trkpt lat="45.16912" lon="5.62999">
        <ele>1171.8</ele>
        <time>2021-04-23T08:58:37.000Z</time>
      </trkpt>
      <trkpt lat="45.16912" lon="5.62999">
        <ele>1171.8</ele>
        <time>2021-04-23T08:58:47.000Z</time>
      </trkpt>
      <trkpt lat="45.16912" lon="5.62999">
        <ele>1171.8</ele>
        <time>2021-04-23T08:59:09.000Z</time>
      </trkpt>
      <trkpt lat="45.16912" lon="5.62999">
        <ele>1171.8</ele>
        <time>2021-04-23T08:59:17.000Z</time>
      </trkpt>
      <trkpt lat="45.16912" lon="5.62999">
        <ele>1171.8</ele>
        <time>2021-04-23T08:59:40.000Z</time>
      </trkpt>
      <trkpt lat="45.16912" lon="5.62999">
        <ele>1171.8</ele>
        <time>2021-04-23T08:59:44.000Z</time>
      </trkpt>
      <trkpt lat="45.16912" lon="5.62999">
        <ele>1171.8</ele>
        <time>2021-04-23T08:59:53.000Z</time>
      </trkpt>
      <trkpt lat="45.16912" lon="5.62999">
        <ele>1171.8</ele>
        <time>2021-04-23T09:00:37.000Z</time>
      </trkpt>
      <trkpt lat="45.16912" lon="5.62999">
        <ele>1171.8</ele>
        <time>2021-04-23T09:01:04.000Z</time>
      </trkpt>
      <trkpt lat="45.16912" lon="5.62999">
        <ele>1171.8</ele>
        <time>2021-04-23T09:01:07.000Z</time>
      </trkpt>
      <trkpt lat="45.16912" lon="5.62999">
        <ele>1171.8</ele>
        <time>2021-04-23T09:01:12.000Z</time>
      </trkpt>
      <trkpt lat="45.16912" lon="5.62999">
        <ele>1171.8</ele>
        <time>2021-04-23T09:01:14.000Z</time>
      </trkpt>
      <trkpt lat="45.16912" lon="5.62999">
        <ele>1171.8</ele>
        <time>2021-04-23T09:01:16.000Z</time>
      </trkpt>
      <trkpt lat="45.16912" lon="5.62999">
        <ele>1171.8</ele>
        <time>2021-04-23T09:01:23.000Z</time>
      </trkpt>
      <trkpt lat="45.16912" lon="5.62999">
        <ele>1171.8</ele>
        <time>2021-04-23T09:01:30.000Z</time>
      </trkpt>
      <trkpt lat="45.16912" lon="5.62999">
        <ele>1171.8</ele>
        <time>2021-04-23T09:01:32.000Z</time>
      </trkpt>
      <trkpt lat="45.16912" lon="5.62999">
        <ele>1171.8</ele>
        <time>2021-04-23T09:01:37.000Z</time>
      </trkpt>
      <trkpt lat="45.16912" lon="5.62999">
        <ele>1171.8</ele>
        <time>2021-04-23T09:01:41.000Z</time>
      </trkpt>
      <trkpt lat="45.16912" lon="5.62999">
        <ele>1171.8</ele>
        <time>2021-04-23T09:01:53.000Z</time>
      </trkpt>
      <trkpt lat="45.16912" lon="5.62999">
        <ele>1171.8</ele>
        <time>2021-04-23T09:02:00.000Z</time>
      </trkpt>
      <trkpt lat="45.16912" lon="5.62999">
        <ele>1171.8</ele>
        <time>2021-04-23T09:02:02.000Z</time>
      </trkpt>
      <trkpt lat="45.16912" lon="5.62999">
        <ele>1171.8</ele>
        <time>2021-04-23T09:02:04.000Z</time>
      </trkpt>
      <trkpt lat="45.16912" lon="5.62999">
        <ele>1171.8</ele>
        <time>2021-04-23T09:02:06.000Z</time>
      </trkpt>
      <trkpt lat="45.16912" lon="5.62999">
        <ele>1171.8</ele>
        <time>2021-04-23T09:02:08.000Z</time>
      </trkpt>
      <trkpt lat="45.16912" lon="5.62999">
        <ele>1171.8</ele>
        <time>2021-04-23T09:02:41.000Z</time>
      </trkpt>
      <trkpt lat="45.16912" lon="5.62999">
        <ele>1171.8</ele>
        <time>2021-04-23T09:02:42.000Z</time>
      </trkpt>
      <trkpt lat="45.16912" lon="5.62999">
        <ele>1171.8</ele>
        <time>2021-04-23T09:02:51.000Z</time>
      </trkpt>
      <trkpt lat="45.16912" lon="5.62999">
        <ele>1171.8</ele>
        <time>2021-04-23T09:02:56.000Z</time>
      </trkpt>
      <trkpt lat="45.16912" lon="5.62999">
        <ele>1171.8</ele>
        <time>2021-04-23T09:03:30.000Z</time>
      </trkpt>
      <trkpt lat="45.16912" lon="5.62999">
        <ele>1171.8</ele>
        <time>2021-04-23T09:03:40.000Z</time>
      </trkpt>
      <trkpt lat="45.16912" lon="5.62999">
        <ele>1171.8</ele>
        <time>2021-04-23T09:03:50.000Z</time>
      </trkpt>
      <trkpt lat="45.16912" lon="5.62999">
        <ele>1171.8</ele>
        <time>2021-04-23T09:03:53.000Z</time>
      </trkpt>
      <trkpt lat="45.16912" lon="5.62999">
        <ele>1171.8</ele>
        <time>2021-04-23T09:03:54.000Z</time>
      </trkpt>
      <trkpt lat="45.16912" lon="5.62999">
        <ele>1171.8</ele>
        <time>2021-04-23T09:03:57.000Z</time>
      </trkpt>
      <trkpt lat="45.16912" lon="5.62999">
        <ele>1171.8</ele>
        <time>2021-04-23T09:04:35.000Z</time>
      </trkpt>
      <trkpt lat="45.16912" lon="5.62999">
        <ele>1171.8</ele>
        <time>2021-04-23T09:04:36.000Z</time>
      </trkpt>
      <trkpt lat="45.16912" lon="5.62999">
        <ele>1171.8</ele>
        <time>2021-04-23T09:04:54.000Z</time>
      </trkpt>
      <trkpt lat="45.16912" lon="5.62999">
        <ele>1171.8</ele>
        <time>2021-04-23T09:05:09.000Z</time>
      </trkpt>
      <trkpt lat="45.16912" lon="5.62999">
        <ele>1171.8</ele>
        <time>2021-04-23T09:05:26.000Z</time>
      </trkpt>
      <trkpt lat="45.16912" lon="5.62999">
        <ele>1171.8</ele>
        <time>2021-04-23T09:05:42.000Z</time>
      </trkpt>
      <trkpt lat="45.16912" lon="5.62999">
        <ele>1171.8</ele>
        <time>2021-04-23T09:05:47.000Z</time>
      </trkpt>
      <trkpt lat="45.16912" lon="5.62999">
        <ele>1171.8</ele>
        <time>2021-04-23T09:05:58.000Z</time>
      </trkpt>
      <trkpt lat="45.16912" lon="5.62999">
        <ele>1171.8</ele>
        <time>2021-04-23T09:06:17.000Z</time>
      </trkpt>
      <trkpt lat="45.16912" lon="5.62999">
        <ele>1171.8</ele>
        <time>2021-04-23T09:06:30.000Z</time>
      </trkpt>
      <trkpt lat="45.16912" lon="5.62999">
        <ele>1171.8</ele>
        <time>2021-04-23T09:07:00.000Z</time>
      </trkpt>
      <trkpt lat="45.16912" lon="5.62999">
        <ele>1171.8</ele>
        <time>2021-04-23T09:07:09.000Z</time>
      </trkpt>
      <trkpt lat="45.16912" lon="5.62999">
        <ele>1171.8</ele>
        <time>2021-04-23T09:07:19.000Z</time>
      </trkpt>
      <trkpt lat="45.16912" lon="5.62999">
        <ele>1171.8</ele>
        <time>2021-04-23T09:07:22.000Z</time>
      </trkpt>
      <trkpt lat="45.16912" lon="5.62999">
        <ele>1171.8</ele>
        <time>2021-04-23T09:07:26.000Z</time>
      </trkpt>
      <trkpt lat="45.16912" lon="5.62999">
        <ele>1171.8</ele>
        <time>2021-04-23T09:07:38.000Z</time>
      </trkpt>
      <trkpt lat="45.16912" lon="5.62999">
        <ele>1171.8</ele>
        <time>2021-04-23T09:07:40.000Z</time>
      </trkpt>
      <trkpt lat="45.16912" lon="5.62999">
        <ele>1171.8</ele>
        <time>2021-04-23T09:07:42.000Z</time>
      </trkpt>
      <trkpt lat="45.16912" lon="5.62999">
        <ele>1171.8</ele>
        <time>2021-04-23T09:07:44.000Z</time>
      </trkpt>
      <trkpt lat="45.16912" lon="5.62999">
        <ele>1171.8</ele>
        <time>2021-04-23T09:07:46.000Z</time>
      </trkpt>
      <trkpt lat="45.16912" lon="5.62999">
        <ele>1171.8</ele>
        <time>2021-04-23T09:07:52.000Z</time>
      </trkpt>
      <trkpt lat="45.16912" lon="5.62999">
        <ele>1168.2</ele>
        <time>2021-04-23T09:08:16.000Z</time>
      </trkpt>
      <trkpt lat="45.16912" lon="5.62999">
        <ele>1168.2</ele>
        <time>2021-04-23T09:08:22.000Z</time>
      </trkpt>
      <trkpt lat="45.16912" lon="5.62999">
        <ele>1167.8</ele>
        <time>2021-04-23T09:08:40.000Z</time>
      </trkpt>
      <trkpt lat="45.16912" lon="5.62999">
        <ele>1167.4</ele>
        <time>2021-04-23T09:08:52.000Z</time>
      </trkpt>
      <trkpt lat="45.16912" lon="5.62999">
        <ele>1167.4</ele>
        <time>2021-04-23T09:09:02.000Z</time>
      </trkpt>
      <trkpt lat="45.16912" lon="5.62999">
        <ele>1167.4</ele>
        <time>2021-04-23T09:09:25.000Z</time>
      </trkpt>
      <trkpt lat="45.16912" lon="5.62999">
        <ele>1167.2</ele>
        <time>2021-04-23T09:09:33.000Z</time>
      </trkpt>
      <trkpt lat="45.16912" lon="5.62999">
        <ele>1167.2</ele>
        <time>2021-04-23T09:09:40.000Z</time>
      </trkpt>
      <trkpt lat="45.16912" lon="5.62999">
        <ele>1167.2</ele>
        <time>2021-04-23T09:09:46.000Z</time>
      </trkpt>
      <trkpt lat="45.16912" lon="5.62999">
        <ele>1167</ele>
        <time>2021-04-23T09:09:52.000Z</time>
      </trkpt>
      <trkpt lat="45.16912" lon="5.62999">
        <ele>1167</ele>
        <time>2021-04-23T09:09:58.000Z</time>
      </trkpt>
      <trkpt lat="45.16912" lon="5.62999">
        <ele>1167</ele>
        <time>2021-04-23T09:10:11.000Z</time>
      </trkpt>
      <trkpt lat="45.16912" lon="5.62999">
        <ele>1167</ele>
        <time>2021-04-23T09:10:13.000Z</time>
      </trkpt>
      <trkpt lat="45.16912" lon="5.62999">
        <ele>1167</ele>
        <time>2021-04-23T09:10:20.000Z</time>
      </trkpt>
      <trkpt lat="45.16912" lon="5.62999">
        <ele>1167</ele>
        <time>2021-04-23T09:10:22.000Z</time>
      </trkpt>
      <trkpt lat="45.16912" lon="5.62999">
        <ele>1167</ele>
        <time>2021-04-23T09:10:39.000Z</time>
      </trkpt>
      <trkpt lat="45.16912" lon="5.62999">
        <ele>1167</ele>
        <time>2021-04-23T09:10:43.000Z</time>
      </trkpt>
      <trkpt lat="45.16912" lon="5.62999">
        <ele>1167</ele>
        <time>2021-04-23T09:10:44.000Z</time>
      </trkpt>
      <trkpt lat="45.16912" lon="5.62999">
        <ele>1167</ele>
        <time>2021-04-23T09:10:53.000Z</time>
      </trkpt>
      <trkpt lat="45.16912" lon="5.62999">
        <ele>1167</ele>
        <time>2021-04-23T09:10:56.000Z</time>
      </trkpt>
      <trkpt lat="45.16912" lon="5.62999">
        <ele>1167</ele>
        <time>2021-04-23T09:10:59.000Z</time>
      </trkpt>
      <trkpt lat="45.16912" lon="5.62999">
        <ele>1167</ele>
        <time>2021-04-23T09:11:01.000Z</time>
      </trkpt>
      <trkpt lat="45.16912" lon="5.62999">
        <ele>1167</ele>
        <time>2021-04-23T09:11:02.000Z</time>
      </trkpt>
      <trkpt lat="45.16912" lon="5.62999">
        <ele>1167</ele>
        <time>2021-04-23T09:11:04.000Z</time>
      </trkpt>
      <trkpt lat="45.16912" lon="5.62999">
        <ele>1167</ele>
        <time>2021-04-23T09:11:06.000Z</time>
      </trkpt>
      <trkpt lat="45.16912" lon="5.62999">
        <ele>1167</ele>
        <time>2021-04-23T09:11:18.000Z</time>
      </trkpt>
      <trkpt lat="45.16912" lon="5.62999">
        <ele>1167</ele>
        <time>2021-04-23T09:11:23.000Z</time>
      </trkpt>
      <trkpt lat="45.16912" lon="5.62999">
        <ele>1167</ele>
        <time>2021-04-23T09:11:25.000Z</time>
      </trkpt>
      <trkpt lat="45.16912" lon="5.62999">
        <ele>1167</ele>
        <time>2021-04-23T09:11:45.000Z</time>
      </trkpt>
      <trkpt lat="45.16912" lon="5.62999">
        <ele>1167</ele>
        <time>2021-04-23T09:12:30.000Z</time>
      </trkpt>
      <trkpt lat="45.16912" lon="5.62999">
        <ele>1167</ele>
        <time>2021-04-23T09:12:32.000Z</time>
      </trkpt>
      <trkpt lat="45.16912" lon="5.62999">
        <ele>1167</ele>
        <time>2021-04-23T09:12:39.000Z</time>
      </trkpt>
      <trkpt lat="45.16912" lon="5.62999">
        <ele>1167</ele>
        <time>2021-04-23T09:12:57.000Z</time>
      </trkpt>
      <trkpt lat="45.16912" lon="5.62999">
        <ele>1167</ele>
        <time>2021-04-23T09:13:00.000Z</time>
      </trkpt>
      <trkpt lat="45.16912" lon="5.62999">
        <ele>1167</ele>
        <time>2021-04-23T09:13:31.000Z</time>
      </trkpt>
      <trkpt lat="45.16912" lon="5.62999">
        <ele>1167</ele>
        <time>2021-04-23T09:13:33.000Z</time>
      </trkpt>
      <trkpt lat="45.16912" lon="5.62999">
        <ele>1167</ele>
        <time>2021-04-23T09:13:45.000Z</time>
      </trkpt>
      <trkpt lat="45.16912" lon="5.62999">
        <ele>1167</ele>
        <time>2021-04-23T09:14:02.000Z</time>
      </trkpt>
      <trkpt lat="45.16912" lon="5.62999">
        <ele>1167</ele>
        <time>2021-04-23T09:14:10.000Z</time>
      </trkpt>
      <trkpt lat="45.16912" lon="5.62999">
        <ele>1167</ele>
        <time>2021-04-23T09:14:15.000Z</time>
      </trkpt>
      <trkpt lat="45.16912" lon="5.62999">
        <ele>1167</ele>
        <time>2021-04-23T09:14:22.000Z</time>
      </trkpt>
      <trkpt lat="45.16912" lon="5.62999">
        <ele>1167</ele>
        <time>2021-04-23T09:14:38.000Z</time>
      </trkpt>
      <trkpt lat="45.16912" lon="5.62999">
        <ele>1167</ele>
        <time>2021-04-23T09:14:41.000Z</time>
      </trkpt>
      <trkpt lat="45.16912" lon="5.62999">
        <ele>1167</ele>
        <time>2021-04-23T09:14:43.000Z</time>
      </trkpt>
      <trkpt lat="45.16912" lon="5.62999">
        <ele>1167</ele>
        <time>2021-04-23T09:14:46.000Z</time>
      </trkpt>
      <trkpt lat="45.16912" lon="5.62999">
        <ele>1167</ele>
        <time>2021-04-23T09:15:02.000Z</time>
      </trkpt>
      <trkpt lat="45.16912" lon="5.62999">
        <ele>1167</ele>
        <time>2021-04-23T09:15:21.000Z</time>
      </trkpt>
      <trkpt lat="45.16912" lon="5.62999">
        <ele>1167</ele>
        <time>2021-04-23T09:15:31.000Z</time>
      </trkpt>
      <trkpt lat="45.16912" lon="5.62999">
        <ele>1167</ele>
        <time>2021-04-23T09:15:45.000Z</time>
      </trkpt>
      <trkpt lat="45.16912" lon="5.62999">
        <ele>1167</ele>
        <time>2021-04-23T09:15:59.000Z</time>
      </trkpt>
      <trkpt lat="45.16912" lon="5.62999">
        <ele>1167</ele>
        <time>2021-04-23T09:16:25.000Z</time>
      </trkpt>
      <trkpt lat="45.16912" lon="5.62999">
        <ele>1167</ele>
        <time>2021-04-23T09:16:34.000Z</time>
      </trkpt>
      <trkpt lat="45.16912" lon="5.62999">
        <ele>1167</ele>
        <time>2021-04-23T09:16:42.000Z</time>
      </trkpt>
      <trkpt lat="45.16912" lon="5.62999">
        <ele>1167</ele>
        <time>2021-04-23T09:16:56.000Z</time>
      </trkpt>
      <trkpt lat="45.16912" lon="5.62999">
        <ele>1167</ele>
        <time>2021-04-23T09:17:01.000Z</time>
      </trkpt>
      <trkpt lat="45.16912" lon="5.62999">
        <ele>1167</ele>
        <time>2021-04-23T09:17:19.000Z</time>
      </trkpt>
      <trkpt lat="45.16912" lon="5.62999">
        <ele>1167</ele>
        <time>2021-04-23T09:17:23.000Z</time>
      </trkpt>
      <trkpt lat="45.16912" lon="5.62999">
        <ele>1167</ele>
        <time>2021-04-23T09:17:30.000Z</time>
      </trkpt>
      <trkpt lat="45.16912" lon="5.62999">
        <ele>1167</ele>
        <time>2021-04-23T09:17:59.000Z</time>
      </trkpt>
      <trkpt lat="45.16912" lon="5.62999">
        <ele>1167</ele>
        <time>2021-04-23T09:18:18.000Z</time>
      </trkpt>
      <trkpt lat="45.16912" lon="5.62999">
        <ele>1167</ele>
        <time>2021-04-23T09:18:25.000Z</time>
      </trkpt>
      <trkpt lat="45.16912" lon="5.62999">
        <ele>1167</ele>
        <time>2021-04-23T09:18:29.000Z</time>
      </trkpt>
      <trkpt lat="45.16912" lon="5.62999">
        <ele>1167</ele>
        <time>2021-04-23T09:18:37.000Z</time>
      </trkpt>
      <trkpt lat="45.16912" lon="5.62999">
        <ele>1167</ele>
        <time>2021-04-23T09:18:48.000Z</time>
      </trkpt>
      <trkpt lat="45.16912" lon="5.62999">
        <ele>1167</ele>
        <time>2021-04-23T09:19:18.000Z</time>
      </trkpt>
      <trkpt lat="45.16912" lon="5.62999">
        <ele>1167</ele>
        <time>2021-04-23T09:19:32.000Z</time>
      </trkpt>
      <trkpt lat="45.16912" lon="5.62999">
        <ele>1167</ele>
        <time>2021-04-23T09:19:55.000Z</time>
      </trkpt>
      <trkpt lat="45.16912" lon="5.62999">
        <ele>1167</ele>
        <time>2021-04-23T09:20:28.000Z</time>
      </trkpt>
      <trkpt lat="45.16912" lon="5.62999">
        <ele>1167</ele>
        <time>2021-04-23T09:20:30.000Z</time>
      </trkpt>
      <trkpt lat="45.16912" lon="5.62999">
        <ele>1167</ele>
        <time>2021-04-23T09:20:32.000Z</time>
      </trkpt>
      <trkpt lat="45.16912" lon="5.62999">
        <ele>1167</ele>
        <time>2021-04-23T09:20:51.000Z</time>
      </trkpt>
      <trkpt lat="45.16912" lon="5.62999">
        <ele>1167</ele>
        <time>2021-04-23T09:20:58.000Z</time>
      </trkpt>
      <trkpt lat="45.16912" lon="5.62999">
        <ele>1167</ele>
        <time>2021-04-23T09:21:01.000Z</time>
      </trkpt>
      <trkpt lat="45.16912" lon="5.62999">
        <ele>1167</ele>
        <time>2021-04-23T09:21:24.000Z</time>
      </trkpt>
      <trkpt lat="45.16912" lon="5.62999">
        <ele>1167</ele>
        <time>2021-04-23T09:21:35.000Z</time>
      </trkpt>
      <trkpt lat="45.16912" lon="5.62999">
        <ele>1167</ele>
        <time>2021-04-23T09:21:54.000Z</time>
      </trkpt>
      <trkpt lat="45.16912" lon="5.62999">
        <ele>1167</ele>
        <time>2021-04-23T09:22:04.000Z</time>
      </trkpt>
      <trkpt lat="45.16912" lon="5.62999">
        <ele>1167</ele>
        <time>2021-04-23T09:22:06.000Z</time>
      </trkpt>
      <trkpt lat="45.16912" lon="5.62999">
        <ele>1167</ele>
        <time>2021-04-23T09:22:08.000Z</time>
      </trkpt>
      <trkpt lat="45.16912" lon="5.62999">
        <ele>1167</ele>
        <time>2021-04-23T09:22:10.000Z</time>
      </trkpt>
      <trkpt lat="45.16912" lon="5.62999">
        <ele>1167</ele>
        <time>2021-04-23T09:22:17.000Z</time>
      </trkpt>
      <trkpt lat="45.16912" lon="5.62999">
        <ele>1167</ele>
        <time>2021-04-23T09:22:33.000Z</time>
      </trkpt>
      <trkpt lat="45.16912" lon="5.62999">
        <ele>1167</ele>
        <time>2021-04-23T09:22:36.000Z</time>
      </trkpt>
      <trkpt lat="45.16912" lon="5.62999">
        <ele>1167</ele>
        <time>2021-04-23T09:22:44.000Z</time>
      </trkpt>
      <trkpt lat="45.16912" lon="5.62999">
        <ele>1167</ele>
        <time>2021-04-23T09:22:48.000Z</time>
      </trkpt>
      <trkpt lat="45.16912" lon="5.62999">
        <ele>1167</ele>
        <time>2021-04-23T09:23:11.000Z</time>
      </trkpt>
      <trkpt lat="45.16912" lon="5.62999">
        <ele>1167</ele>
        <time>2021-04-23T09:23:15.000Z</time>
      </trkpt>
      <trkpt lat="45.16912" lon="5.62999">
        <ele>1167</ele>
        <time>2021-04-23T09:23:26.000Z</time>
      </trkpt>
      <trkpt lat="45.16912" lon="5.62999">
        <ele>1167</ele>
        <time>2021-04-23T09:23:31.000Z</time>
      </trkpt>
      <trkpt lat="45.16912" lon="5.62999">
        <ele>1167</ele>
        <time>2021-04-23T09:23:32.000Z</time>
      </trkpt>
      <trkpt lat="45.16912" lon="5.62999">
        <ele>1167</ele>
        <time>2021-04-23T09:23:33.000Z</time>
      </trkpt>
      <trkpt lat="45.16912" lon="5.62999">
        <ele>1167</ele>
        <time>2021-04-23T09:23:34.000Z</time>
      </trkpt>
      <trkpt lat="45.16912" lon="5.62999">
        <ele>1167</ele>
        <time>2021-04-23T09:23:38.000Z</time>
      </trkpt>
      <trkpt lat="45.16912" lon="5.62999">
        <ele>1167</ele>
        <time>2021-04-23T09:23:49.000Z</time>
      </trkpt>
      <trkpt lat="45.16912" lon="5.62999">
        <ele>1167</ele>
        <time>2021-04-23T09:24:30.000Z</time>
      </trkpt>
      <trkpt lat="45.16912" lon="5.62999">
        <ele>1167</ele>
        <time>2021-04-23T09:24:50.000Z</time>
      </trkpt>
      <trkpt lat="45.16912" lon="5.62999">
        <ele>1167</ele>
        <time>2021-04-23T09:25:10.000Z</time>
      </trkpt>
      <trkpt lat="45.16912" lon="5.62999">
        <ele>1167</ele>
        <time>2021-04-23T09:25:15.000Z</time>
      </trkpt>
      <trkpt lat="45.16912" lon="5.62999">
        <ele>1167</ele>
        <time>2021-04-23T09:25:37.000Z</time>
      </trkpt>
      <trkpt lat="45.16912" lon="5.62999">
        <ele>1167</ele>
        <time>2021-04-23T09:25:43.000Z</time>
      </trkpt>
      <trkpt lat="45.16912" lon="5.62999">
        <ele>1167</ele>
        <time>2021-04-23T09:25:45.000Z</time>
      </trkpt>
      <trkpt lat="45.16912" lon="5.62999">
        <ele>1167</ele>
        <time>2021-04-23T09:25:46.000Z</time>
      </trkpt>
      <trkpt lat="45.16912" lon="5.62999">
        <ele>1167</ele>
        <time>2021-04-23T09:25:59.000Z</time>
      </trkpt>
      <trkpt lat="45.16912" lon="5.62999">
        <ele>1167</ele>
        <time>2021-04-23T09:26:20.000Z</time>
      </trkpt>
      <trkpt lat="45.16912" lon="5.62999">
        <ele>1167</ele>
        <time>2021-04-23T09:26:27.000Z</time>
      </trkpt>
      <trkpt lat="45.16912" lon="5.62999">
        <ele>1167</ele>
        <time>2021-04-23T09:26:39.000Z</time>
      </trkpt>
      <trkpt lat="45.16912" lon="5.62999">
        <ele>1167</ele>
        <time>2021-04-23T09:26:44.000Z</time>
      </trkpt>
      <trkpt lat="45.16912" lon="5.62999">
        <ele>1167</ele>
        <time>2021-04-23T09:26:56.000Z</time>
      </trkpt>
      <trkpt lat="45.16912" lon="5.62999">
        <ele>1167</ele>
        <time>2021-04-23T09:26:58.000Z</time>
      </trkpt>
      <trkpt lat="45.16912" lon="5.62999">
        <ele>1167</ele>
        <time>2021-04-23T09:27:01.000Z</time>
      </trkpt>
      <trkpt lat="45.16912" lon="5.62999">
        <ele>1167</ele>
        <time>2021-04-23T09:27:05.000Z</time>
      </trkpt>
      <trkpt lat="45.16912" lon="5.62999">
        <ele>1167</ele>
        <time>2021-04-23T09:27:23.000Z</time>
      </trkpt>
      <trkpt lat="45.16912" lon="5.62999">
        <ele>1167</ele>
        <time>2021-04-23T09:27:29.000Z</time>
      </trkpt>
      <trkpt lat="45.16912" lon="5.62999">
        <ele>1167</ele>
        <time>2021-04-23T09:27:31.000Z</time>
      </trkpt>
      <trkpt lat="45.16912" lon="5.62999">
        <ele>1167</ele>
        <time>2021-04-23T09:27:37.000Z</time>
      </trkpt>
      <trkpt lat="45.16912" lon="5.62999">
        <ele>1167</ele>
        <time>2021-04-23T09:27:40.000Z</time>
      </trkpt>
      <trkpt lat="45.16912" lon="5.62999">
        <ele>1167</ele>
        <time>2021-04-23T09:28:08.000Z</time>
      </trkpt>
      <trkpt lat="45.16912" lon="5.62999">
        <ele>1167</ele>
        <time>2021-04-23T09:28:17.000Z</time>
      </trkpt>
      <trkpt lat="45.16912" lon="5.62999">
        <ele>1167</ele>
        <time>2021-04-23T09:28:36.000Z</time>
      </trkpt>
      <trkpt lat="45.16912" lon="5.62999">
        <ele>1167</ele>
        <time>2021-04-23T09:28:38.000Z</time>
      </trkpt>
      <trkpt lat="45.16912" lon="5.62999">
        <ele>1167</ele>
        <time>2021-04-23T09:28:43.000Z</time>
      </trkpt>
      <trkpt lat="45.16912" lon="5.62999">
        <ele>1167</ele>
        <time>2021-04-23T09:28:45.000Z</time>
      </trkpt>
      <trkpt lat="45.16912" lon="5.62999">
        <ele>1167</ele>
        <time>2021-04-23T09:28:49.000Z</time>
      </trkpt>
      <trkpt lat="45.16912" lon="5.62999">
        <ele>1167</ele>
        <time>2021-04-23T09:29:19.000Z</time>
      </trkpt>
      <trkpt lat="45.16912" lon="5.62999">
        <ele>1167</ele>
        <time>2021-04-23T09:29:31.000Z</time>
      </trkpt>
      <trkpt lat="45.16912" lon="5.62999">
        <ele>1169.6</ele>
        <time>2021-04-23T09:29:37.000Z</time>
      </trkpt>
      <trkpt lat="45.16912" lon="5.62999">
        <ele>1169.6</ele>
        <time>2021-04-23T09:29:42.000Z</time>
      </trkpt>
      <trkpt lat="45.16912" lon="5.62999">
        <ele>1170</ele>
        <time>2021-04-23T09:29:43.000Z</time>
      </trkpt>
      <trkpt lat="45.16912" lon="5.62999">
        <ele>1170.6</ele>
        <time>2021-04-23T09:29:47.000Z</time>
      </trkpt>
      <trkpt lat="45.16912" lon="5.62999">
        <ele>1170.6</ele>
        <time>2021-04-23T09:29:57.000Z</time>
      </trkpt>
      <trkpt lat="45.16912" lon="5.62999">
        <ele>1171</ele>
        <time>2021-04-23T09:30:02.000Z</time>
      </trkpt>
      <trkpt lat="45.16912" lon="5.62999">
        <ele>1171.2</ele>
        <time>2021-04-23T09:30:06.000Z</time>
      </trkpt>
      <trkpt lat="45.16912" lon="5.62999">
        <ele>1171.2</ele>
        <time>2021-04-23T09:30:08.000Z</time>
      </trkpt>
      <trkpt lat="45.16912" lon="5.62999">
        <ele>1171.2</ele>
        <time>2021-04-23T09:30:10.000Z</time>
      </trkpt>
      <trkpt lat="45.16912" lon="5.62999">
        <ele>1171.4</ele>
        <time>2021-04-23T09:30:11.000Z</time>
      </trkpt>
      <trkpt lat="45.16912" lon="5.62999">
        <ele>1171.6</ele>
        <time>2021-04-23T09:30:12.000Z</time>
      </trkpt>
      <trkpt lat="45.16912" lon="5.62999">
        <ele>1172</ele>
        <time>2021-04-23T09:30:23.000Z</time>
      </trkpt>
      <trkpt lat="45.16912" lon="5.62999">
        <ele>1172.2</ele>
        <time>2021-04-23T09:30:26.000Z</time>
      </trkpt>
      <trkpt lat="45.16912" lon="5.62999">
        <ele>1172.2</ele>
        <time>2021-04-23T09:30:35.000Z</time>
      </trkpt>
      <trkpt lat="45.16912" lon="5.62999">
        <ele>1172.2</ele>
        <time>2021-04-23T09:30:37.000Z</time>
      </trkpt>
      <trkpt lat="45.16912" lon="5.62999">
        <ele>1172.2</ele>
        <time>2021-04-23T09:30:39.000Z</time>
      </trkpt>
      <trkpt lat="45.16912" lon="5.62999">
        <ele>1172.6</ele>
        <time>2021-04-23T09:30:43.000Z</time>
      </trkpt>
      <trkpt lat="45.16912" lon="5.62999">
        <ele>1172.8</ele>
        <time>2021-04-23T09:30:48.000Z</time>
      </trkpt>
      <trkpt lat="45.16912" lon="5.62999">
        <ele>1172.8</ele>
        <time>2021-04-23T09:30:53.000Z</time>
      </trkpt>
      <trkpt lat="45.16912" lon="5.62999">
        <ele>1172.6</ele>
        <time>2021-04-23T09:30:57.000Z</time>
      </trkpt>
      <trkpt lat="45.16912" lon="5.62999">
        <ele>1172.8</ele>
        <time>2021-04-23T09:31:01.000Z</time>
      </trkpt>
      <trkpt lat="45.16912" lon="5.62999">
        <ele>1172.6</ele>
        <time>2021-04-23T09:31:08.000Z</time>
      </trkpt>
      <trkpt lat="45.16912" lon="5.62999">
        <ele>1172.8</ele>
        <time>2021-04-23T09:31:09.000Z</time>
      </trkpt>
      <trkpt lat="45.16911" lon="5.62999">
        <ele>1173</ele>
        <time>2021-04-23T09:31:13.000Z</time>
      </trkpt>
      <trkpt lat="45.16911" lon="5.62999">
        <ele>1173.2</ele>
        <time>2021-04-23T09:31:16.000Z</time>
      </trkpt>
      <trkpt lat="45.16911" lon="5.62999">
        <ele>1173.2</ele>
        <time>2021-04-23T09:31:20.000Z</time>
      </trkpt>
      <trkpt lat="45.16911" lon="5.62999">
        <ele>1173</ele>
        <time>2021-04-23T09:31:35.000Z</time>
      </trkpt>
      <trkpt lat="45.16911" lon="5.62998">
        <ele>1173</ele>
        <time>2021-04-23T09:31:51.000Z</time>
      </trkpt>
      <trkpt lat="45.16911" lon="5.62998">
        <ele>1173</ele>
        <time>2021-04-23T09:31:59.000Z</time>
      </trkpt>
      <trkpt lat="45.16911" lon="5.62998">
        <ele>1173</ele>
        <time>2021-04-23T09:32:01.000Z</time>
      </trkpt>
      <trkpt lat="45.16911" lon="5.62998">
        <ele>1173</ele>
        <time>2021-04-23T09:32:03.000Z</time>
      </trkpt>
      <trkpt lat="45.16911" lon="5.62997">
        <ele>1173</ele>
        <time>2021-04-23T09:32:05.000Z</time>
      </trkpt>
      <trkpt lat="45.16911" lon="5.62997">
        <ele>1173</ele>
        <time>2021-04-23T09:32:06.000Z</time>
      </trkpt>
      <trkpt lat="45.16911" lon="5.62997">
        <ele>1173</ele>
        <time>2021-04-23T09:32:08.000Z</time>
      </trkpt>
      <trkpt lat="45.16911" lon="5.62997">
        <ele>1173</ele>
        <time>2021-04-23T09:32:10.000Z</time>
      </trkpt>
      <trkpt lat="45.16912" lon="5.62997">
        <ele>1173</ele>
        <time>2021-04-23T09:32:23.000Z</time>
      </trkpt>
      <trkpt lat="45.16912" lon="5.62997">
        <ele>1173</ele>
        <time>2021-04-23T09:32:31.000Z</time>
      </trkpt>
      <trkpt lat="45.16912" lon="5.62997">
        <ele>1173</ele>
        <time>2021-04-23T09:32:36.000Z</time>
      </trkpt>
      <trkpt lat="45.16912" lon="5.62997">
        <ele>1173</ele>
        <time>2021-04-23T09:32:50.000Z</time>
      </trkpt>
      <trkpt lat="45.16912" lon="5.62997">
        <ele>1173</ele>
        <time>2021-04-23T09:32:55.000Z</time>
      </trkpt>
      <trkpt lat="45.16912" lon="5.62997">
        <ele>1173</ele>
        <time>2021-04-23T09:32:58.000Z</time>
      </trkpt>
      <trkpt lat="45.16912" lon="5.62996">
        <ele>1173</ele>
        <time>2021-04-23T09:33:17.000Z</time>
      </trkpt>
      <trkpt lat="45.16912" lon="5.62996">
        <ele>1173</ele>
        <time>2021-04-23T09:33:20.000Z</time>
      </trkpt>
      <trkpt lat="45.16912" lon="5.62996">
        <ele>1173</ele>
        <time>2021-04-23T09:33:23.000Z</time>
      </trkpt>
      <trkpt lat="45.16912" lon="5.62996">
        <ele>1173</ele>
        <time>2021-04-23T09:33:25.000Z</time>
      </trkpt>
      <trkpt lat="45.16912" lon="5.62996">
        <ele>1173</ele>
        <time>2021-04-23T09:33:27.000Z</time>
      </trkpt>
      <trkpt lat="45.16912" lon="5.62996">
        <ele>1173</ele>
        <time>2021-04-23T09:33:37.000Z</time>
      </trkpt>
      <trkpt lat="45.16912" lon="5.62996">
        <ele>1173</ele>
        <time>2021-04-23T09:33:42.000Z</time>
      </trkpt>
      <trkpt lat="45.16912" lon="5.62996">
        <ele>1173</ele>
        <time>2021-04-23T09:34:04.000Z</time>
      </trkpt>
      <trkpt lat="45.16912" lon="5.62996">
        <ele>1173</ele>
        <time>2021-04-23T09:34:06.000Z</time>
      </trkpt>
      <trkpt lat="45.16912" lon="5.62996">
        <ele>1173</ele>
        <time>2021-04-23T09:34:08.000Z</time>
      </trkpt>
      <trkpt lat="45.16912" lon="5.62996">
        <ele>1173</ele>
        <time>2021-04-23T09:34:10.000Z</time>
      </trkpt>
      <trkpt lat="45.16912" lon="5.62996">
        <ele>1173</ele>
        <time>2021-04-23T09:34:13.000Z</time>
      </trkpt>
      <trkpt lat="45.16912" lon="5.62996">
        <ele>1173</ele>
        <time>2021-04-23T09:34:15.000Z</time>
      </trkpt>
      <trkpt lat="45.16912" lon="5.62996">
        <ele>1173</ele>
        <time>2021-04-23T09:34:17.000Z</time>
      </trkpt>
      <trkpt lat="45.16912" lon="5.62996">
        <ele>1173</ele>
        <time>2021-04-23T09:34:19.000Z</time>
      </trkpt>
      <trkpt lat="45.16912" lon="5.62996">
        <ele>1173</ele>
        <time>2021-04-23T09:34:39.000Z</time>
      </trkpt>
      <trkpt lat="45.16912" lon="5.62996">
        <ele>1173</ele>
        <time>2021-04-23T09:34:41.000Z</time>
      </trkpt>
      <trkpt lat="45.16912" lon="5.62996">
        <ele>1173</ele>
        <time>2021-04-23T09:34:48.000Z</time>
      </trkpt>
      <trkpt lat="45.16912" lon="5.62996">
        <ele>1173</ele>
        <time>2021-04-23T09:34:59.000Z</time>
      </trkpt>
      <trkpt lat="45.16912" lon="5.62996">
        <ele>1173</ele>
        <time>2021-04-23T09:35:05.000Z</time>
      </trkpt>
      <trkpt lat="45.16912" lon="5.62996">
        <ele>1173</ele>
        <time>2021-04-23T09:35:08.000Z</time>
      </trkpt>
      <trkpt lat="45.16912" lon="5.62996">
        <ele>1173</ele>
        <time>2021-04-23T09:35:17.000Z</time>
      </trkpt>
      <trkpt lat="45.16912" lon="5.62996">
        <ele>1173</ele>
        <time>2021-04-23T09:35:23.000Z</time>
      </trkpt>
      <trkpt lat="45.16912" lon="5.62996">
        <ele>1173</ele>
        <time>2021-04-23T09:35:39.000Z</time>
      </trkpt>
      <trkpt lat="45.16912" lon="5.62996">
        <ele>1173</ele>
        <time>2021-04-23T09:35:43.000Z</time>
      </trkpt>
      <trkpt lat="45.16912" lon="5.62996">
        <ele>1173</ele>
        <time>2021-04-23T09:36:00.000Z</time>
      </trkpt>
      <trkpt lat="45.16912" lon="5.62996">
        <ele>1173</ele>
        <time>2021-04-23T09:36:06.000Z</time>
      </trkpt>
      <trkpt lat="45.16912" lon="5.62996">
        <ele>1173</ele>
        <time>2021-04-23T09:36:12.000Z</time>
      </trkpt>
      <trkpt lat="45.16912" lon="5.62996">
        <ele>1173</ele>
        <time>2021-04-23T09:36:16.000Z</time>
      </trkpt>
      <trkpt lat="45.16912" lon="5.62996">
        <ele>1173</ele>
        <time>2021-04-23T09:36:18.000Z</time>
      </trkpt>
      <trkpt lat="45.16912" lon="5.62996">
        <ele>1173</ele>
        <time>2021-04-23T09:36:21.000Z</time>
      </trkpt>
      <trkpt lat="45.16912" lon="5.62996">
        <ele>1173</ele>
        <time>2021-04-23T09:36:25.000Z</time>
      </trkpt>
      <trkpt lat="45.16912" lon="5.62996">
        <ele>1173</ele>
        <time>2021-04-23T09:36:27.000Z</time>
      </trkpt>
      <trkpt lat="45.16912" lon="5.62996">
        <ele>1173</ele>
        <time>2021-04-23T09:36:28.000Z</time>
      </trkpt>
      <trkpt lat="45.16912" lon="5.62996">
        <ele>1173</ele>
        <time>2021-04-23T09:36:29.000Z</time>
      </trkpt>
      <trkpt lat="45.16912" lon="5.62996">
        <ele>1173</ele>
        <time>2021-04-23T09:36:30.000Z</time>
      </trkpt>
      <trkpt lat="45.16912" lon="5.62996">
        <ele>1173</ele>
        <time>2021-04-23T09:36:34.000Z</time>
      </trkpt>
      <trkpt lat="45.16912" lon="5.62996">
        <ele>1173</ele>
        <time>2021-04-23T09:36:39.000Z</time>
      </trkpt>
      <trkpt lat="45.16912" lon="5.62996">
        <ele>1173</ele>
        <time>2021-04-23T09:36:41.000Z</time>
      </trkpt>
      <trkpt lat="45.16912" lon="5.62996">
        <ele>1173</ele>
        <time>2021-04-23T09:36:44.000Z</time>
      </trkpt>
      <trkpt lat="45.16912" lon="5.62996">
        <ele>1173</ele>
        <time>2021-04-23T09:36:50.000Z</time>
      </trkpt>
      <trkpt lat="45.16912" lon="5.62996">
        <ele>1173</ele>
        <time>2021-04-23T09:37:00.000Z</time>
      </trkpt>
      <trkpt lat="45.16912" lon="5.62996">
        <ele>1173</ele>
        <time>2021-04-23T09:37:16.000Z</time>
      </trkpt>
      <trkpt lat="45.16912" lon="5.62996">
        <ele>1173</ele>
        <time>2021-04-23T09:37:20.000Z</time>
      </trkpt>
      <trkpt lat="45.16912" lon="5.62996">
        <ele>1173</ele>
        <time>2021-04-23T09:37:23.000Z</time>
      </trkpt>
      <trkpt lat="45.16912" lon="5.62996">
        <ele>1173</ele>
        <time>2021-04-23T09:37:26.000Z</time>
      </trkpt>
      <trkpt lat="45.16912" lon="5.62996">
        <ele>1173</ele>
        <time>2021-04-23T09:37:30.000Z</time>
      </trkpt>
      <trkpt lat="45.16911" lon="5.62996">
        <ele>1173</ele>
        <time>2021-04-23T09:37:54.000Z</time>
      </trkpt>
      <trkpt lat="45.16911" lon="5.62996">
        <ele>1173</ele>
        <time>2021-04-23T09:37:56.000Z</time>
      </trkpt>
      <trkpt lat="45.16911" lon="5.62996">
        <ele>1173</ele>
        <time>2021-04-23T09:37:58.000Z</time>
      </trkpt>
      <trkpt lat="45.16911" lon="5.62996">
        <ele>1173</ele>
        <time>2021-04-23T09:38:00.000Z</time>
      </trkpt>
      <trkpt lat="45.16911" lon="5.62996">
        <ele>1173</ele>
        <time>2021-04-23T09:38:02.000Z</time>
      </trkpt>
      <trkpt lat="45.16911" lon="5.62996">
        <ele>1173</ele>
        <time>2021-04-23T09:38:06.000Z</time>
      </trkpt>
      <trkpt lat="45.16911" lon="5.62996">
        <ele>1173</ele>
        <time>2021-04-23T09:38:32.000Z</time>
      </trkpt>
      <trkpt lat="45.16911" lon="5.62996">
        <ele>1173</ele>
        <time>2021-04-23T09:38:37.000Z</time>
      </trkpt>
      <trkpt lat="45.16911" lon="5.62996">
        <ele>1173</ele>
        <time>2021-04-23T09:38:40.000Z</time>
      </trkpt>
      <trkpt lat="45.16911" lon="5.62996">
        <ele>1173</ele>
        <time>2021-04-23T09:38:50.000Z</time>
      </trkpt>
      <trkpt lat="45.16911" lon="5.62996">
        <ele>1173</ele>
        <time>2021-04-23T09:38:53.000Z</time>
      </trkpt>
      <trkpt lat="45.16911" lon="5.62996">
        <ele>1173</ele>
        <time>2021-04-23T09:39:03.000Z</time>
      </trkpt>
      <trkpt lat="45.16911" lon="5.62996">
        <ele>1173</ele>
        <time>2021-04-23T09:39:04.000Z</time>
      </trkpt>
      <trkpt lat="45.16911" lon="5.62996">
        <ele>1173</ele>
        <time>2021-04-23T09:39:06.000Z</time>
      </trkpt>
      <trkpt lat="45.16911" lon="5.62996">
        <ele>1173</ele>
        <time>2021-04-23T09:39:10.000Z</time>
      </trkpt>
      <trkpt lat="45.16911" lon="5.62996">
        <ele>1173</ele>
        <time>2021-04-23T09:39:12.000Z</time>
      </trkpt>
      <trkpt lat="45.16911" lon="5.62996">
        <ele>1173</ele>
        <time>2021-04-23T09:39:14.000Z</time>
      </trkpt>
      <trkpt lat="45.16911" lon="5.62996">
        <ele>1173</ele>
        <time>2021-04-23T09:39:16.000Z</time>
      </trkpt>
      <trkpt lat="45.16911" lon="5.62996">
        <ele>1173</ele>
        <time>2021-04-23T09:39:18.000Z</time>
      </trkpt>
      <trkpt lat="45.16911" lon="5.62996">
        <ele>1173</ele>
        <time>2021-04-23T09:39:19.000Z</time>
      </trkpt>
      <trkpt lat="45.16911" lon="5.62996">
        <ele>1173</ele>
        <time>2021-04-23T09:39:20.000Z</time>
      </trkpt>
      <trkpt lat="45.16911" lon="5.62996">
        <ele>1173</ele>
        <time>2021-04-23T09:39:21.000Z</time>
      </trkpt>
      <trkpt lat="45.16911" lon="5.62996">
        <ele>1173</ele>
        <time>2021-04-23T09:39:46.000Z</time>
      </trkpt>
      <trkpt lat="45.16911" lon="5.62996">
        <ele>1173</ele>
        <time>2021-04-23T09:39:51.000Z</time>
      </trkpt>
      <trkpt lat="45.1691" lon="5.62996">
        <ele>1173</ele>
        <time>2021-04-23T09:39:58.000Z</time>
      </trkpt>
      <trkpt lat="45.16908" lon="5.62997">
        <ele>1173</ele>
        <time>2021-04-23T09:40:10.000Z</time>
      </trkpt>
      <trkpt lat="45.16908" lon="5.62998">
        <ele>1173</ele>
        <time>2021-04-23T09:40:18.000Z</time>
      </trkpt>
      <trkpt lat="45.16908" lon="5.62998">
        <ele>1173</ele>
        <time>2021-04-23T09:40:24.000Z</time>
      </trkpt>
      <trkpt lat="45.16908" lon="5.62998">
        <ele>1173</ele>
        <time>2021-04-23T09:40:42.000Z</time>
      </trkpt>
      <trkpt lat="45.16908" lon="5.62998">
        <ele>1173</ele>
        <time>2021-04-23T09:40:44.000Z</time>
      </trkpt>
      <trkpt lat="45.16908" lon="5.62998">
        <ele>1173</ele>
        <time>2021-04-23T09:40:46.000Z</time>
      </trkpt>
      <trkpt lat="45.16908" lon="5.62998">
        <ele>1173</ele>
        <time>2021-04-23T09:40:48.000Z</time>
      </trkpt>
      <trkpt lat="45.16908" lon="5.62998">
        <ele>1173</ele>
        <time>2021-04-23T09:41:01.000Z</time>
      </trkpt>
      <trkpt lat="45.16908" lon="5.62998">
        <ele>1173</ele>
        <time>2021-04-23T09:41:08.000Z</time>
      </trkpt>
      <trkpt lat="45.16908" lon="5.62998">
        <ele>1173</ele>
        <time>2021-04-23T09:41:20.000Z</time>
      </trkpt>
      <trkpt lat="45.16908" lon="5.62998">
        <ele>1173</ele>
        <time>2021-04-23T09:41:23.000Z</time>
      </trkpt>
      <trkpt lat="45.16908" lon="5.62998">
        <ele>1173</ele>
        <time>2021-04-23T09:41:25.000Z</time>
      </trkpt>
      <trkpt lat="45.16908" lon="5.62998">
        <ele>1173</ele>
        <time>2021-04-23T09:41:26.000Z</time>
      </trkpt>
      <trkpt lat="45.16908" lon="5.62998">
        <ele>1173</ele>
        <time>2021-04-23T09:41:30.000Z</time>
      </trkpt>
      <trkpt lat="45.16908" lon="5.62998">
        <ele>1173</ele>
        <time>2021-04-23T09:41:34.000Z</time>
      </trkpt>
      <trkpt lat="45.16908" lon="5.62998">
        <ele>1173</ele>
        <time>2021-04-23T09:41:36.000Z</time>
      </trkpt>
      <trkpt lat="45.16908" lon="5.62998">
        <ele>1170.4</ele>
        <time>2021-04-23T09:41:49.000Z</time>
      </trkpt>
      <trkpt lat="45.16908" lon="5.62998">
        <ele>1170.2</ele>
        <time>2021-04-23T09:42:12.000Z</time>
      </trkpt>
      <trkpt lat="45.16908" lon="5.62998">
        <ele>1170.2</ele>
        <time>2021-04-23T09:42:15.000Z</time>
      </trkpt>
      <trkpt lat="45.16908" lon="5.62997">
        <ele>1170</ele>
        <time>2021-04-23T09:42:18.000Z</time>
      </trkpt>
      <trkpt lat="45.16908" lon="5.62997">
        <ele>1169.8</ele>
        <time>2021-04-23T09:42:30.000Z</time>
      </trkpt>
      <trkpt lat="45.16908" lon="5.62997">
        <ele>1169.4</ele>
        <time>2021-04-23T09:42:42.000Z</time>
      </trkpt>
      <trkpt lat="45.16908" lon="5.62997">
        <ele>1169.4</ele>
        <time>2021-04-23T09:42:44.000Z</time>
      </trkpt>
      <trkpt lat="45.16908" lon="5.62997">
        <ele>1169.4</ele>
        <time>2021-04-23T09:42:47.000Z</time>
      </trkpt>
      <trkpt lat="45.16908" lon="5.62997">
        <ele>1169.2</ele>
        <time>2021-04-23T09:42:51.000Z</time>
      </trkpt>
      <trkpt lat="45.16908" lon="5.62997">
        <ele>1169.2</ele>
        <time>2021-04-23T09:42:54.000Z</time>
      </trkpt>
      <trkpt lat="45.16908" lon="5.62997">
        <ele>1169</ele>
        <time>2021-04-23T09:43:07.000Z</time>
      </trkpt>
      <trkpt lat="45.16908" lon="5.62997">
        <ele>1169.2</ele>
        <time>2021-04-23T09:43:15.000Z</time>
      </trkpt>
      <trkpt lat="45.16908" lon="5.62997">
        <ele>1169.8</ele>
        <time>2021-04-23T09:43:22.000Z</time>
      </trkpt>
      <trkpt lat="45.16909" lon="5.62996">
        <ele>1170.2</ele>
        <time>2021-04-23T09:43:27.000Z</time>
      </trkpt>
      <trkpt lat="45.16909" lon="5.62996">
        <ele>1170.2</ele>
        <time>2021-04-23T09:43:30.000Z</time>
      </trkpt>
      <trkpt lat="45.16909" lon="5.62996">
        <ele>1170.2</ele>
        <time>2021-04-23T09:43:32.000Z</time>
      </trkpt>
      <trkpt lat="45.1691" lon="5.62996">
        <ele>1170.4</ele>
        <time>2021-04-23T09:43:34.000Z</time>
      </trkpt>
      <trkpt lat="45.16913" lon="5.62995">
        <ele>1168.2</ele>
        <time>2021-04-23T09:43:36.000Z</time>
      </trkpt>
      <trkpt lat="45.16915" lon="5.62994">
        <ele>1168.2</ele>
        <time>2021-04-23T09:43:37.000Z</time>
      </trkpt>
      <trkpt lat="45.16916" lon="5.62993">
        <ele>1168.2</ele>
        <time>2021-04-23T09:43:38.000Z</time>
      </trkpt>
      <trkpt lat="45.16918" lon="5.62993">
        <ele>1168.2</ele>
        <time>2021-04-23T09:43:39.000Z</time>
      </trkpt>
      <trkpt lat="45.16923" lon="5.62991">
        <ele>1168.2</ele>
        <time>2021-04-23T09:43:42.000Z</time>
      </trkpt>
      <trkpt lat="45.16925" lon="5.62991">
        <ele>1168.4</ele>
        <time>2021-04-23T09:43:44.000Z</time>
      </trkpt>
      <trkpt lat="45.16926" lon="5.62991">
        <ele>1168.6</ele>
        <time>2021-04-23T09:43:45.000Z</time>
      </trkpt>
      <trkpt lat="45.16927" lon="5.6299">
        <ele>1168.6</ele>
        <time>2021-04-23T09:43:46.000Z</time>
      </trkpt>
      <trkpt lat="45.16927" lon="5.6299">
        <ele>1168.6</ele>
        <time>2021-04-23T09:43:47.000Z</time>
      </trkpt>
      <trkpt lat="45.1693" lon="5.62989">
        <ele>1168.8</ele>
        <time>2021-04-23T09:43:49.000Z</time>
      </trkpt>
      <trkpt lat="45.1693" lon="5.62989">
        <ele>1168.8</ele>
        <time>2021-04-23T09:43:50.000Z</time>
      </trkpt>
      <trkpt lat="45.16931" lon="5.62989">
        <ele>1168.8</ele>
        <time>2021-04-23T09:43:51.000Z</time>
      </trkpt>
      <trkpt lat="45.16932" lon="5.62988">
        <ele>1169</ele>
        <time>2021-04-23T09:43:53.000Z</time>
      </trkpt>
      <trkpt lat="45.16932" lon="5.62988">
        <ele>1169</ele>
        <time>2021-04-23T09:43:54.000Z</time>
      </trkpt>
      <trkpt lat="45.16932" lon="5.62988">
        <ele>1169</ele>
        <time>2021-04-23T09:43:55.000Z</time>
      </trkpt>
      <trkpt lat="45.16932" lon="5.62988">
        <ele>1169.2</ele>
        <time>2021-04-23T09:44:00.000Z</time>
      </trkpt>
      <trkpt lat="45.1693" lon="5.62988">
        <ele>1169.2</ele>
        <time>2021-04-23T09:44:03.000Z</time>
      </trkpt>
      <trkpt lat="45.1693" lon="5.62988">
        <ele>1169.2</ele>
        <time>2021-04-23T09:44:04.000Z</time>
      </trkpt>
      <trkpt lat="45.1693" lon="5.62988">
        <ele>1169.2</ele>
        <time>2021-04-23T09:44:06.000Z</time>
      </trkpt>
      <trkpt lat="45.1693" lon="5.62988">
        <ele>1169.2</ele>
        <time>2021-04-23T09:44:08.000Z</time>
      </trkpt>
      <trkpt lat="45.1693" lon="5.62988">
        <ele>1169.2</ele>
        <time>2021-04-23T09:44:10.000Z</time>
      </trkpt>
      <trkpt lat="45.1693" lon="5.62988">
        <ele>1169.2</ele>
        <time>2021-04-23T09:44:13.000Z</time>
      </trkpt>
      <trkpt lat="45.1693" lon="5.62988">
        <ele>1169.2</ele>
        <time>2021-04-23T09:44:15.000Z</time>
      </trkpt>
      <trkpt lat="45.1693" lon="5.62988">
        <ele>1169.2</ele>
        <time>2021-04-23T09:44:19.000Z</time>
      </trkpt>
      <trkpt lat="45.16927" lon="5.62989">
        <ele>1169.2</ele>
        <time>2021-04-23T09:44:24.000Z</time>
      </trkpt>
      <trkpt lat="45.16926" lon="5.62989">
        <ele>1169.2</ele>
        <time>2021-04-23T09:44:25.000Z</time>
      </trkpt>
      <trkpt lat="45.16924" lon="5.6299">
        <ele>1169.2</ele>
        <time>2021-04-23T09:44:26.000Z</time>
      </trkpt>
      <trkpt lat="45.16921" lon="5.62992">
        <ele>1169.2</ele>
        <time>2021-04-23T09:44:29.000Z</time>
      </trkpt>
      <trkpt lat="45.1692" lon="5.62993">
        <ele>1169.2</ele>
        <time>2021-04-23T09:44:30.000Z</time>
      </trkpt>
      <trkpt lat="45.16919" lon="5.62993">
        <ele>1168.8</ele>
        <time>2021-04-23T09:44:33.000Z</time>
      </trkpt>
      <trkpt lat="45.16918" lon="5.62993">
        <ele>1168.8</ele>
        <time>2021-04-23T09:44:37.000Z</time>
      </trkpt>
      <trkpt lat="45.16917" lon="5.62994">
        <ele>1169.2</ele>
        <time>2021-04-23T09:44:42.000Z</time>
      </trkpt>
      <trkpt lat="45.16917" lon="5.62994">
        <ele>1169.2</ele>
        <time>2021-04-23T09:44:47.000Z</time>
      </trkpt>
      <trkpt lat="45.16917" lon="5.62994">
        <ele>1169.2</ele>
        <time>2021-04-23T09:44:49.000Z</time>
      </trkpt>
      <trkpt lat="45.16917" lon="5.62994">
        <ele>1169.4</ele>
        <time>2021-04-23T09:44:54.000Z</time>
      </trkpt>
      <trkpt lat="45.16917" lon="5.62994">
        <ele>1169.6</ele>
        <time>2021-04-23T09:45:06.000Z</time>
      </trkpt>
      <trkpt lat="45.16917" lon="5.62996">
        <ele>1170</ele>
        <time>2021-04-23T09:45:11.000Z</time>
      </trkpt>
      <trkpt lat="45.16917" lon="5.62998">
        <ele>1170</ele>
        <time>2021-04-23T09:45:12.000Z</time>
      </trkpt>
      <trkpt lat="45.16918" lon="5.63">
        <ele>1170</ele>
        <time>2021-04-23T09:45:13.000Z</time>
      </trkpt>
      <trkpt lat="45.16918" lon="5.63002">
        <ele>1170</ele>
        <time>2021-04-23T09:45:14.000Z</time>
      </trkpt>
      <trkpt lat="45.16918" lon="5.63003">
        <ele>1170</ele>
        <time>2021-04-23T09:45:15.000Z</time>
      </trkpt>
      <trkpt lat="45.16918" lon="5.63005">
        <ele>1170</ele>
        <time>2021-04-23T09:45:16.000Z</time>
      </trkpt>
      <trkpt lat="45.16918" lon="5.63006">
        <ele>1169.8</ele>
        <time>2021-04-23T09:45:17.000Z</time>
      </trkpt>
      <trkpt lat="45.16918" lon="5.63006">
        <ele>1169.8</ele>
        <time>2021-04-23T09:45:18.000Z</time>
      </trkpt>
      <trkpt lat="45.16918" lon="5.63006">
        <ele>1169.8</ele>
        <time>2021-04-23T09:45:19.000Z</time>
      </trkpt>
      <trkpt lat="45.16919" lon="5.63006">
        <ele>1169.8</ele>
        <time>2021-04-23T09:45:20.000Z</time>
      </trkpt>
      <trkpt lat="45.16919" lon="5.63006">
        <ele>1169.8</ele>
        <time>2021-04-23T09:45:21.000Z</time>
      </trkpt>
      <trkpt lat="45.16919" lon="5.63006">
        <ele>1169.6</ele>
        <time>2021-04-23T09:45:24.000Z</time>
      </trkpt>
      <trkpt lat="45.16919" lon="5.63006">
        <ele>1169.4</ele>
        <time>2021-04-23T09:45:26.000Z</time>
      </trkpt>
      <trkpt lat="45.16919" lon="5.63006">
        <ele>1169.4</ele>
        <time>2021-04-23T09:45:28.000Z</time>
      </trkpt>
      <trkpt lat="45.16919" lon="5.63006">
        <ele>1169.4</ele>
        <time>2021-04-23T09:45:31.000Z</time>
      </trkpt>
      <trkpt lat="45.16919" lon="5.63006">
        <ele>1169.8</ele>
        <time>2021-04-23T09:45:42.000Z</time>
      </trkpt>
      <trkpt lat="45.16922" lon="5.63007">
        <ele>1169.8</ele>
        <time>2021-04-23T09:45:44.000Z</time>
      </trkpt>
      <trkpt lat="45.16922" lon="5.63008">
        <ele>1169.8</ele>
        <time>2021-04-23T09:45:45.000Z</time>
      </trkpt>
      <trkpt lat="45.16922" lon="5.6301">
        <ele>1169.8</ele>
        <time>2021-04-23T09:45:46.000Z</time>
      </trkpt>
      <trkpt lat="45.16922" lon="5.63011">
        <ele>1169.8</ele>
        <time>2021-04-23T09:45:47.000Z</time>
      </trkpt>
      <trkpt lat="45.16922" lon="5.63012">
        <ele>1169.8</ele>
        <time>2021-04-23T09:45:48.000Z</time>
      </trkpt>
      <trkpt lat="45.16922" lon="5.63014">
        <ele>1169.8</ele>
        <time>2021-04-23T09:45:49.000Z</time>
      </trkpt>
      <trkpt lat="45.16922" lon="5.63016">
        <ele>1169.8</ele>
        <time>2021-04-23T09:45:50.000Z</time>
      </trkpt>
      <trkpt lat="45.16921" lon="5.63017">
        <ele>1169.8</ele>
        <time>2021-04-23T09:45:51.000Z</time>
      </trkpt>
      <trkpt lat="45.1692" lon="5.63018">
        <ele>1170</ele>
        <time>2021-04-23T09:45:52.000Z</time>
      </trkpt>
      <trkpt lat="45.16918" lon="5.63018">
        <ele>1170.2</ele>
        <time>2021-04-23T09:45:53.000Z</time>
      </trkpt>
      <trkpt lat="45.16916" lon="5.63018">
        <ele>1170.4</ele>
        <time>2021-04-23T09:45:55.000Z</time>
      </trkpt>
      <trkpt lat="45.16915" lon="5.63018">
        <ele>1170.4</ele>
        <time>2021-04-23T09:45:56.000Z</time>
      </trkpt>
      <trkpt lat="45.16914" lon="5.63019">
        <ele>1170.4</ele>
        <time>2021-04-23T09:45:57.000Z</time>
      </trkpt>
      <trkpt lat="45.16913" lon="5.63022">
        <ele>1170.4</ele>
        <time>2021-04-23T09:45:59.000Z</time>
      </trkpt>
      <trkpt lat="45.16914" lon="5.63027">
        <ele>1170.4</ele>
        <time>2021-04-23T09:46:01.000Z</time>
      </trkpt>
      <trkpt lat="45.16913" lon="5.63029">
        <ele>1170.4</ele>
        <time>2021-04-23T09:46:02.000Z</time>
      </trkpt>
      <trkpt lat="45.1691" lon="5.63033">
        <ele>1170.4</ele>
        <time>2021-04-23T09:46:04.000Z</time>
      </trkpt>
      <trkpt lat="45.16908" lon="5.63035">
        <ele>1170.6</ele>
        <time>2021-04-23T09:46:05.000Z</time>
      </trkpt>
      <trkpt lat="45.16906" lon="5.63036">
        <ele>1170.8</ele>
        <time>2021-04-23T09:46:06.000Z</time>
      </trkpt>
      <trkpt lat="45.16903" lon="5.63037">
        <ele>1170.8</ele>
        <time>2021-04-23T09:46:07.000Z</time>
      </trkpt>
      <trkpt lat="45.16901" lon="5.63037">
        <ele>1170.8</ele>
        <time>2021-04-23T09:46:08.000Z</time>
      </trkpt>
      <trkpt lat="45.16898" lon="5.63037">
        <ele>1171.2</ele>
        <time>2021-04-23T09:46:10.000Z</time>
      </trkpt>
      <trkpt lat="45.16892" lon="5.63038">
        <ele>1171.4</ele>
        <time>2021-04-23T09:46:13.000Z</time>
      </trkpt>
      <trkpt lat="45.1689" lon="5.63038">
        <ele>1171.6</ele>
        <time>2021-04-23T09:46:14.000Z</time>
      </trkpt>
      <trkpt lat="45.16888" lon="5.63038">
        <ele>1171.8</ele>
        <time>2021-04-23T09:46:15.000Z</time>
      </trkpt>
      <trkpt lat="45.1688" lon="5.63037">
        <ele>1171.8</ele>
        <time>2021-04-23T09:46:19.000Z</time>
      </trkpt>
      <trkpt lat="45.1687" lon="5.63038">
        <ele>1172.6</ele>
        <time>2021-04-23T09:46:24.000Z</time>
      </trkpt>
      <trkpt lat="45.16859" lon="5.63037">
        <ele>1173</ele>
        <time>2021-04-23T09:46:29.000Z</time>
      </trkpt>
      <trkpt lat="45.16848" lon="5.63038">
        <ele>1173.6</ele>
        <time>2021-04-23T09:46:34.000Z</time>
      </trkpt>
      <trkpt lat="45.16845" lon="5.63038">
        <ele>1173.6</ele>
        <time>2021-04-23T09:46:35.000Z</time>
      </trkpt>
      <trkpt lat="45.16839" lon="5.63038">
        <ele>1174</ele>
        <time>2021-04-23T09:46:38.000Z</time>
      </trkpt>
      <trkpt lat="45.16837" lon="5.63039">
        <ele>1174</ele>
        <time>2021-04-23T09:46:39.000Z</time>
      </trkpt>
      <trkpt lat="45.16829" lon="5.63039">
        <ele>1174.4</ele>
        <time>2021-04-23T09:46:42.000Z</time>
      </trkpt>
      <trkpt lat="45.16827" lon="5.63039">
        <ele>1174.6</ele>
        <time>2021-04-23T09:46:43.000Z</time>
      </trkpt>
      <trkpt lat="45.16825" lon="5.63039">
        <ele>1174.8</ele>
        <time>2021-04-23T09:46:44.000Z</time>
      </trkpt>
      <trkpt lat="45.16823" lon="5.6304">
        <ele>1175</ele>
        <time>2021-04-23T09:46:45.000Z</time>
      </trkpt>
      <trkpt lat="45.1682" lon="5.63041">
        <ele>1175.2</ele>
        <time>2021-04-23T09:46:46.000Z</time>
      </trkpt>
      <trkpt lat="45.16817" lon="5.63041">
        <ele>1175.4</ele>
        <time>2021-04-23T09:46:47.000Z</time>
      </trkpt>
      <trkpt lat="45.16815" lon="5.63041">
        <ele>1175.4</ele>
        <time>2021-04-23T09:46:48.000Z</time>
      </trkpt>
      <trkpt lat="45.16812" lon="5.63041">
        <ele>1175.6</ele>
        <time>2021-04-23T09:46:49.000Z</time>
      </trkpt>
      <trkpt lat="45.1681" lon="5.63042">
        <ele>1175.6</ele>
        <time>2021-04-23T09:46:50.000Z</time>
      </trkpt>
      <trkpt lat="45.16807" lon="5.63042">
        <ele>1175.6</ele>
        <time>2021-04-23T09:46:51.000Z</time>
      </trkpt>
      <trkpt lat="45.16805" lon="5.63042">
        <ele>1175.6</ele>
        <time>2021-04-23T09:46:52.000Z</time>
      </trkpt>
      <trkpt lat="45.16802" lon="5.63042">
        <ele>1175.8</ele>
        <time>2021-04-23T09:46:53.000Z</time>
      </trkpt>
      <trkpt lat="45.168" lon="5.63042">
        <ele>1176</ele>
        <time>2021-04-23T09:46:54.000Z</time>
      </trkpt>
      <trkpt lat="45.16797" lon="5.63042">
        <ele>1176</ele>
        <time>2021-04-23T09:46:55.000Z</time>
      </trkpt>
      <trkpt lat="45.16794" lon="5.63042">
        <ele>1176.2</ele>
        <time>2021-04-23T09:46:56.000Z</time>
      </trkpt>
      <trkpt lat="45.16792" lon="5.63042">
        <ele>1176.4</ele>
        <time>2021-04-23T09:46:57.000Z</time>
      </trkpt>
      <trkpt lat="45.16789" lon="5.63042">
        <ele>1176.4</ele>
        <time>2021-04-23T09:46:58.000Z</time>
      </trkpt>
      <trkpt lat="45.16787" lon="5.63043">
        <ele>1176.6</ele>
        <time>2021-04-23T09:46:59.000Z</time>
      </trkpt>
      <trkpt lat="45.16785" lon="5.63043">
        <ele>1176.8</ele>
        <time>2021-04-23T09:47:00.000Z</time>
      </trkpt>
      <trkpt lat="45.16783" lon="5.63044">
        <ele>1177</ele>
        <time>2021-04-23T09:47:01.000Z</time>
      </trkpt>
      <trkpt lat="45.1678" lon="5.63044">
        <ele>1177.4</ele>
        <time>2021-04-23T09:47:02.000Z</time>
      </trkpt>
      <trkpt lat="45.16778" lon="5.63044">
        <ele>1177.6</ele>
        <time>2021-04-23T09:47:03.000Z</time>
      </trkpt>
      <trkpt lat="45.16776" lon="5.63045">
        <ele>1177.8</ele>
        <time>2021-04-23T09:47:04.000Z</time>
      </trkpt>
      <trkpt lat="45.16774" lon="5.63046">
        <ele>1177.8</ele>
        <time>2021-04-23T09:47:05.000Z</time>
      </trkpt>
      <trkpt lat="45.16771" lon="5.63046">
        <ele>1178</ele>
        <time>2021-04-23T09:47:06.000Z</time>
      </trkpt>
      <trkpt lat="45.16769" lon="5.63047">
        <ele>1178.2</ele>
        <time>2021-04-23T09:47:07.000Z</time>
      </trkpt>
      <trkpt lat="45.16767" lon="5.63047">
        <ele>1178.4</ele>
        <time>2021-04-23T09:47:08.000Z</time>
      </trkpt>
      <trkpt lat="45.16765" lon="5.63048">
        <ele>1178.6</ele>
        <time>2021-04-23T09:47:09.000Z</time>
      </trkpt>
      <trkpt lat="45.16763" lon="5.63048">
        <ele>1178.8</ele>
        <time>2021-04-23T09:47:10.000Z</time>
      </trkpt>
      <trkpt lat="45.1676" lon="5.6305">
        <ele>1179</ele>
        <time>2021-04-23T09:47:11.000Z</time>
      </trkpt>
      <trkpt lat="45.16758" lon="5.63051">
        <ele>1179.2</ele>
        <time>2021-04-23T09:47:12.000Z</time>
      </trkpt>
      <trkpt lat="45.16756" lon="5.63052">
        <ele>1179.2</ele>
        <time>2021-04-23T09:47:13.000Z</time>
      </trkpt>
      <trkpt lat="45.16753" lon="5.63053">
        <ele>1179.4</ele>
        <time>2021-04-23T09:47:14.000Z</time>
      </trkpt>
      <trkpt lat="45.16751" lon="5.63054">
        <ele>1179.4</ele>
        <time>2021-04-23T09:47:15.000Z</time>
      </trkpt>
      <trkpt lat="45.16748" lon="5.63055">
        <ele>1179.8</ele>
        <time>2021-04-23T09:47:16.000Z</time>
      </trkpt>
      <trkpt lat="45.16746" lon="5.63056">
        <ele>1180</ele>
        <time>2021-04-23T09:47:17.000Z</time>
      </trkpt>
      <trkpt lat="45.16744" lon="5.63057">
        <ele>1180.2</ele>
        <time>2021-04-23T09:47:18.000Z</time>
      </trkpt>
      <trkpt lat="45.16741" lon="5.63057">
        <ele>1180.2</ele>
        <time>2021-04-23T09:47:19.000Z</time>
      </trkpt>
      <trkpt lat="45.16739" lon="5.63058">
        <ele>1180.4</ele>
        <time>2021-04-23T09:47:20.000Z</time>
      </trkpt>
      <trkpt lat="45.16737" lon="5.63059">
        <ele>1180.4</ele>
        <time>2021-04-23T09:47:21.000Z</time>
      </trkpt>
      <trkpt lat="45.16734" lon="5.6306">
        <ele>1180.6</ele>
        <time>2021-04-23T09:47:22.000Z</time>
      </trkpt>
      <trkpt lat="45.16732" lon="5.63061">
        <ele>1180.8</ele>
        <time>2021-04-23T09:47:23.000Z</time>
      </trkpt>
      <trkpt lat="45.1673" lon="5.63061">
        <ele>1181</ele>
        <time>2021-04-23T09:47:24.000Z</time>
      </trkpt>
      <trkpt lat="45.16728" lon="5.63062">
        <ele>1181.2</ele>
        <time>2021-04-23T09:47:25.000Z</time>
      </trkpt>
      <trkpt lat="45.16725" lon="5.63063">
        <ele>1181.4</ele>
        <time>2021-04-23T09:47:26.000Z</time>
      </trkpt>
      <trkpt lat="45.16723" lon="5.63063">
        <ele>1181.4</ele>
        <time>2021-04-23T09:47:27.000Z</time>
      </trkpt>
      <trkpt lat="45.16722" lon="5.63064">
        <ele>1181.4</ele>
        <time>2021-04-23T09:47:28.000Z</time>
      </trkpt>
      <trkpt lat="45.1672" lon="5.63065">
        <ele>1181.6</ele>
        <time>2021-04-23T09:47:29.000Z</time>
      </trkpt>
      <trkpt lat="45.16717" lon="5.63065">
        <ele>1181.8</ele>
        <time>2021-04-23T09:47:30.000Z</time>
      </trkpt>
      <trkpt lat="45.16715" lon="5.63066">
        <ele>1182</ele>
        <time>2021-04-23T09:47:31.000Z</time>
      </trkpt>
      <trkpt lat="45.16713" lon="5.63067">
        <ele>1182.6</ele>
        <time>2021-04-23T09:47:32.000Z</time>
      </trkpt>
      <trkpt lat="45.16711" lon="5.63067">
        <ele>1182.8</ele>
        <time>2021-04-23T09:47:33.000Z</time>
      </trkpt>
      <trkpt lat="45.16709" lon="5.63068">
        <ele>1183.2</ele>
        <time>2021-04-23T09:47:34.000Z</time>
      </trkpt>
      <trkpt lat="45.16707" lon="5.63069">
        <ele>1183.4</ele>
        <time>2021-04-23T09:47:35.000Z</time>
      </trkpt>
      <trkpt lat="45.16705" lon="5.6307">
        <ele>1183.6</ele>
        <time>2021-04-23T09:47:36.000Z</time>
      </trkpt>
      <trkpt lat="45.16703" lon="5.6307">
        <ele>1183.8</ele>
        <time>2021-04-23T09:47:37.000Z</time>
      </trkpt>
      <trkpt lat="45.16701" lon="5.63071">
        <ele>1183.8</ele>
        <time>2021-04-23T09:47:38.000Z</time>
      </trkpt>
      <trkpt lat="45.16699" lon="5.63071">
        <ele>1184</ele>
        <time>2021-04-23T09:47:39.000Z</time>
      </trkpt>
      <trkpt lat="45.16697" lon="5.63071">
        <ele>1184.2</ele>
        <time>2021-04-23T09:47:40.000Z</time>
      </trkpt>
      <trkpt lat="45.16694" lon="5.63071">
        <ele>1184.2</ele>
        <time>2021-04-23T09:47:41.000Z</time>
      </trkpt>
      <trkpt lat="45.16692" lon="5.63072">
        <ele>1184.6</ele>
        <time>2021-04-23T09:47:42.000Z</time>
      </trkpt>
      <trkpt lat="45.1669" lon="5.63073">
        <ele>1184.8</ele>
        <time>2021-04-23T09:47:43.000Z</time>
      </trkpt>
      <trkpt lat="45.16687" lon="5.63073">
        <ele>1185</ele>
        <time>2021-04-23T09:47:44.000Z</time>
      </trkpt>
      <trkpt lat="45.16685" lon="5.63074">
        <ele>1185.2</ele>
        <time>2021-04-23T09:47:45.000Z</time>
      </trkpt>
      <trkpt lat="45.16682" lon="5.63075">
        <ele>1185.4</ele>
        <time>2021-04-23T09:47:46.000Z</time>
      </trkpt>
      <trkpt lat="45.1668" lon="5.63075">
        <ele>1185.6</ele>
        <time>2021-04-23T09:47:47.000Z</time>
      </trkpt>
      <trkpt lat="45.16677" lon="5.63075">
        <ele>1185.8</ele>
        <time>2021-04-23T09:47:48.000Z</time>
      </trkpt>
      <trkpt lat="45.16675" lon="5.63075">
        <ele>1186</ele>
        <time>2021-04-23T09:47:49.000Z</time>
      </trkpt>
      <trkpt lat="45.16673" lon="5.63075">
        <ele>1186</ele>
        <time>2021-04-23T09:47:50.000Z</time>
      </trkpt>
      <trkpt lat="45.16671" lon="5.63074">
        <ele>1186.2</ele>
        <time>2021-04-23T09:47:51.000Z</time>
      </trkpt>
      <trkpt lat="45.16668" lon="5.63073">
        <ele>1186.4</ele>
        <time>2021-04-23T09:47:52.000Z</time>
      </trkpt>
      <trkpt lat="45.16666" lon="5.63072">
        <ele>1186.6</ele>
        <time>2021-04-23T09:47:53.000Z</time>
      </trkpt>
      <trkpt lat="45.16664" lon="5.63071">
        <ele>1186.8</ele>
        <time>2021-04-23T09:47:54.000Z</time>
      </trkpt>
      <trkpt lat="45.16662" lon="5.63069">
        <ele>1186.8</ele>
        <time>2021-04-23T09:47:55.000Z</time>
      </trkpt>
      <trkpt lat="45.16661" lon="5.63067">
        <ele>1187.2</ele>
        <time>2021-04-23T09:47:56.000Z</time>
      </trkpt>
      <trkpt lat="45.16659" lon="5.63065">
        <ele>1187.4</ele>
        <time>2021-04-23T09:47:57.000Z</time>
      </trkpt>
      <trkpt lat="45.16658" lon="5.63062">
        <ele>1187.6</ele>
        <time>2021-04-23T09:47:58.000Z</time>
      </trkpt>
      <trkpt lat="45.16657" lon="5.63058">
        <ele>1187.8</ele>
        <time>2021-04-23T09:47:59.000Z</time>
      </trkpt>
      <trkpt lat="45.16656" lon="5.63055">
        <ele>1188</ele>
        <time>2021-04-23T09:48:00.000Z</time>
      </trkpt>
      <trkpt lat="45.16655" lon="5.63051">
        <ele>1188.2</ele>
        <time>2021-04-23T09:48:01.000Z</time>
      </trkpt>
      <trkpt lat="45.16655" lon="5.63048">
        <ele>1188.4</ele>
        <time>2021-04-23T09:48:02.000Z</time>
      </trkpt>
      <trkpt lat="45.16654" lon="5.63045">
        <ele>1188.6</ele>
        <time>2021-04-23T09:48:03.000Z</time>
      </trkpt>
      <trkpt lat="45.16654" lon="5.63041">
        <ele>1189</ele>
        <time>2021-04-23T09:48:04.000Z</time>
      </trkpt>
      <trkpt lat="45.16654" lon="5.63038">
        <ele>1189.2</ele>
        <time>2021-04-23T09:48:05.000Z</time>
      </trkpt>
      <trkpt lat="45.16654" lon="5.63034">
        <ele>1189.2</ele>
        <time>2021-04-23T09:48:06.000Z</time>
      </trkpt>
      <trkpt lat="45.16654" lon="5.63031">
        <ele>1189.4</ele>
        <time>2021-04-23T09:48:07.000Z</time>
      </trkpt>
      <trkpt lat="45.16655" lon="5.63028">
        <ele>1189.6</ele>
        <time>2021-04-23T09:48:08.000Z</time>
      </trkpt>
      <trkpt lat="45.16655" lon="5.63024">
        <ele>1189.8</ele>
        <time>2021-04-23T09:48:09.000Z</time>
      </trkpt>
      <trkpt lat="45.16655" lon="5.63021">
        <ele>1190</ele>
        <time>2021-04-23T09:48:10.000Z</time>
      </trkpt>
      <trkpt lat="45.16655" lon="5.63018">
        <ele>1190.2</ele>
        <time>2021-04-23T09:48:11.000Z</time>
      </trkpt>
      <trkpt lat="45.16655" lon="5.63014">
        <ele>1190.4</ele>
        <time>2021-04-23T09:48:12.000Z</time>
      </trkpt>
      <trkpt lat="45.16656" lon="5.63011">
        <ele>1190.6</ele>
        <time>2021-04-23T09:48:13.000Z</time>
      </trkpt>
      <trkpt lat="45.16656" lon="5.63007">
        <ele>1190.8</ele>
        <time>2021-04-23T09:48:14.000Z</time>
      </trkpt>
      <trkpt lat="45.16656" lon="5.63004">
        <ele>1190.8</ele>
        <time>2021-04-23T09:48:15.000Z</time>
      </trkpt>
      <trkpt lat="45.16657" lon="5.63001">
        <ele>1191</ele>
        <time>2021-04-23T09:48:16.000Z</time>
      </trkpt>
      <trkpt lat="45.16657" lon="5.62998">
        <ele>1191.2</ele>
        <time>2021-04-23T09:48:17.000Z</time>
      </trkpt>
      <trkpt lat="45.16657" lon="5.62995">
        <ele>1191.6</ele>
        <time>2021-04-23T09:48:18.000Z</time>
      </trkpt>
      <trkpt lat="45.16657" lon="5.62992">
        <ele>1191.8</ele>
        <time>2021-04-23T09:48:19.000Z</time>
      </trkpt>
      <trkpt lat="45.16657" lon="5.62989">
        <ele>1191.8</ele>
        <time>2021-04-23T09:48:20.000Z</time>
      </trkpt>
      <trkpt lat="45.16657" lon="5.62986">
        <ele>1192</ele>
        <time>2021-04-23T09:48:21.000Z</time>
      </trkpt>
      <trkpt lat="45.16657" lon="5.62983">
        <ele>1192.4</ele>
        <time>2021-04-23T09:48:22.000Z</time>
      </trkpt>
      <trkpt lat="45.16657" lon="5.6298">
        <ele>1192.6</ele>
        <time>2021-04-23T09:48:23.000Z</time>
      </trkpt>
      <trkpt lat="45.16658" lon="5.62976">
        <ele>1192.8</ele>
        <time>2021-04-23T09:48:24.000Z</time>
      </trkpt>
      <trkpt lat="45.16658" lon="5.62973">
        <ele>1193.2</ele>
        <time>2021-04-23T09:48:25.000Z</time>
      </trkpt>
      <trkpt lat="45.16658" lon="5.6297">
        <ele>1193.2</ele>
        <time>2021-04-23T09:48:26.000Z</time>
      </trkpt>
      <trkpt lat="45.16658" lon="5.62966">
        <ele>1193.4</ele>
        <time>2021-04-23T09:48:27.000Z</time>
      </trkpt>
      <trkpt lat="45.16659" lon="5.62963">
        <ele>1193.4</ele>
        <time>2021-04-23T09:48:28.000Z</time>
      </trkpt>
      <trkpt lat="45.16659" lon="5.6296">
        <ele>1193.4</ele>
        <time>2021-04-23T09:48:29.000Z</time>
      </trkpt>
      <trkpt lat="45.16659" lon="5.62956">
        <ele>1193.8</ele>
        <time>2021-04-23T09:48:30.000Z</time>
      </trkpt>
      <trkpt lat="45.16659" lon="5.62953">
        <ele>1194.2</ele>
        <time>2021-04-23T09:48:31.000Z</time>
      </trkpt>
      <trkpt lat="45.16659" lon="5.62949">
        <ele>1194.4</ele>
        <time>2021-04-23T09:48:32.000Z</time>
      </trkpt>
      <trkpt lat="45.16659" lon="5.62946">
        <ele>1194.6</ele>
        <time>2021-04-23T09:48:33.000Z</time>
      </trkpt>
      <trkpt lat="45.16659" lon="5.62942">
        <ele>1194.8</ele>
        <time>2021-04-23T09:48:34.000Z</time>
      </trkpt>
      <trkpt lat="45.1666" lon="5.62939">
        <ele>1195</ele>
        <time>2021-04-23T09:48:35.000Z</time>
      </trkpt>
      <trkpt lat="45.1666" lon="5.62935">
        <ele>1195.2</ele>
        <time>2021-04-23T09:48:36.000Z</time>
      </trkpt>
      <trkpt lat="45.1666" lon="5.62932">
        <ele>1195.4</ele>
        <time>2021-04-23T09:48:37.000Z</time>
      </trkpt>
      <trkpt lat="45.1666" lon="5.62929">
        <ele>1195.4</ele>
        <time>2021-04-23T09:48:38.000Z</time>
      </trkpt>
      <trkpt lat="45.16661" lon="5.62925">
        <ele>1195.4</ele>
        <time>2021-04-23T09:48:39.000Z</time>
      </trkpt>
      <trkpt lat="45.16661" lon="5.62922">
        <ele>1195.6</ele>
        <time>2021-04-23T09:48:40.000Z</time>
      </trkpt>
      <trkpt lat="45.16661" lon="5.62919">
        <ele>1195.6</ele>
        <time>2021-04-23T09:48:41.000Z</time>
      </trkpt>
      <trkpt lat="45.16662" lon="5.62916">
        <ele>1195.8</ele>
        <time>2021-04-23T09:48:42.000Z</time>
      </trkpt>
      <trkpt lat="45.16661" lon="5.62912">
        <ele>1196</ele>
        <time>2021-04-23T09:48:43.000Z</time>
      </trkpt>
      <trkpt lat="45.16661" lon="5.62909">
        <ele>1196.2</ele>
        <time>2021-04-23T09:48:44.000Z</time>
      </trkpt>
      <trkpt lat="45.16659" lon="5.62907">
        <ele>1196.4</ele>
        <time>2021-04-23T09:48:45.000Z</time>
      </trkpt>
      <trkpt lat="45.16657" lon="5.62905">
        <ele>1196.4</ele>
        <time>2021-04-23T09:48:46.000Z</time>
      </trkpt>
      <trkpt lat="45.16655" lon="5.62905">
        <ele>1196.6</ele>
        <time>2021-04-23T09:48:47.000Z</time>
      </trkpt>
      <trkpt lat="45.16653" lon="5.62905">
        <ele>1196.8</ele>
        <time>2021-04-23T09:48:48.000Z</time>
      </trkpt>
      <trkpt lat="45.1665" lon="5.62906">
        <ele>1197</ele>
        <time>2021-04-23T09:48:49.000Z</time>
      </trkpt>
      <trkpt lat="45.16649" lon="5.62909">
        <ele>1197</ele>
        <time>2021-04-23T09:48:50.000Z</time>
      </trkpt>
      <trkpt lat="45.16647" lon="5.62911">
        <ele>1197</ele>
        <time>2021-04-23T09:48:51.000Z</time>
      </trkpt>
      <trkpt lat="45.16645" lon="5.62914">
        <ele>1197.2</ele>
        <time>2021-04-23T09:48:52.000Z</time>
      </trkpt>
      <trkpt lat="45.16644" lon="5.62916">
        <ele>1197.2</ele>
        <time>2021-04-23T09:48:53.000Z</time>
      </trkpt>
      <trkpt lat="45.16642" lon="5.62919">
        <ele>1197.2</ele>
        <time>2021-04-23T09:48:54.000Z</time>
      </trkpt>
      <trkpt lat="45.16641" lon="5.62922">
        <ele>1197.4</ele>
        <time>2021-04-23T09:48:55.000Z</time>
      </trkpt>
      <trkpt lat="45.1664" lon="5.62926">
        <ele>1197.4</ele>
        <time>2021-04-23T09:48:56.000Z</time>
      </trkpt>
      <trkpt lat="45.16639" lon="5.62929">
        <ele>1197.4</ele>
        <time>2021-04-23T09:48:57.000Z</time>
      </trkpt>
      <trkpt lat="45.16638" lon="5.62932">
        <ele>1197.4</ele>
        <time>2021-04-23T09:48:58.000Z</time>
      </trkpt>
      <trkpt lat="45.16637" lon="5.62935">
        <ele>1197.6</ele>
        <time>2021-04-23T09:48:59.000Z</time>
      </trkpt>
      <trkpt lat="45.16636" lon="5.62939">
        <ele>1197.6</ele>
        <time>2021-04-23T09:49:00.000Z</time>
      </trkpt>
      <trkpt lat="45.16635" lon="5.62942">
        <ele>1197.8</ele>
        <time>2021-04-23T09:49:01.000Z</time>
      </trkpt>
      <trkpt lat="45.16634" lon="5.62946">
        <ele>1197.8</ele>
        <time>2021-04-23T09:49:02.000Z</time>
      </trkpt>
      <trkpt lat="45.16634" lon="5.6295">
        <ele>1198</ele>
        <time>2021-04-23T09:49:03.000Z</time>
      </trkpt>
      <trkpt lat="45.16633" lon="5.62953">
        <ele>1198</ele>
        <time>2021-04-23T09:49:04.000Z</time>
      </trkpt>
      <trkpt lat="45.16633" lon="5.62957">
        <ele>1198</ele>
        <time>2021-04-23T09:49:05.000Z</time>
      </trkpt>
      <trkpt lat="45.16632" lon="5.62961">
        <ele>1198.2</ele>
        <time>2021-04-23T09:49:06.000Z</time>
      </trkpt>
      <trkpt lat="45.16632" lon="5.62965">
        <ele>1198.2</ele>
        <time>2021-04-23T09:49:07.000Z</time>
      </trkpt>
      <trkpt lat="45.16632" lon="5.62969">
        <ele>1198.4</ele>
        <time>2021-04-23T09:49:08.000Z</time>
      </trkpt>
      <trkpt lat="45.16632" lon="5.62973">
        <ele>1198.4</ele>
        <time>2021-04-23T09:49:09.000Z</time>
      </trkpt>
      <trkpt lat="45.16632" lon="5.62977">
        <ele>1198.4</ele>
        <time>2021-04-23T09:49:10.000Z</time>
      </trkpt>
      <trkpt lat="45.16632" lon="5.62981">
        <ele>1198.8</ele>
        <time>2021-04-23T09:49:11.000Z</time>
      </trkpt>
      <trkpt lat="45.16632" lon="5.62985">
        <ele>1198.8</ele>
        <time>2021-04-23T09:49:12.000Z</time>
      </trkpt>
      <trkpt lat="45.16631" lon="5.62993">
        <ele>1199</ele>
        <time>2021-04-23T09:49:14.000Z</time>
      </trkpt>
      <trkpt lat="45.1663" lon="5.62996">
        <ele>1199</ele>
        <time>2021-04-23T09:49:15.000Z</time>
      </trkpt>
      <trkpt lat="45.16629" lon="5.63">
        <ele>1199.4</ele>
        <time>2021-04-23T09:49:16.000Z</time>
      </trkpt>
      <trkpt lat="45.16626" lon="5.63006">
        <ele>1199.8</ele>
        <time>2021-04-23T09:49:18.000Z</time>
      </trkpt>
      <trkpt lat="45.16624" lon="5.63009">
        <ele>1199.8</ele>
        <time>2021-04-23T09:49:19.000Z</time>
      </trkpt>
      <trkpt lat="45.16622" lon="5.63012">
        <ele>1200</ele>
        <time>2021-04-23T09:49:20.000Z</time>
      </trkpt>
      <trkpt lat="45.1662" lon="5.63015">
        <ele>1200.2</ele>
        <time>2021-04-23T09:49:21.000Z</time>
      </trkpt>
      <trkpt lat="45.16618" lon="5.63017">
        <ele>1200.4</ele>
        <time>2021-04-23T09:49:22.000Z</time>
      </trkpt>
      <trkpt lat="45.16616" lon="5.6302">
        <ele>1200.4</ele>
        <time>2021-04-23T09:49:23.000Z</time>
      </trkpt>
      <trkpt lat="45.16614" lon="5.63023">
        <ele>1200.6</ele>
        <time>2021-04-23T09:49:24.000Z</time>
      </trkpt>
      <trkpt lat="45.16613" lon="5.63026">
        <ele>1200.8</ele>
        <time>2021-04-23T09:49:25.000Z</time>
      </trkpt>
      <trkpt lat="45.16611" lon="5.63028">
        <ele>1201</ele>
        <time>2021-04-23T09:49:26.000Z</time>
      </trkpt>
      <trkpt lat="45.16609" lon="5.63031">
        <ele>1201.2</ele>
        <time>2021-04-23T09:49:27.000Z</time>
      </trkpt>
      <trkpt lat="45.16607" lon="5.63033">
        <ele>1201.4</ele>
        <time>2021-04-23T09:49:28.000Z</time>
      </trkpt>
      <trkpt lat="45.16605" lon="5.63036">
        <ele>1201.8</ele>
        <time>2021-04-23T09:49:29.000Z</time>
      </trkpt>
      <trkpt lat="45.16603" lon="5.63039">
        <ele>1201.8</ele>
        <time>2021-04-23T09:49:30.000Z</time>
      </trkpt>
      <trkpt lat="45.16601" lon="5.63042">
        <ele>1202</ele>
        <time>2021-04-23T09:49:31.000Z</time>
      </trkpt>
      <trkpt lat="45.166" lon="5.63044">
        <ele>1202.2</ele>
        <time>2021-04-23T09:49:32.000Z</time>
      </trkpt>
      <trkpt lat="45.16598" lon="5.63047">
        <ele>1202.4</ele>
        <time>2021-04-23T09:49:33.000Z</time>
      </trkpt>
      <trkpt lat="45.16596" lon="5.63049">
        <ele>1202.4</ele>
        <time>2021-04-23T09:49:34.000Z</time>
      </trkpt>
      <trkpt lat="45.16594" lon="5.63052">
        <ele>1202.6</ele>
        <time>2021-04-23T09:49:35.000Z</time>
      </trkpt>
      <trkpt lat="45.16593" lon="5.63054">
        <ele>1202.8</ele>
        <time>2021-04-23T09:49:36.000Z</time>
      </trkpt>
      <trkpt lat="45.16591" lon="5.63057">
        <ele>1203</ele>
        <time>2021-04-23T09:49:37.000Z</time>
      </trkpt>
      <trkpt lat="45.1659" lon="5.6306">
        <ele>1203.2</ele>
        <time>2021-04-23T09:49:38.000Z</time>
      </trkpt>
      <trkpt lat="45.16588" lon="5.63062">
        <ele>1203.4</ele>
        <time>2021-04-23T09:49:39.000Z</time>
      </trkpt>
      <trkpt lat="45.16587" lon="5.63065">
        <ele>1203.4</ele>
        <time>2021-04-23T09:49:40.000Z</time>
      </trkpt>
      <trkpt lat="45.16585" lon="5.63068">
        <ele>1203.6</ele>
        <time>2021-04-23T09:49:41.000Z</time>
      </trkpt>
      <trkpt lat="45.16584" lon="5.63071">
        <ele>1203.8</ele>
        <time>2021-04-23T09:49:42.000Z</time>
      </trkpt>
      <trkpt lat="45.16583" lon="5.63074">
        <ele>1204.2</ele>
        <time>2021-04-23T09:49:43.000Z</time>
      </trkpt>
      <trkpt lat="45.16582" lon="5.63077">
        <ele>1204.4</ele>
        <time>2021-04-23T09:49:44.000Z</time>
      </trkpt>
      <trkpt lat="45.16581" lon="5.6308">
        <ele>1204.6</ele>
        <time>2021-04-23T09:49:45.000Z</time>
      </trkpt>
      <trkpt lat="45.1658" lon="5.63083">
        <ele>1204.8</ele>
        <time>2021-04-23T09:49:46.000Z</time>
      </trkpt>
      <trkpt lat="45.16579" lon="5.63087">
        <ele>1205</ele>
        <time>2021-04-23T09:49:47.000Z</time>
      </trkpt>
      <trkpt lat="45.16579" lon="5.6309">
        <ele>1205.2</ele>
        <time>2021-04-23T09:49:48.000Z</time>
      </trkpt>
      <trkpt lat="45.16579" lon="5.63093">
        <ele>1205.4</ele>
        <time>2021-04-23T09:49:49.000Z</time>
      </trkpt>
      <trkpt lat="45.16578" lon="5.63097">
        <ele>1205.6</ele>
        <time>2021-04-23T09:49:50.000Z</time>
      </trkpt>
      <trkpt lat="45.16578" lon="5.631">
        <ele>1205.8</ele>
        <time>2021-04-23T09:49:51.000Z</time>
      </trkpt>
      <trkpt lat="45.16578" lon="5.63103">
        <ele>1206</ele>
        <time>2021-04-23T09:49:52.000Z</time>
      </trkpt>
      <trkpt lat="45.16578" lon="5.63106">
        <ele>1206.2</ele>
        <time>2021-04-23T09:49:53.000Z</time>
      </trkpt>
      <trkpt lat="45.16579" lon="5.6311">
        <ele>1206.4</ele>
        <time>2021-04-23T09:49:54.000Z</time>
      </trkpt>
      <trkpt lat="45.1658" lon="5.63113">
        <ele>1206.6</ele>
        <time>2021-04-23T09:49:55.000Z</time>
      </trkpt>
      <trkpt lat="45.16582" lon="5.63117">
        <ele>1206.6</ele>
        <time>2021-04-23T09:49:56.000Z</time>
      </trkpt>
      <trkpt lat="45.1656" lon="5.63116">
        <ele>1214.6</ele>
      </trkpt>
      <trkpt lat="45.16565" lon="5.62966">
        <ele>1209.8</ele>
      </trkpt>
      <trkpt lat="45.1655" lon="5.62933">
        <ele>1209.2</ele>
      </trkpt>
      <trkpt lat="45.1653" lon="5.62933">
        <ele>1208.9</ele>
      </trkpt>
      <trkpt lat="45.16533" lon="5.62903">
        <ele>1206.6</ele>
      </trkpt>
      <trkpt lat="45.16523" lon="5.62901">
        <ele>1205.8</ele>
      </trkpt>
      <trkpt lat="45.16467" lon="5.62938">
        <ele>1209.3</ele>
      </trkpt>
      <trkpt lat="45.16449" lon="5.62923">
        <ele>1206.9</ele>
      </trkpt>
      <trkpt lat="45.16464" lon="5.62867">
        <ele>1195.7</ele>
      </trkpt>
      <trkpt lat="45.16457" lon="5.62839">
        <ele>1189.1</ele>
      </trkpt>
      <trkpt lat="45.16472" lon="5.62827">
        <ele>1188.8</ele>
      </trkpt>
      <trkpt lat="45.16469" lon="5.62798">
        <ele>1184.3</ele>
      </trkpt>
      <trkpt lat="45.1647" lon="5.62699">
        <ele>1169.9</ele>
      </trkpt>
      <trkpt lat="45.16442" lon="5.62689">
        <ele>1166.3</ele>
      </trkpt>
      <trkpt lat="45.16446" lon="5.62659">
        <ele>1163.2</ele>
      </trkpt>
      <trkpt lat="45.16423" lon="5.62655">
        <ele>1161.6</ele>
      </trkpt>
      <trkpt lat="45.16353" lon="5.62571">
        <ele>1160.6</ele>
      </trkpt>
      <trkpt lat="45.16304" lon="5.62546">
        <ele>1159.8</ele>
      </trkpt>
      <trkpt lat="45.16331" lon="5.62495">
        <ele>1150.4</ele>
      </trkpt>
      <trkpt lat="45.16311" lon="5.62472">
        <ele>1149.6</ele>
      </trkpt>
      <trkpt lat="45.16237" lon="5.62396">
        <ele>1155.8</ele>
      </trkpt>
      <trkpt lat="45.16204" lon="5.62293">
        <ele>1156</ele>
      </trkpt>
      <trkpt lat="45.16212" lon="5.62247">
        <ele>1151.8</ele>
      </trkpt>
      <trkpt lat="45.16202" lon="5.62213">
        <ele>1151.2</ele>
      </trkpt>
      <trkpt lat="45.16149" lon="5.62178">
        <ele>1160.5</ele>
      </trkpt>
      <trkpt lat="45.16139" lon="5.6215">
        <ele>1160.5</ele>
      </trkpt>
      <trkpt lat="45.16139" lon="5.62042">
        <ele>1154</ele>
      </trkpt>
      <trkpt lat="45.16127" lon="5.62">
        <ele>1153.4</ele>
      </trkpt>
      <trkpt lat="45.16091" lon="5.61935">
        <ele>1156.5</ele>
      </trkpt>
      <trkpt lat="45.1609" lon="5.61889">
        <ele>1157.8</ele>
      </trkpt>
      <trkpt lat="45.16103" lon="5.61807">
        <ele>1171.4</ele>
        <time>2021-04-23T10:09:14.000Z</time>
      </trkpt>
      <trkpt lat="45.16106" lon="5.61807">
        <ele>1171.6</ele>
        <time>2021-04-23T10:09:15.000Z</time>
      </trkpt>
      <trkpt lat="45.16108" lon="5.61807">
        <ele>1171.8</ele>
        <time>2021-04-23T10:09:16.000Z</time>
      </trkpt>
      <trkpt lat="45.1611" lon="5.61808">
        <ele>1172</ele>
        <time>2021-04-23T10:09:17.000Z</time>
      </trkpt>
      <trkpt lat="45.16112" lon="5.61809">
        <ele>1172.2</ele>
        <time>2021-04-23T10:09:18.000Z</time>
      </trkpt>
      <trkpt lat="45.16125" lon="5.61812">
        <ele>1172.4</ele>
        <time>2021-04-23T10:09:23.000Z</time>
      </trkpt>
      <trkpt lat="45.16151" lon="5.61816">
        <ele>1172.2</ele>
        <time>2021-04-23T10:09:31.000Z</time>
      </trkpt>
      <trkpt lat="45.16179" lon="5.61818">
        <ele>1172.2</ele>
        <time>2021-04-23T10:09:39.000Z</time>
      </trkpt>
      <trkpt lat="45.16195" lon="5.6182">
        <ele>1172.2</ele>
        <time>2021-04-23T10:09:44.000Z</time>
      </trkpt>
      <trkpt lat="45.16203" lon="5.6182">
        <ele>1171.8</ele>
        <time>2021-04-23T10:09:46.000Z</time>
      </trkpt>
      <trkpt lat="45.16206" lon="5.6182">
        <ele>1171.8</ele>
        <time>2021-04-23T10:09:47.000Z</time>
      </trkpt>
      <trkpt lat="45.16208" lon="5.6182">
        <ele>1171.8</ele>
        <time>2021-04-23T10:09:48.000Z</time>
      </trkpt>
      <trkpt lat="45.16211" lon="5.61821">
        <ele>1171.8</ele>
        <time>2021-04-23T10:09:49.000Z</time>
      </trkpt>
      <trkpt lat="45.16214" lon="5.61822">
        <ele>1171.2</ele>
        <time>2021-04-23T10:09:50.000Z</time>
      </trkpt>
      <trkpt lat="45.16218" lon="5.61823">
        <ele>1171</ele>
        <time>2021-04-23T10:09:51.000Z</time>
      </trkpt>
      <trkpt lat="45.16221" lon="5.61824">
        <ele>1171</ele>
        <time>2021-04-23T10:09:52.000Z</time>
      </trkpt>
      <trkpt lat="45.16224" lon="5.61824">
        <ele>1170.8</ele>
        <time>2021-04-23T10:09:53.000Z</time>
      </trkpt>
      <trkpt lat="45.16227" lon="5.61824">
        <ele>1170.8</ele>
        <time>2021-04-23T10:09:54.000Z</time>
      </trkpt>
      <trkpt lat="45.16234" lon="5.61823">
        <ele>1171.4</ele>
        <time>2021-04-23T10:09:56.000Z</time>
      </trkpt>
      <trkpt lat="45.16244" lon="5.61821">
        <ele>1171.4</ele>
        <time>2021-04-23T10:10:00.000Z</time>
      </trkpt>
      <trkpt lat="45.16247" lon="5.6182">
        <ele>1171.4</ele>
        <time>2021-04-23T10:10:01.000Z</time>
      </trkpt>
      <trkpt lat="45.1625" lon="5.61819">
        <ele>1171.4</ele>
        <time>2021-04-23T10:10:02.000Z</time>
      </trkpt>
      <trkpt lat="45.16253" lon="5.61818">
        <ele>1171.4</ele>
        <time>2021-04-23T10:10:03.000Z</time>
      </trkpt>
      <trkpt lat="45.16255" lon="5.61818">
        <ele>1171.4</ele>
        <time>2021-04-23T10:10:04.000Z</time>
      </trkpt>
      <trkpt lat="45.16258" lon="5.61818">
        <ele>1171.4</ele>
        <time>2021-04-23T10:10:05.000Z</time>
      </trkpt>
      <trkpt lat="45.16261" lon="5.61818">
        <ele>1171.4</ele>
        <time>2021-04-23T10:10:06.000Z</time>
      </trkpt>
      <trkpt lat="45.16264" lon="5.61817">
        <ele>1171.2</ele>
        <time>2021-04-23T10:10:07.000Z</time>
      </trkpt>
      <trkpt lat="45.16267" lon="5.61817">
        <ele>1171</ele>
        <time>2021-04-23T10:10:08.000Z</time>
      </trkpt>
      <trkpt lat="45.1627" lon="5.61817">
        <ele>1170.6</ele>
        <time>2021-04-23T10:10:09.000Z</time>
      </trkpt>
      <trkpt lat="45.16276" lon="5.61815">
        <ele>1170.4</ele>
        <time>2021-04-23T10:10:11.000Z</time>
      </trkpt>
      <trkpt lat="45.16279" lon="5.61814">
        <ele>1170.2</ele>
        <time>2021-04-23T10:10:12.000Z</time>
      </trkpt>
      <trkpt lat="45.16292" lon="5.61815">
        <ele>1169.8</ele>
        <time>2021-04-23T10:10:16.000Z</time>
      </trkpt>
      <trkpt lat="45.16295" lon="5.61815">
        <ele>1169.8</ele>
        <time>2021-04-23T10:10:17.000Z</time>
      </trkpt>
      <trkpt lat="45.16297" lon="5.61816">
        <ele>1169.6</ele>
        <time>2021-04-23T10:10:18.000Z</time>
      </trkpt>
      <trkpt lat="45.16299" lon="5.61816">
        <ele>1169.6</ele>
        <time>2021-04-23T10:10:19.000Z</time>
      </trkpt>
      <trkpt lat="45.163" lon="5.61816">
        <ele>1169.6</ele>
        <time>2021-04-23T10:10:20.000Z</time>
      </trkpt>
      <trkpt lat="45.16302" lon="5.61816">
        <ele>1169.6</ele>
        <time>2021-04-23T10:10:21.000Z</time>
      </trkpt>
      <trkpt lat="45.16303" lon="5.61815">
        <ele>1169.4</ele>
        <time>2021-04-23T10:10:22.000Z</time>
      </trkpt>
      <trkpt lat="45.16305" lon="5.61814">
        <ele>1169.4</ele>
        <time>2021-04-23T10:10:23.000Z</time>
      </trkpt>
      <trkpt lat="45.16305" lon="5.61813">
        <ele>1169.2</ele>
        <time>2021-04-23T10:10:24.000Z</time>
      </trkpt>
      <trkpt lat="45.16305" lon="5.61813">
        <ele>1169</ele>
        <time>2021-04-23T10:10:25.000Z</time>
      </trkpt>
      <trkpt lat="45.16305" lon="5.61813">
        <ele>1168.8</ele>
        <time>2021-04-23T10:10:27.000Z</time>
      </trkpt>
      <trkpt lat="45.16305" lon="5.61813">
        <ele>1168.6</ele>
        <time>2021-04-23T10:10:28.000Z</time>
      </trkpt>
      <trkpt lat="45.16305" lon="5.61813">
        <ele>1168.6</ele>
        <time>2021-04-23T10:10:31.000Z</time>
      </trkpt>
      <trkpt lat="45.16305" lon="5.61813">
        <ele>1168.4</ele>
        <time>2021-04-23T10:10:36.000Z</time>
      </trkpt>
      <trkpt lat="45.16305" lon="5.61813">
        <ele>1168.2</ele>
        <time>2021-04-23T10:10:41.000Z</time>
      </trkpt>
      <trkpt lat="45.16305" lon="5.61813">
        <ele>1168.2</ele>
        <time>2021-04-23T10:10:44.000Z</time>
      </trkpt>
      <trkpt lat="45.16306" lon="5.61813">
        <ele>1168</ele>
        <time>2021-04-23T10:10:47.000Z</time>
      </trkpt>
      <trkpt lat="45.16308" lon="5.61811">
        <ele>1167.8</ele>
        <time>2021-04-23T10:10:48.000Z</time>
      </trkpt>
      <trkpt lat="45.16311" lon="5.61808">
        <ele>1167.8</ele>
        <time>2021-04-23T10:10:49.000Z</time>
      </trkpt>
      <trkpt lat="45.1632" lon="5.61798">
        <ele>1166.4</ele>
        <time>2021-04-23T10:10:52.000Z</time>
      </trkpt>
      <trkpt lat="45.16329" lon="5.61788">
        <ele>1164.4</ele>
        <time>2021-04-23T10:10:54.000Z</time>
      </trkpt>
      <trkpt lat="45.16337" lon="5.61782">
        <ele>1163.2</ele>
        <time>2021-04-23T10:10:56.000Z</time>
      </trkpt>
      <trkpt lat="45.16341" lon="5.61783">
        <ele>1162.8</ele>
        <time>2021-04-23T10:10:57.000Z</time>
      </trkpt>
      <trkpt lat="45.16343" lon="5.61786">
        <ele>1162.4</ele>
        <time>2021-04-23T10:10:58.000Z</time>
      </trkpt>
      <trkpt lat="45.16347" lon="5.61788">
        <ele>1161.2</ele>
        <time>2021-04-23T10:10:59.000Z</time>
      </trkpt>
      <trkpt lat="45.1635" lon="5.6179">
        <ele>1160.2</ele>
        <time>2021-04-23T10:11:00.000Z</time>
      </trkpt>
      <trkpt lat="45.16353" lon="5.61791">
        <ele>1159.8</ele>
        <time>2021-04-23T10:11:01.000Z</time>
      </trkpt>
      <trkpt lat="45.16355" lon="5.61792">
        <ele>1159.6</ele>
        <time>2021-04-23T10:11:02.000Z</time>
      </trkpt>
      <trkpt lat="45.16357" lon="5.61793">
        <ele>1159.4</ele>
        <time>2021-04-23T10:11:03.000Z</time>
      </trkpt>
      <trkpt lat="45.16357" lon="5.61793">
        <ele>1159.2</ele>
        <time>2021-04-23T10:11:04.000Z</time>
      </trkpt>
      <trkpt lat="45.16357" lon="5.61793">
        <ele>1158.8</ele>
        <time>2021-04-23T10:11:06.000Z</time>
      </trkpt>
      <trkpt lat="45.16359" lon="5.61793">
        <ele>1158.8</ele>
        <time>2021-04-23T10:11:07.000Z</time>
      </trkpt>
      <trkpt lat="45.16362" lon="5.61794">
        <ele>1158.8</ele>
        <time>2021-04-23T10:11:08.000Z</time>
      </trkpt>
      <trkpt lat="45.16367" lon="5.61793">
        <ele>1157.8</ele>
        <time>2021-04-23T10:11:10.000Z</time>
      </trkpt>
      <trkpt lat="45.16369" lon="5.61792">
        <ele>1157.4</ele>
        <time>2021-04-23T10:11:11.000Z</time>
      </trkpt>
      <trkpt lat="45.16372" lon="5.61791">
        <ele>1157.2</ele>
        <time>2021-04-23T10:11:12.000Z</time>
      </trkpt>
      <trkpt lat="45.16374" lon="5.6179">
        <ele>1157</ele>
        <time>2021-04-23T10:11:13.000Z</time>
      </trkpt>
      <trkpt lat="45.16376" lon="5.6179">
        <ele>1156.8</ele>
        <time>2021-04-23T10:11:14.000Z</time>
      </trkpt>
      <trkpt lat="45.16378" lon="5.61788">
        <ele>1156.6</ele>
        <time>2021-04-23T10:11:15.000Z</time>
      </trkpt>
      <trkpt lat="45.16383" lon="5.61788">
        <ele>1156.2</ele>
        <time>2021-04-23T10:11:17.000Z</time>
      </trkpt>
      <trkpt lat="45.16386" lon="5.61791">
        <ele>1156.2</ele>
        <time>2021-04-23T10:11:18.000Z</time>
      </trkpt>
      <trkpt lat="45.16391" lon="5.61797">
        <ele>1155.4</ele>
        <time>2021-04-23T10:11:20.000Z</time>
      </trkpt>
      <trkpt lat="45.16392" lon="5.61799">
        <ele>1154.6</ele>
        <time>2021-04-23T10:11:21.000Z</time>
      </trkpt>
      <trkpt lat="45.16394" lon="5.618">
        <ele>1153.8</ele>
        <time>2021-04-23T10:11:22.000Z</time>
      </trkpt>
      <trkpt lat="45.16397" lon="5.618">
        <ele>1153.2</ele>
        <time>2021-04-23T10:11:23.000Z</time>
      </trkpt>
      <trkpt lat="45.16399" lon="5.61801">
        <ele>1152.8</ele>
        <time>2021-04-23T10:11:24.000Z</time>
      </trkpt>
      <trkpt lat="45.16401" lon="5.61802">
        <ele>1152.4</ele>
        <time>2021-04-23T10:11:25.000Z</time>
      </trkpt>
      <trkpt lat="45.16403" lon="5.61811">
        <ele>1151</ele>
        <time>2021-04-23T10:11:27.000Z</time>
      </trkpt>
      <trkpt lat="45.16404" lon="5.61816">
        <ele>1150.6</ele>
        <time>2021-04-23T10:11:28.000Z</time>
      </trkpt>
      <trkpt lat="45.16406" lon="5.61819">
        <ele>1149.4</ele>
        <time>2021-04-23T10:11:29.000Z</time>
      </trkpt>
      <trkpt lat="45.16409" lon="5.61819">
        <ele>1148.6</ele>
        <time>2021-04-23T10:11:30.000Z</time>
      </trkpt>
      <trkpt lat="45.16409" lon="5.61819">
        <ele>1148</ele>
        <time>2021-04-23T10:11:31.000Z</time>
      </trkpt>
      <trkpt lat="45.1641" lon="5.61819">
        <ele>1147.4</ele>
        <time>2021-04-23T10:11:32.000Z</time>
      </trkpt>
      <trkpt lat="45.16411" lon="5.61819">
        <ele>1147.2</ele>
        <time>2021-04-23T10:11:33.000Z</time>
      </trkpt>
      <trkpt lat="45.16412" lon="5.61819">
        <ele>1147</ele>
        <time>2021-04-23T10:11:34.000Z</time>
      </trkpt>
      <trkpt lat="45.16413" lon="5.61817">
        <ele>1146.8</ele>
        <time>2021-04-23T10:11:35.000Z</time>
      </trkpt>
      <trkpt lat="45.16414" lon="5.61816">
        <ele>1146.2</ele>
        <time>2021-04-23T10:11:36.000Z</time>
      </trkpt>
      <trkpt lat="45.16415" lon="5.61816">
        <ele>1145.8</ele>
        <time>2021-04-23T10:11:37.000Z</time>
      </trkpt>
      <trkpt lat="45.16416" lon="5.61818">
        <ele>1145.4</ele>
        <time>2021-04-23T10:11:38.000Z</time>
      </trkpt>
      <trkpt lat="45.16419" lon="5.61822">
        <ele>1144.4</ele>
        <time>2021-04-23T10:11:40.000Z</time>
      </trkpt>
      <trkpt lat="45.16419" lon="5.61822">
        <ele>1144.2</ele>
        <time>2021-04-23T10:11:41.000Z</time>
      </trkpt>
      <trkpt lat="45.16422" lon="5.61819">
        <ele>1143</ele>
        <time>2021-04-23T10:11:44.000Z</time>
      </trkpt>
      <trkpt lat="45.16424" lon="5.61818">
        <ele>1142.6</ele>
        <time>2021-04-23T10:11:45.000Z</time>
      </trkpt>
      <trkpt lat="45.16426" lon="5.61818">
        <ele>1142.2</ele>
        <time>2021-04-23T10:11:46.000Z</time>
      </trkpt>
      <trkpt lat="45.16428" lon="5.61822">
        <ele>1141.4</ele>
        <time>2021-04-23T10:11:48.000Z</time>
      </trkpt>
      <trkpt lat="45.16428" lon="5.61824">
        <ele>1140.4</ele>
        <time>2021-04-23T10:11:49.000Z</time>
      </trkpt>
      <trkpt lat="45.16429" lon="5.61825">
        <ele>1139.6</ele>
        <time>2021-04-23T10:11:50.000Z</time>
      </trkpt>
      <trkpt lat="45.16431" lon="5.61824">
        <ele>1138.8</ele>
        <time>2021-04-23T10:11:51.000Z</time>
      </trkpt>
      <trkpt lat="45.16432" lon="5.61826">
        <ele>1138</ele>
        <time>2021-04-23T10:11:52.000Z</time>
      </trkpt>
      <trkpt lat="45.16434" lon="5.61827">
        <ele>1137.4</ele>
        <time>2021-04-23T10:11:53.000Z</time>
      </trkpt>
      <trkpt lat="45.16434" lon="5.6183">
        <ele>1136.8</ele>
        <time>2021-04-23T10:11:54.000Z</time>
      </trkpt>
      <trkpt lat="45.16433" lon="5.61832">
        <ele>1136.4</ele>
        <time>2021-04-23T10:11:55.000Z</time>
      </trkpt>
      <trkpt lat="45.16433" lon="5.61836">
        <ele>1136.2</ele>
        <time>2021-04-23T10:11:56.000Z</time>
      </trkpt>
      <trkpt lat="45.16432" lon="5.61839">
        <ele>1135.8</ele>
        <time>2021-04-23T10:11:57.000Z</time>
      </trkpt>
      <trkpt lat="45.16431" lon="5.61842">
        <ele>1134.6</ele>
        <time>2021-04-23T10:11:58.000Z</time>
      </trkpt>
      <trkpt lat="45.16429" lon="5.61846">
        <ele>1133.8</ele>
        <time>2021-04-23T10:11:59.000Z</time>
      </trkpt>
      <trkpt lat="45.16427" lon="5.61849">
        <ele>1133.2</ele>
        <time>2021-04-23T10:12:00.000Z</time>
      </trkpt>
      <trkpt lat="45.16426" lon="5.61853">
        <ele>1132.4</ele>
        <time>2021-04-23T10:12:01.000Z</time>
      </trkpt>
      <trkpt lat="45.16424" lon="5.61856">
        <ele>1131.6</ele>
        <time>2021-04-23T10:12:02.000Z</time>
      </trkpt>
      <trkpt lat="45.16422" lon="5.61859">
        <ele>1131</ele>
        <time>2021-04-23T10:12:03.000Z</time>
      </trkpt>
      <trkpt lat="45.16419" lon="5.61862">
        <ele>1130.4</ele>
        <time>2021-04-23T10:12:04.000Z</time>
      </trkpt>
      <trkpt lat="45.16413" lon="5.61871">
        <ele>1129.2</ele>
        <time>2021-04-23T10:12:06.000Z</time>
      </trkpt>
      <trkpt lat="45.16412" lon="5.61875">
        <ele>1129</ele>
        <time>2021-04-23T10:12:07.000Z</time>
      </trkpt>
      <trkpt lat="45.16409" lon="5.61879">
        <ele>1128.2</ele>
        <time>2021-04-23T10:12:08.000Z</time>
      </trkpt>
      <trkpt lat="45.16407" lon="5.61884">
        <ele>1127.4</ele>
        <time>2021-04-23T10:12:09.000Z</time>
      </trkpt>
      <trkpt lat="45.16406" lon="5.61887">
        <ele>1126.4</ele>
        <time>2021-04-23T10:12:10.000Z</time>
      </trkpt>
      <trkpt lat="45.16405" lon="5.61892">
        <ele>1125.6</ele>
        <time>2021-04-23T10:12:11.000Z</time>
      </trkpt>
      <trkpt lat="45.16405" lon="5.61897">
        <ele>1125</ele>
        <time>2021-04-23T10:12:12.000Z</time>
      </trkpt>
      <trkpt lat="45.16405" lon="5.61903">
        <ele>1123.6</ele>
        <time>2021-04-23T10:12:13.000Z</time>
      </trkpt>
      <trkpt lat="45.16402" lon="5.61912">
        <ele>1122.2</ele>
        <time>2021-04-23T10:12:15.000Z</time>
      </trkpt>
      <trkpt lat="45.16401" lon="5.61916">
        <ele>1121.4</ele>
        <time>2021-04-23T10:12:16.000Z</time>
      </trkpt>
      <trkpt lat="45.164" lon="5.6192">
        <ele>1120.6</ele>
        <time>2021-04-23T10:12:17.000Z</time>
      </trkpt>
      <trkpt lat="45.164" lon="5.61925">
        <ele>1120.2</ele>
        <time>2021-04-23T10:12:18.000Z</time>
      </trkpt>
      <trkpt lat="45.164" lon="5.6193">
        <ele>1119.2</ele>
        <time>2021-04-23T10:12:19.000Z</time>
      </trkpt>
      <trkpt lat="45.164" lon="5.61935">
        <ele>1118.6</ele>
        <time>2021-04-23T10:12:20.000Z</time>
      </trkpt>
      <trkpt lat="45.164" lon="5.61942">
        <ele>1118.2</ele>
        <time>2021-04-23T10:12:21.000Z</time>
      </trkpt>
      <trkpt lat="45.16397" lon="5.61955">
        <ele>1117.4</ele>
        <time>2021-04-23T10:12:23.000Z</time>
      </trkpt>
      <trkpt lat="45.16393" lon="5.6196">
        <ele>1116.6</ele>
        <time>2021-04-23T10:12:24.000Z</time>
      </trkpt>
      <trkpt lat="45.16386" lon="5.61967">
        <ele>1115.4</ele>
        <time>2021-04-23T10:12:26.000Z</time>
      </trkpt>
      <trkpt lat="45.16384" lon="5.61971">
        <ele>1115.2</ele>
        <time>2021-04-23T10:12:27.000Z</time>
      </trkpt>
      <trkpt lat="45.16384" lon="5.61974">
        <ele>1114.6</ele>
        <time>2021-04-23T10:12:28.000Z</time>
      </trkpt>
      <trkpt lat="45.16383" lon="5.61976">
        <ele>1113.8</ele>
        <time>2021-04-23T10:12:29.000Z</time>
      </trkpt>
      <trkpt lat="45.16383" lon="5.61979">
        <ele>1113</ele>
        <time>2021-04-23T10:12:30.000Z</time>
      </trkpt>
      <trkpt lat="45.16383" lon="5.61982">
        <ele>1112.4</ele>
        <time>2021-04-23T10:12:31.000Z</time>
      </trkpt>
      <trkpt lat="45.16382" lon="5.61985">
        <ele>1112.2</ele>
        <time>2021-04-23T10:12:32.000Z</time>
      </trkpt>
      <trkpt lat="45.16381" lon="5.61988">
        <ele>1112.2</ele>
        <time>2021-04-23T10:12:33.000Z</time>
      </trkpt>
      <trkpt lat="45.16381" lon="5.61996">
        <ele>1112.4</ele>
        <time>2021-04-23T10:12:36.000Z</time>
      </trkpt>
      <trkpt lat="45.16381" lon="5.61997">
        <ele>1112.4</ele>
        <time>2021-04-23T10:12:37.000Z</time>
      </trkpt>
      <trkpt lat="45.16382" lon="5.61997">
        <ele>1112.4</ele>
        <time>2021-04-23T10:12:38.000Z</time>
      </trkpt>
      <trkpt lat="45.16382" lon="5.61996">
        <ele>1112.4</ele>
        <time>2021-04-23T10:12:39.000Z</time>
      </trkpt>
      <trkpt lat="45.16383" lon="5.61995">
        <ele>1112.4</ele>
        <time>2021-04-23T10:12:40.000Z</time>
      </trkpt>
      <trkpt lat="45.16389" lon="5.61983">
        <ele>1112.8</ele>
        <time>2021-04-23T10:12:45.000Z</time>
      </trkpt>
      <trkpt lat="45.16396" lon="5.61979">
        <ele>1113.8</ele>
        <time>2021-04-23T10:12:49.000Z</time>
      </trkpt>
      <trkpt lat="45.16397" lon="5.61978">
        <ele>1114.2</ele>
        <time>2021-04-23T10:12:50.000Z</time>
      </trkpt>
      <trkpt lat="45.16398" lon="5.61977">
        <ele>1114.8</ele>
        <time>2021-04-23T10:12:51.000Z</time>
      </trkpt>
      <trkpt lat="45.16399" lon="5.61977">
        <ele>1115.2</ele>
        <time>2021-04-23T10:12:52.000Z</time>
      </trkpt>
      <trkpt lat="45.16399" lon="5.61977">
        <ele>1115.2</ele>
        <time>2021-04-23T10:12:53.000Z</time>
      </trkpt>
      <trkpt lat="45.16399" lon="5.61977">
        <ele>1115.4</ele>
        <time>2021-04-23T10:12:55.000Z</time>
      </trkpt>
      <trkpt lat="45.16401" lon="5.61975">
        <ele>1115.8</ele>
        <time>2021-04-23T10:12:57.000Z</time>
      </trkpt>
      <trkpt lat="45.1641" lon="5.61972">
        <ele>1116.2</ele>
        <time>2021-04-23T10:13:01.000Z</time>
      </trkpt>
      <trkpt lat="45.16413" lon="5.61974">
        <ele>1116.4</ele>
        <time>2021-04-23T10:13:02.000Z</time>
      </trkpt>
      <trkpt lat="45.16415" lon="5.61974">
        <ele>1117</ele>
        <time>2021-04-23T10:13:03.000Z</time>
      </trkpt>
      <trkpt lat="45.16418" lon="5.61974">
        <ele>1117.4</ele>
        <time>2021-04-23T10:13:04.000Z</time>
      </trkpt>
      <trkpt lat="45.16419" lon="5.61972">
        <ele>1117.8</ele>
        <time>2021-04-23T10:13:05.000Z</time>
      </trkpt>
      <trkpt lat="45.16422" lon="5.61971">
        <ele>1118.4</ele>
        <time>2021-04-23T10:13:06.000Z</time>
      </trkpt>
      <trkpt lat="45.16424" lon="5.61969">
        <ele>1118.6</ele>
        <time>2021-04-23T10:13:07.000Z</time>
      </trkpt>
      <trkpt lat="45.16426" lon="5.61968">
        <ele>1118.8</ele>
        <time>2021-04-23T10:13:08.000Z</time>
      </trkpt>
      <trkpt lat="45.16429" lon="5.61969">
        <ele>1119.2</ele>
        <time>2021-04-23T10:13:09.000Z</time>
      </trkpt>
      <trkpt lat="45.16431" lon="5.6197">
        <ele>1119.4</ele>
        <time>2021-04-23T10:13:10.000Z</time>
      </trkpt>
      <trkpt lat="45.16433" lon="5.61969">
        <ele>1119.6</ele>
        <time>2021-04-23T10:13:11.000Z</time>
      </trkpt>
      <trkpt lat="45.16435" lon="5.61969">
        <ele>1119.8</ele>
        <time>2021-04-23T10:13:12.000Z</time>
      </trkpt>
      <trkpt lat="45.16436" lon="5.61968">
        <ele>1120</ele>
        <time>2021-04-23T10:13:13.000Z</time>
      </trkpt>
      <trkpt lat="45.16438" lon="5.61967">
        <ele>1120.2</ele>
        <time>2021-04-23T10:13:14.000Z</time>
      </trkpt>
      <trkpt lat="45.1644" lon="5.61966">
        <ele>1120.2</ele>
        <time>2021-04-23T10:13:15.000Z</time>
      </trkpt>
      <trkpt lat="45.16442" lon="5.61965">
        <ele>1120.2</ele>
        <time>2021-04-23T10:13:16.000Z</time>
      </trkpt>
      <trkpt lat="45.16444" lon="5.61965">
        <ele>1120.4</ele>
        <time>2021-04-23T10:13:17.000Z</time>
      </trkpt>
      <trkpt lat="45.16446" lon="5.61964">
        <ele>1120.2</ele>
        <time>2021-04-23T10:13:18.000Z</time>
      </trkpt>
      <trkpt lat="45.16448" lon="5.61962">
        <ele>1120.2</ele>
        <time>2021-04-23T10:13:19.000Z</time>
      </trkpt>
      <trkpt lat="45.16451" lon="5.6196">
        <ele>1120.2</ele>
        <time>2021-04-23T10:13:20.000Z</time>
      </trkpt>
      <trkpt lat="45.16453" lon="5.61959">
        <ele>1120.2</ele>
        <time>2021-04-23T10:13:21.000Z</time>
      </trkpt>
      <trkpt lat="45.16455" lon="5.61958">
        <ele>1120.2</ele>
        <time>2021-04-23T10:13:22.000Z</time>
      </trkpt>
      <trkpt lat="45.16457" lon="5.61959">
        <ele>1120.2</ele>
        <time>2021-04-23T10:13:23.000Z</time>
      </trkpt>
      <trkpt lat="45.16459" lon="5.61959">
        <ele>1120.2</ele>
        <time>2021-04-23T10:13:24.000Z</time>
      </trkpt>
      <trkpt lat="45.16461" lon="5.61959">
        <ele>1120.4</ele>
        <time>2021-04-23T10:13:25.000Z</time>
      </trkpt>
      <trkpt lat="45.16463" lon="5.6196">
        <ele>1120.4</ele>
        <time>2021-04-23T10:13:26.000Z</time>
      </trkpt>
      <trkpt lat="45.16464" lon="5.61962">
        <ele>1120.6</ele>
        <time>2021-04-23T10:13:27.000Z</time>
      </trkpt>
      <trkpt lat="45.16466" lon="5.61963">
        <ele>1120.6</ele>
        <time>2021-04-23T10:13:28.000Z</time>
      </trkpt>
      <trkpt lat="45.16468" lon="5.61962">
        <ele>1120.6</ele>
        <time>2021-04-23T10:13:29.000Z</time>
      </trkpt>
      <trkpt lat="45.16471" lon="5.61963">
        <ele>1120.8</ele>
        <time>2021-04-23T10:13:30.000Z</time>
      </trkpt>
      <trkpt lat="45.16473" lon="5.61962">
        <ele>1121</ele>
        <time>2021-04-23T10:13:31.000Z</time>
      </trkpt>
      <trkpt lat="45.16474" lon="5.61962">
        <ele>1121.4</ele>
        <time>2021-04-23T10:13:32.000Z</time>
      </trkpt>
      <trkpt lat="45.16476" lon="5.61963">
        <ele>1121.6</ele>
        <time>2021-04-23T10:13:33.000Z</time>
      </trkpt>
      <trkpt lat="45.16478" lon="5.61965">
        <ele>1121.8</ele>
        <time>2021-04-23T10:13:34.000Z</time>
      </trkpt>
      <trkpt lat="45.16479" lon="5.61964">
        <ele>1121.8</ele>
        <time>2021-04-23T10:13:35.000Z</time>
      </trkpt>
      <trkpt lat="45.16482" lon="5.61964">
        <ele>1122</ele>
        <time>2021-04-23T10:13:36.000Z</time>
      </trkpt>
      <trkpt lat="45.16483" lon="5.61964">
        <ele>1122</ele>
        <time>2021-04-23T10:13:37.000Z</time>
      </trkpt>
      <trkpt lat="45.16485" lon="5.61965">
        <ele>1122.2</ele>
        <time>2021-04-23T10:13:38.000Z</time>
      </trkpt>
      <trkpt lat="45.16487" lon="5.61966">
        <ele>1122.2</ele>
        <time>2021-04-23T10:13:39.000Z</time>
      </trkpt>
      <trkpt lat="45.1649" lon="5.61967">
        <ele>1122.4</ele>
        <time>2021-04-23T10:13:40.000Z</time>
      </trkpt>
      <trkpt lat="45.16492" lon="5.61967">
        <ele>1122.6</ele>
        <time>2021-04-23T10:13:41.000Z</time>
      </trkpt>
      <trkpt lat="45.16493" lon="5.61968">
        <ele>1123.4</ele>
        <time>2021-04-23T10:13:42.000Z</time>
      </trkpt>
      <trkpt lat="45.16495" lon="5.61969">
        <ele>1123.8</ele>
        <time>2021-04-23T10:13:43.000Z</time>
      </trkpt>
      <trkpt lat="45.16495" lon="5.61971">
        <ele>1124</ele>
        <time>2021-04-23T10:13:44.000Z</time>
      </trkpt>
      <trkpt lat="45.16496" lon="5.61973">
        <ele>1124</ele>
        <time>2021-04-23T10:13:45.000Z</time>
      </trkpt>
      <trkpt lat="45.16497" lon="5.61974">
        <ele>1123.8</ele>
        <time>2021-04-23T10:13:46.000Z</time>
      </trkpt>
      <trkpt lat="45.16499" lon="5.61976">
        <ele>1123.6</ele>
        <time>2021-04-23T10:13:47.000Z</time>
      </trkpt>
      <trkpt lat="45.16501" lon="5.61977">
        <ele>1122.8</ele>
        <time>2021-04-23T10:13:48.000Z</time>
      </trkpt>
      <trkpt lat="45.16503" lon="5.61979">
        <ele>1122.4</ele>
        <time>2021-04-23T10:13:49.000Z</time>
      </trkpt>
      <trkpt lat="45.16504" lon="5.6198">
        <ele>1122.2</ele>
        <time>2021-04-23T10:13:50.000Z</time>
      </trkpt>
      <trkpt lat="45.16506" lon="5.61982">
        <ele>1122.2</ele>
        <time>2021-04-23T10:13:51.000Z</time>
      </trkpt>
      <trkpt lat="45.16508" lon="5.61983">
        <ele>1122.2</ele>
        <time>2021-04-23T10:13:52.000Z</time>
      </trkpt>
      <trkpt lat="45.16509" lon="5.61984">
        <ele>1122.4</ele>
        <time>2021-04-23T10:13:53.000Z</time>
      </trkpt>
      <trkpt lat="45.16511" lon="5.61984">
        <ele>1122.8</ele>
        <time>2021-04-23T10:13:54.000Z</time>
      </trkpt>
      <trkpt lat="45.16512" lon="5.61985">
        <ele>1123</ele>
        <time>2021-04-23T10:13:55.000Z</time>
      </trkpt>
      <trkpt lat="45.16515" lon="5.61986">
        <ele>1123.6</ele>
        <time>2021-04-23T10:13:57.000Z</time>
      </trkpt>
      <trkpt lat="45.16518" lon="5.61985">
        <ele>1123.8</ele>
        <time>2021-04-23T10:13:58.000Z</time>
      </trkpt>
      <trkpt lat="45.16519" lon="5.61985">
        <ele>1123.8</ele>
        <time>2021-04-23T10:13:59.000Z</time>
      </trkpt>
      <trkpt lat="45.16521" lon="5.61985">
        <ele>1124</ele>
        <time>2021-04-23T10:14:00.000Z</time>
      </trkpt>
      <trkpt lat="45.1653" lon="5.61986">
        <ele>1124.8</ele>
        <time>2021-04-23T10:14:05.000Z</time>
      </trkpt>
      <trkpt lat="45.16531" lon="5.61986">
        <ele>1124.8</ele>
        <time>2021-04-23T10:14:06.000Z</time>
      </trkpt>
      <trkpt lat="45.16533" lon="5.61987">
        <ele>1125</ele>
        <time>2021-04-23T10:14:07.000Z</time>
      </trkpt>
      <trkpt lat="45.16535" lon="5.61989">
        <ele>1125.2</ele>
        <time>2021-04-23T10:14:08.000Z</time>
      </trkpt>
      <trkpt lat="45.16537" lon="5.61989">
        <ele>1125.4</ele>
        <time>2021-04-23T10:14:09.000Z</time>
      </trkpt>
      <trkpt lat="45.16539" lon="5.61989">
        <ele>1125.4</ele>
        <time>2021-04-23T10:14:10.000Z</time>
      </trkpt>
      <trkpt lat="45.16539" lon="5.61989">
        <ele>1125.6</ele>
        <time>2021-04-23T10:14:11.000Z</time>
      </trkpt>
      <trkpt lat="45.16539" lon="5.61989">
        <ele>1125.4</ele>
        <time>2021-04-23T10:14:12.000Z</time>
      </trkpt>
      <trkpt lat="45.1654" lon="5.61988">
        <ele>1125.4</ele>
        <time>2021-04-23T10:14:13.000Z</time>
      </trkpt>
      <trkpt lat="45.16541" lon="5.61987">
        <ele>1125.4</ele>
        <time>2021-04-23T10:14:14.000Z</time>
      </trkpt>
      <trkpt lat="45.16543" lon="5.61986">
        <ele>1124.8</ele>
        <time>2021-04-23T10:14:15.000Z</time>
      </trkpt>
      <trkpt lat="45.16545" lon="5.61985">
        <ele>1124.4</ele>
        <time>2021-04-23T10:14:16.000Z</time>
      </trkpt>
      <trkpt lat="45.16548" lon="5.61983">
        <ele>1123.8</ele>
        <time>2021-04-23T10:14:17.000Z</time>
      </trkpt>
      <trkpt lat="45.16552" lon="5.61982">
        <ele>1123.4</ele>
        <time>2021-04-23T10:14:18.000Z</time>
      </trkpt>
      <trkpt lat="45.16555" lon="5.6198">
        <ele>1123</ele>
        <time>2021-04-23T10:14:19.000Z</time>
      </trkpt>
      <trkpt lat="45.16557" lon="5.61979">
        <ele>1123</ele>
        <time>2021-04-23T10:14:20.000Z</time>
      </trkpt>
      <trkpt lat="45.16559" lon="5.61979">
        <ele>1122.6</ele>
        <time>2021-04-23T10:14:21.000Z</time>
      </trkpt>
      <trkpt lat="45.16561" lon="5.61978">
        <ele>1122.8</ele>
        <time>2021-04-23T10:14:22.000Z</time>
      </trkpt>
      <trkpt lat="45.16563" lon="5.61977">
        <ele>1122.8</ele>
        <time>2021-04-23T10:14:24.000Z</time>
      </trkpt>
      <trkpt lat="45.16565" lon="5.61976">
        <ele>1122.8</ele>
        <time>2021-04-23T10:14:26.000Z</time>
      </trkpt>
      <trkpt lat="45.16566" lon="5.61974">
        <ele>1122.8</ele>
        <time>2021-04-23T10:14:27.000Z</time>
      </trkpt>
      <trkpt lat="45.16569" lon="5.61969">
        <ele>1122.8</ele>
        <time>2021-04-23T10:14:30.000Z</time>
      </trkpt>
      <trkpt lat="45.16571" lon="5.61969">
        <ele>1122.8</ele>
        <time>2021-04-23T10:14:31.000Z</time>
      </trkpt>
      <trkpt lat="45.16573" lon="5.61968">
        <ele>1122.8</ele>
        <time>2021-04-23T10:14:32.000Z</time>
      </trkpt>
      <trkpt lat="45.16574" lon="5.61967">
        <ele>1123</ele>
        <time>2021-04-23T10:14:33.000Z</time>
      </trkpt>
      <trkpt lat="45.16575" lon="5.61966">
        <ele>1123</ele>
        <time>2021-04-23T10:14:34.000Z</time>
      </trkpt>
      <trkpt lat="45.16575" lon="5.61966">
        <ele>1123</ele>
        <time>2021-04-23T10:14:35.000Z</time>
      </trkpt>
      <trkpt lat="45.16576" lon="5.61967">
        <ele>1123.2</ele>
        <time>2021-04-23T10:14:36.000Z</time>
      </trkpt>
      <trkpt lat="45.16577" lon="5.61967">
        <ele>1123.4</ele>
        <time>2021-04-23T10:14:37.000Z</time>
      </trkpt>
      <trkpt lat="45.16577" lon="5.61967">
        <ele>1123.6</ele>
        <time>2021-04-23T10:14:39.000Z</time>
      </trkpt>
      <trkpt lat="45.16577" lon="5.61967">
        <ele>1123.6</ele>
        <time>2021-04-23T10:14:43.000Z</time>
      </trkpt>
      <trkpt lat="45.16581" lon="5.61965">
        <ele>1123.4</ele>
        <time>2021-04-23T10:14:47.000Z</time>
      </trkpt>
      <trkpt lat="45.16583" lon="5.61964">
        <ele>1123.4</ele>
        <time>2021-04-23T10:14:48.000Z</time>
      </trkpt>
      <trkpt lat="45.16583" lon="5.61964">
        <ele>1123.6</ele>
        <time>2021-04-23T10:14:49.000Z</time>
      </trkpt>
      <trkpt lat="45.16583" lon="5.61964">
        <ele>1124.2</ele>
        <time>2021-04-23T10:14:52.000Z</time>
      </trkpt>
      <trkpt lat="45.16583" lon="5.61964">
        <ele>1124.4</ele>
        <time>2021-04-23T10:14:53.000Z</time>
      </trkpt>
      <trkpt lat="45.16585" lon="5.61961">
        <ele>1124.6</ele>
        <time>2021-04-23T10:14:55.000Z</time>
      </trkpt>
      <trkpt lat="45.16588" lon="5.61956">
        <ele>1124.8</ele>
        <time>2021-04-23T10:14:57.000Z</time>
      </trkpt>
      <trkpt lat="45.16589" lon="5.61955">
        <ele>1125</ele>
        <time>2021-04-23T10:14:58.000Z</time>
      </trkpt>
      <trkpt lat="45.16589" lon="5.61955">
        <ele>1125</ele>
        <time>2021-04-23T10:14:59.000Z</time>
      </trkpt>
      <trkpt lat="45.1659" lon="5.61955">
        <ele>1125</ele>
        <time>2021-04-23T10:15:00.000Z</time>
      </trkpt>
      <trkpt lat="45.1659" lon="5.61954">
        <ele>1125</ele>
        <time>2021-04-23T10:15:01.000Z</time>
      </trkpt>
      <trkpt lat="45.16591" lon="5.61953">
        <ele>1125</ele>
        <time>2021-04-23T10:15:02.000Z</time>
      </trkpt>
      <trkpt lat="45.16591" lon="5.61951">
        <ele>1125.4</ele>
        <time>2021-04-23T10:15:05.000Z</time>
      </trkpt>
      <trkpt lat="45.16591" lon="5.61951">
        <ele>1125.4</ele>
        <time>2021-04-23T10:15:07.000Z</time>
      </trkpt>
      <trkpt lat="45.16592" lon="5.6195">
        <ele>1125.4</ele>
        <time>2021-04-23T10:15:08.000Z</time>
      </trkpt>
      <trkpt lat="45.16595" lon="5.61945">
        <ele>1125.4</ele>
        <time>2021-04-23T10:15:10.000Z</time>
      </trkpt>
      <trkpt lat="45.16598" lon="5.6194">
        <ele>1125.6</ele>
        <time>2021-04-23T10:15:12.000Z</time>
      </trkpt>
      <trkpt lat="45.16599" lon="5.61937">
        <ele>1125.8</ele>
        <time>2021-04-23T10:15:13.000Z</time>
      </trkpt>
      <trkpt lat="45.166" lon="5.61934">
        <ele>1125.8</ele>
        <time>2021-04-23T10:15:14.000Z</time>
      </trkpt>
      <trkpt lat="45.16602" lon="5.61927">
        <ele>1126</ele>
        <time>2021-04-23T10:15:17.000Z</time>
      </trkpt>
      <trkpt lat="45.16603" lon="5.61925">
        <ele>1126</ele>
        <time>2021-04-23T10:15:18.000Z</time>
      </trkpt>
      <trkpt lat="45.16606" lon="5.61923">
        <ele>1126.4</ele>
        <time>2021-04-23T10:15:20.000Z</time>
      </trkpt>
      <trkpt lat="45.16607" lon="5.61922">
        <ele>1126.6</ele>
        <time>2021-04-23T10:15:21.000Z</time>
      </trkpt>
      <trkpt lat="45.16609" lon="5.61923">
        <ele>1127</ele>
        <time>2021-04-23T10:15:23.000Z</time>
      </trkpt>
      <trkpt lat="45.1661" lon="5.61924">
        <ele>1127</ele>
        <time>2021-04-23T10:15:24.000Z</time>
      </trkpt>
      <trkpt lat="45.16611" lon="5.61924">
        <ele>1127</ele>
        <time>2021-04-23T10:15:25.000Z</time>
      </trkpt>
      <trkpt lat="45.16613" lon="5.61924">
        <ele>1127.2</ele>
        <time>2021-04-23T10:15:26.000Z</time>
      </trkpt>
      <trkpt lat="45.16615" lon="5.61925">
        <ele>1127.2</ele>
        <time>2021-04-23T10:15:27.000Z</time>
      </trkpt>
      <trkpt lat="45.16616" lon="5.61926">
        <ele>1127.4</ele>
        <time>2021-04-23T10:15:28.000Z</time>
      </trkpt>
      <trkpt lat="45.16622" lon="5.61929">
        <ele>1127.6</ele>
        <time>2021-04-23T10:15:31.000Z</time>
      </trkpt>
      <trkpt lat="45.16624" lon="5.6193">
        <ele>1127.6</ele>
        <time>2021-04-23T10:15:32.000Z</time>
      </trkpt>
      <trkpt lat="45.16629" lon="5.61932">
        <ele>1127.6</ele>
        <time>2021-04-23T10:15:35.000Z</time>
      </trkpt>
      <trkpt lat="45.16631" lon="5.61933">
        <ele>1127.6</ele>
        <time>2021-04-23T10:15:36.000Z</time>
      </trkpt>
      <trkpt lat="45.16633" lon="5.61935">
        <ele>1127.6</ele>
        <time>2021-04-23T10:15:37.000Z</time>
      </trkpt>
      <trkpt lat="45.16634" lon="5.61938">
        <ele>1127.8</ele>
        <time>2021-04-23T10:15:38.000Z</time>
      </trkpt>
      <trkpt lat="45.16634" lon="5.61942">
        <ele>1128</ele>
        <time>2021-04-23T10:15:39.000Z</time>
      </trkpt>
      <trkpt lat="45.16635" lon="5.61945">
        <ele>1128</ele>
        <time>2021-04-23T10:15:40.000Z</time>
      </trkpt>
      <trkpt lat="45.16635" lon="5.61947">
        <ele>1128.4</ele>
        <time>2021-04-23T10:15:41.000Z</time>
      </trkpt>
      <trkpt lat="45.16635" lon="5.61948">
        <ele>1128.6</ele>
        <time>2021-04-23T10:15:42.000Z</time>
      </trkpt>
      <trkpt lat="45.16635" lon="5.61949">
        <ele>1129</ele>
        <time>2021-04-23T10:15:43.000Z</time>
      </trkpt>
      <trkpt lat="45.16635" lon="5.61949">
        <ele>1129.2</ele>
        <time>2021-04-23T10:15:44.000Z</time>
      </trkpt>
      <trkpt lat="45.16635" lon="5.61949">
        <ele>1129.2</ele>
        <time>2021-04-23T10:15:45.000Z</time>
      </trkpt>
      <trkpt lat="45.16635" lon="5.61949">
        <ele>1129.2</ele>
        <time>2021-04-23T10:15:49.000Z</time>
      </trkpt>
      <trkpt lat="45.16635" lon="5.61949">
        <ele>1129.2</ele>
        <time>2021-04-23T10:15:51.000Z</time>
      </trkpt>
      <trkpt lat="45.16635" lon="5.61949">
        <ele>1129.2</ele>
        <time>2021-04-23T10:15:54.000Z</time>
      </trkpt>
      <trkpt lat="45.16635" lon="5.61949">
        <ele>1129</ele>
        <time>2021-04-23T10:15:57.000Z</time>
      </trkpt>
      <trkpt lat="45.16635" lon="5.61949">
        <ele>1129</ele>
        <time>2021-04-23T10:16:01.000Z</time>
      </trkpt>
      <trkpt lat="45.16636" lon="5.61949">
        <ele>1128.8</ele>
        <time>2021-04-23T10:16:05.000Z</time>
      </trkpt>
      <trkpt lat="45.16638" lon="5.6195">
        <ele>1128.8</ele>
        <time>2021-04-23T10:16:06.000Z</time>
      </trkpt>
      <trkpt lat="45.16645" lon="5.61952">
        <ele>1128.2</ele>
        <time>2021-04-23T10:16:09.000Z</time>
      </trkpt>
      <trkpt lat="45.16648" lon="5.61953">
        <ele>1127.6</ele>
        <time>2021-04-23T10:16:10.000Z</time>
      </trkpt>
      <trkpt lat="45.16655" lon="5.61957">
        <ele>1126.2</ele>
        <time>2021-04-23T10:16:12.000Z</time>
      </trkpt>
      <trkpt lat="45.1666" lon="5.61961">
        <ele>1125</ele>
        <time>2021-04-23T10:16:13.000Z</time>
      </trkpt>
      <trkpt lat="45.16671" lon="5.6197">
        <ele>1124.2</ele>
        <time>2021-04-23T10:16:15.000Z</time>
      </trkpt>
      <trkpt lat="45.16675" lon="5.61974">
        <ele>1124</ele>
        <time>2021-04-23T10:16:16.000Z</time>
      </trkpt>
      <trkpt lat="45.16677" lon="5.61979">
        <ele>1123.8</ele>
        <time>2021-04-23T10:16:17.000Z</time>
      </trkpt>
      <trkpt lat="45.16679" lon="5.61984">
        <ele>1123.8</ele>
        <time>2021-04-23T10:16:18.000Z</time>
      </trkpt>
      <trkpt lat="45.16681" lon="5.61989">
        <ele>1124</ele>
        <time>2021-04-23T10:16:19.000Z</time>
      </trkpt>
      <trkpt lat="45.16682" lon="5.61995">
        <ele>1124</ele>
        <time>2021-04-23T10:16:20.000Z</time>
      </trkpt>
      <trkpt lat="45.16683" lon="5.62001">
        <ele>1124.4</ele>
        <time>2021-04-23T10:16:21.000Z</time>
      </trkpt>
      <trkpt lat="45.16684" lon="5.62006">
        <ele>1124.8</ele>
        <time>2021-04-23T10:16:22.000Z</time>
      </trkpt>
      <trkpt lat="45.16686" lon="5.6201">
        <ele>1125.4</ele>
        <time>2021-04-23T10:16:23.000Z</time>
      </trkpt>
      <trkpt lat="45.16687" lon="5.62014">
        <ele>1126</ele>
        <time>2021-04-23T10:16:24.000Z</time>
      </trkpt>
      <trkpt lat="45.16689" lon="5.62016">
        <ele>1126.6</ele>
        <time>2021-04-23T10:16:25.000Z</time>
      </trkpt>
      <trkpt lat="45.1669" lon="5.62018">
        <ele>1126.8</ele>
        <time>2021-04-23T10:16:26.000Z</time>
      </trkpt>
      <trkpt lat="45.16691" lon="5.6202">
        <ele>1127</ele>
        <time>2021-04-23T10:16:27.000Z</time>
      </trkpt>
      <trkpt lat="45.16691" lon="5.62022">
        <ele>1127.2</ele>
        <time>2021-04-23T10:16:28.000Z</time>
      </trkpt>
      <trkpt lat="45.16692" lon="5.62024">
        <ele>1127.2</ele>
        <time>2021-04-23T10:16:29.000Z</time>
      </trkpt>
      <trkpt lat="45.16693" lon="5.62025">
        <ele>1127.4</ele>
        <time>2021-04-23T10:16:30.000Z</time>
      </trkpt>
      <trkpt lat="45.16695" lon="5.62026">
        <ele>1127.4</ele>
        <time>2021-04-23T10:16:31.000Z</time>
      </trkpt>
      <trkpt lat="45.16698" lon="5.62028">
        <ele>1127.6</ele>
        <time>2021-04-23T10:16:32.000Z</time>
      </trkpt>
      <trkpt lat="45.167" lon="5.62032">
        <ele>1127.8</ele>
        <time>2021-04-23T10:16:33.000Z</time>
      </trkpt>
      <trkpt lat="45.16704" lon="5.62039">
        <ele>1128</ele>
        <time>2021-04-23T10:16:35.000Z</time>
      </trkpt>
      <trkpt lat="45.16706" lon="5.6204">
        <ele>1128</ele>
        <time>2021-04-23T10:16:36.000Z</time>
      </trkpt>
      <trkpt lat="45.16707" lon="5.62042">
        <ele>1128.2</ele>
        <time>2021-04-23T10:16:37.000Z</time>
      </trkpt>
      <trkpt lat="45.16709" lon="5.62043">
        <ele>1128.4</ele>
        <time>2021-04-23T10:16:38.000Z</time>
      </trkpt>
      <trkpt lat="45.1671" lon="5.62045">
        <ele>1128.6</ele>
        <time>2021-04-23T10:16:39.000Z</time>
      </trkpt>
      <trkpt lat="45.16712" lon="5.62045">
        <ele>1128.8</ele>
        <time>2021-04-23T10:16:40.000Z</time>
      </trkpt>
      <trkpt lat="45.16713" lon="5.62045">
        <ele>1129</ele>
        <time>2021-04-23T10:16:41.000Z</time>
      </trkpt>
      <trkpt lat="45.16714" lon="5.62045">
        <ele>1129.2</ele>
        <time>2021-04-23T10:16:42.000Z</time>
      </trkpt>
      <trkpt lat="45.16715" lon="5.62044">
        <ele>1129.4</ele>
        <time>2021-04-23T10:16:43.000Z</time>
      </trkpt>
      <trkpt lat="45.16716" lon="5.62044">
        <ele>1129.6</ele>
        <time>2021-04-23T10:16:44.000Z</time>
      </trkpt>
      <trkpt lat="45.16717" lon="5.62043">
        <ele>1129.6</ele>
        <time>2021-04-23T10:16:45.000Z</time>
      </trkpt>
      <trkpt lat="45.16718" lon="5.62041">
        <ele>1129.8</ele>
        <time>2021-04-23T10:16:46.000Z</time>
      </trkpt>
      <trkpt lat="45.16719" lon="5.6204">
        <ele>1130.2</ele>
        <time>2021-04-23T10:16:47.000Z</time>
      </trkpt>
      <trkpt lat="45.16721" lon="5.62038">
        <ele>1130.4</ele>
        <time>2021-04-23T10:16:48.000Z</time>
      </trkpt>
      <trkpt lat="45.16723" lon="5.62037">
        <ele>1130.8</ele>
        <time>2021-04-23T10:16:49.000Z</time>
      </trkpt>
      <trkpt lat="45.16724" lon="5.62037">
        <ele>1131.4</ele>
        <time>2021-04-23T10:16:50.000Z</time>
      </trkpt>
      <trkpt lat="45.16726" lon="5.62036">
        <ele>1131.6</ele>
        <time>2021-04-23T10:16:51.000Z</time>
      </trkpt>
      <trkpt lat="45.16726" lon="5.62035">
        <ele>1131.8</ele>
        <time>2021-04-23T10:16:52.000Z</time>
      </trkpt>
      <trkpt lat="45.16727" lon="5.62034">
        <ele>1132.6</ele>
        <time>2021-04-23T10:16:53.000Z</time>
      </trkpt>
      <trkpt lat="45.16728" lon="5.62032">
        <ele>1133.6</ele>
        <time>2021-04-23T10:16:54.000Z</time>
      </trkpt>
      <trkpt lat="45.16729" lon="5.62031">
        <ele>1134</ele>
        <time>2021-04-23T10:16:55.000Z</time>
      </trkpt>
      <trkpt lat="45.1673" lon="5.62029">
        <ele>1134.2</ele>
        <time>2021-04-23T10:16:56.000Z</time>
      </trkpt>
      <trkpt lat="45.1673" lon="5.62028">
        <ele>1134.6</ele>
        <time>2021-04-23T10:16:57.000Z</time>
      </trkpt>
      <trkpt lat="45.16731" lon="5.62026">
        <ele>1134.8</ele>
        <time>2021-04-23T10:16:58.000Z</time>
      </trkpt>
      <trkpt lat="45.16731" lon="5.62023">
        <ele>1135.2</ele>
        <time>2021-04-23T10:16:59.000Z</time>
      </trkpt>
      <trkpt lat="45.16732" lon="5.62022">
        <ele>1135.4</ele>
        <time>2021-04-23T10:17:00.000Z</time>
      </trkpt>
      <trkpt lat="45.16732" lon="5.6202">
        <ele>1135.6</ele>
        <time>2021-04-23T10:17:01.000Z</time>
      </trkpt>
      <trkpt lat="45.16733" lon="5.62018">
        <ele>1135.8</ele>
        <time>2021-04-23T10:17:02.000Z</time>
      </trkpt>
      <trkpt lat="45.16733" lon="5.62016">
        <ele>1136.2</ele>
        <time>2021-04-23T10:17:03.000Z</time>
      </trkpt>
      <trkpt lat="45.16734" lon="5.62015">
        <ele>1136.6</ele>
        <time>2021-04-23T10:17:04.000Z</time>
      </trkpt>
      <trkpt lat="45.16734" lon="5.62015">
        <ele>1136.8</ele>
        <time>2021-04-23T10:17:05.000Z</time>
      </trkpt>
      <trkpt lat="45.16735" lon="5.62014">
        <ele>1136.8</ele>
        <time>2021-04-23T10:17:06.000Z</time>
      </trkpt>
      <trkpt lat="45.16736" lon="5.62013">
        <ele>1137</ele>
        <time>2021-04-23T10:17:07.000Z</time>
      </trkpt>
      <trkpt lat="45.16736" lon="5.62011">
        <ele>1137.2</ele>
        <time>2021-04-23T10:17:08.000Z</time>
      </trkpt>
      <trkpt lat="45.16736" lon="5.6201">
        <ele>1137.2</ele>
        <time>2021-04-23T10:17:09.000Z</time>
      </trkpt>
      <trkpt lat="45.16737" lon="5.62008">
        <ele>1137.2</ele>
        <time>2021-04-23T10:17:10.000Z</time>
      </trkpt>
      <trkpt lat="45.16736" lon="5.62007">
        <ele>1137.4</ele>
        <time>2021-04-23T10:17:11.000Z</time>
      </trkpt>
      <trkpt lat="45.16736" lon="5.62004">
        <ele>1137.4</ele>
        <time>2021-04-23T10:17:12.000Z</time>
      </trkpt>
      <trkpt lat="45.16736" lon="5.62001">
        <ele>1137.4</ele>
        <time>2021-04-23T10:17:13.000Z</time>
      </trkpt>
      <trkpt lat="45.16735" lon="5.61999">
        <ele>1137.4</ele>
        <time>2021-04-23T10:17:14.000Z</time>
      </trkpt>
      <trkpt lat="45.16735" lon="5.61997">
        <ele>1137.4</ele>
        <time>2021-04-23T10:17:15.000Z</time>
      </trkpt>
      <trkpt lat="45.16734" lon="5.61995">
        <ele>1137.4</ele>
        <time>2021-04-23T10:17:16.000Z</time>
      </trkpt>
      <trkpt lat="45.16735" lon="5.61993">
        <ele>1137.6</ele>
        <time>2021-04-23T10:17:17.000Z</time>
      </trkpt>
      <trkpt lat="45.16735" lon="5.6199">
        <ele>1137.6</ele>
        <time>2021-04-23T10:17:18.000Z</time>
      </trkpt>
      <trkpt lat="45.16735" lon="5.61987">
        <ele>1137.8</ele>
        <time>2021-04-23T10:17:19.000Z</time>
      </trkpt>
      <trkpt lat="45.16736" lon="5.61985">
        <ele>1137.8</ele>
        <time>2021-04-23T10:17:20.000Z</time>
      </trkpt>
      <trkpt lat="45.16736" lon="5.61983">
        <ele>1138</ele>
        <time>2021-04-23T10:17:21.000Z</time>
      </trkpt>
      <trkpt lat="45.16737" lon="5.61981">
        <ele>1138.2</ele>
        <time>2021-04-23T10:17:22.000Z</time>
      </trkpt>
      <trkpt lat="45.16738" lon="5.61979">
        <ele>1138.2</ele>
        <time>2021-04-23T10:17:23.000Z</time>
      </trkpt>
      <trkpt lat="45.16738" lon="5.61976">
        <ele>1138.4</ele>
        <time>2021-04-23T10:17:24.000Z</time>
      </trkpt>
      <trkpt lat="45.1674" lon="5.61974">
        <ele>1138.6</ele>
        <time>2021-04-23T10:17:25.000Z</time>
      </trkpt>
      <trkpt lat="45.16741" lon="5.61973">
        <ele>1138.6</ele>
        <time>2021-04-23T10:17:26.000Z</time>
      </trkpt>
      <trkpt lat="45.16742" lon="5.61972">
        <ele>1139.2</ele>
        <time>2021-04-23T10:17:27.000Z</time>
      </trkpt>
      <trkpt lat="45.16744" lon="5.61973">
        <ele>1139.4</ele>
        <time>2021-04-23T10:17:28.000Z</time>
      </trkpt>
      <trkpt lat="45.16745" lon="5.61974">
        <ele>1140</ele>
        <time>2021-04-23T10:17:29.000Z</time>
      </trkpt>
      <trkpt lat="45.16745" lon="5.61975">
        <ele>1140.2</ele>
        <time>2021-04-23T10:17:30.000Z</time>
      </trkpt>
      <trkpt lat="45.16746" lon="5.61977">
        <ele>1140.4</ele>
        <time>2021-04-23T10:17:31.000Z</time>
      </trkpt>
      <trkpt lat="45.16748" lon="5.61978">
        <ele>1140.6</ele>
        <time>2021-04-23T10:17:32.000Z</time>
      </trkpt>
      <trkpt lat="45.16749" lon="5.61979">
        <ele>1140.6</ele>
        <time>2021-04-23T10:17:33.000Z</time>
      </trkpt>
      <trkpt lat="45.16751" lon="5.6198">
        <ele>1140.8</ele>
        <time>2021-04-23T10:17:34.000Z</time>
      </trkpt>
      <trkpt lat="45.16752" lon="5.61982">
        <ele>1141</ele>
        <time>2021-04-23T10:17:35.000Z</time>
      </trkpt>
      <trkpt lat="45.16753" lon="5.61984">
        <ele>1141</ele>
        <time>2021-04-23T10:17:36.000Z</time>
      </trkpt>
      <trkpt lat="45.16754" lon="5.61985">
        <ele>1141.2</ele>
        <time>2021-04-23T10:17:37.000Z</time>
      </trkpt>
      <trkpt lat="45.16755" lon="5.61987">
        <ele>1141.4</ele>
        <time>2021-04-23T10:17:38.000Z</time>
      </trkpt>
      <trkpt lat="45.16756" lon="5.61989">
        <ele>1141.4</ele>
        <time>2021-04-23T10:17:39.000Z</time>
      </trkpt>
      <trkpt lat="45.16757" lon="5.6199">
        <ele>1141.6</ele>
        <time>2021-04-23T10:17:40.000Z</time>
      </trkpt>
      <trkpt lat="45.16759" lon="5.61991">
        <ele>1141.8</ele>
        <time>2021-04-23T10:17:41.000Z</time>
      </trkpt>
      <trkpt lat="45.1676" lon="5.61992">
        <ele>1142</ele>
        <time>2021-04-23T10:17:42.000Z</time>
      </trkpt>
      <trkpt lat="45.16762" lon="5.61993">
        <ele>1142</ele>
        <time>2021-04-23T10:17:43.000Z</time>
      </trkpt>
      <trkpt lat="45.16763" lon="5.61993">
        <ele>1142.2</ele>
        <time>2021-04-23T10:17:44.000Z</time>
      </trkpt>
      <trkpt lat="45.16765" lon="5.61994">
        <ele>1142.4</ele>
        <time>2021-04-23T10:17:45.000Z</time>
      </trkpt>
      <trkpt lat="45.16767" lon="5.61995">
        <ele>1142.6</ele>
        <time>2021-04-23T10:17:46.000Z</time>
      </trkpt>
      <trkpt lat="45.16769" lon="5.61995">
        <ele>1142.8</ele>
        <time>2021-04-23T10:17:47.000Z</time>
      </trkpt>
      <trkpt lat="45.16771" lon="5.61995">
        <ele>1142.8</ele>
        <time>2021-04-23T10:17:48.000Z</time>
      </trkpt>
      <trkpt lat="45.16773" lon="5.61996">
        <ele>1143</ele>
        <time>2021-04-23T10:17:49.000Z</time>
      </trkpt>
      <trkpt lat="45.16774" lon="5.61996">
        <ele>1143.2</ele>
        <time>2021-04-23T10:17:50.000Z</time>
      </trkpt>
      <trkpt lat="45.16776" lon="5.61997">
        <ele>1143.4</ele>
        <time>2021-04-23T10:17:51.000Z</time>
      </trkpt>
      <trkpt lat="45.16777" lon="5.61998">
        <ele>1143.6</ele>
        <time>2021-04-23T10:17:52.000Z</time>
      </trkpt>
      <trkpt lat="45.16779" lon="5.61999">
        <ele>1143.6</ele>
        <time>2021-04-23T10:17:53.000Z</time>
      </trkpt>
      <trkpt lat="45.16781" lon="5.61999">
        <ele>1143.6</ele>
        <time>2021-04-23T10:17:54.000Z</time>
      </trkpt>
      <trkpt lat="45.16782" lon="5.61999">
        <ele>1144</ele>
        <time>2021-04-23T10:17:55.000Z</time>
      </trkpt>
      <trkpt lat="45.16784" lon="5.61999">
        <ele>1144</ele>
        <time>2021-04-23T10:17:56.000Z</time>
      </trkpt>
      <trkpt lat="45.16785" lon="5.61997">
        <ele>1144.2</ele>
        <time>2021-04-23T10:17:57.000Z</time>
      </trkpt>
      <trkpt lat="45.16786" lon="5.61996">
        <ele>1144.4</ele>
        <time>2021-04-23T10:17:58.000Z</time>
      </trkpt>
      <trkpt lat="45.16787" lon="5.61995">
        <ele>1144.8</ele>
        <time>2021-04-23T10:17:59.000Z</time>
      </trkpt>
      <trkpt lat="45.16789" lon="5.61994">
        <ele>1145</ele>
        <time>2021-04-23T10:18:00.000Z</time>
      </trkpt>
      <trkpt lat="45.1679" lon="5.61992">
        <ele>1145.2</ele>
        <time>2021-04-23T10:18:01.000Z</time>
      </trkpt>
      <trkpt lat="45.16792" lon="5.61991">
        <ele>1145.4</ele>
        <time>2021-04-23T10:18:02.000Z</time>
      </trkpt>
      <trkpt lat="45.16793" lon="5.6199">
        <ele>1145.6</ele>
        <time>2021-04-23T10:18:03.000Z</time>
      </trkpt>
      <trkpt lat="45.16795" lon="5.6199">
        <ele>1145.8</ele>
        <time>2021-04-23T10:18:04.000Z</time>
      </trkpt>
      <trkpt lat="45.16797" lon="5.6199">
        <ele>1146</ele>
        <time>2021-04-23T10:18:05.000Z</time>
      </trkpt>
      <trkpt lat="45.16798" lon="5.61989">
        <ele>1146.2</ele>
        <time>2021-04-23T10:18:06.000Z</time>
      </trkpt>
      <trkpt lat="45.168" lon="5.6199">
        <ele>1146.4</ele>
        <time>2021-04-23T10:18:07.000Z</time>
      </trkpt>
      <trkpt lat="45.16801" lon="5.61991">
        <ele>1146.4</ele>
        <time>2021-04-23T10:18:08.000Z</time>
      </trkpt>
      <trkpt lat="45.16802" lon="5.61992">
        <ele>1146.6</ele>
        <time>2021-04-23T10:18:09.000Z</time>
      </trkpt>
      <trkpt lat="45.16804" lon="5.61993">
        <ele>1146.8</ele>
        <time>2021-04-23T10:18:10.000Z</time>
      </trkpt>
      <trkpt lat="45.16806" lon="5.61995">
        <ele>1146.8</ele>
        <time>2021-04-23T10:18:11.000Z</time>
      </trkpt>
      <trkpt lat="45.16808" lon="5.61996">
        <ele>1146.8</ele>
        <time>2021-04-23T10:18:12.000Z</time>
      </trkpt>
      <trkpt lat="45.16809" lon="5.61998">
        <ele>1146.8</ele>
        <time>2021-04-23T10:18:13.000Z</time>
      </trkpt>
      <trkpt lat="45.16811" lon="5.61999">
        <ele>1146.8</ele>
        <time>2021-04-23T10:18:14.000Z</time>
      </trkpt>
      <trkpt lat="45.16813" lon="5.62001">
        <ele>1147</ele>
        <time>2021-04-23T10:18:15.000Z</time>
      </trkpt>
      <trkpt lat="45.16815" lon="5.62002">
        <ele>1147</ele>
        <time>2021-04-23T10:18:16.000Z</time>
      </trkpt>
      <trkpt lat="45.16817" lon="5.62003">
        <ele>1147</ele>
        <time>2021-04-23T10:18:17.000Z</time>
      </trkpt>
      <trkpt lat="45.16819" lon="5.62003">
        <ele>1147</ele>
        <time>2021-04-23T10:18:18.000Z</time>
      </trkpt>
      <trkpt lat="45.16821" lon="5.62004">
        <ele>1147</ele>
        <time>2021-04-23T10:18:19.000Z</time>
      </trkpt>
      <trkpt lat="45.16823" lon="5.62006">
        <ele>1147</ele>
        <time>2021-04-23T10:18:20.000Z</time>
      </trkpt>
      <trkpt lat="45.16825" lon="5.62007">
        <ele>1147</ele>
        <time>2021-04-23T10:18:21.000Z</time>
      </trkpt>
      <trkpt lat="45.16826" lon="5.62008">
        <ele>1147.2</ele>
        <time>2021-04-23T10:18:22.000Z</time>
      </trkpt>
      <trkpt lat="45.16828" lon="5.62009">
        <ele>1147.2</ele>
        <time>2021-04-23T10:18:23.000Z</time>
      </trkpt>
      <trkpt lat="45.16829" lon="5.62011">
        <ele>1147.2</ele>
        <time>2021-04-23T10:18:24.000Z</time>
      </trkpt>
      <trkpt lat="45.16831" lon="5.62014">
        <ele>1147.2</ele>
        <time>2021-04-23T10:18:25.000Z</time>
      </trkpt>
      <trkpt lat="45.16833" lon="5.62017">
        <ele>1147</ele>
        <time>2021-04-23T10:18:26.000Z</time>
      </trkpt>
      <trkpt lat="45.16844" lon="5.62031">
        <ele>1146.8</ele>
        <time>2021-04-23T10:18:32.000Z</time>
      </trkpt>
      <trkpt lat="45.16853" lon="5.62038">
        <ele>1146.8</ele>
        <time>2021-04-23T10:18:36.000Z</time>
      </trkpt>
      <trkpt lat="45.16856" lon="5.6204">
        <ele>1146.6</ele>
        <time>2021-04-23T10:18:37.000Z</time>
      </trkpt>
      <trkpt lat="45.16861" lon="5.62043">
        <ele>1146.4</ele>
        <time>2021-04-23T10:18:39.000Z</time>
      </trkpt>
      <trkpt lat="45.16866" lon="5.62045">
        <ele>1146</ele>
        <time>2021-04-23T10:18:41.000Z</time>
      </trkpt>
      <trkpt lat="45.16879" lon="5.62053">
        <ele>1145.4</ele>
        <time>2021-04-23T10:18:45.000Z</time>
      </trkpt>
      <trkpt lat="45.16882" lon="5.62055">
        <ele>1145.2</ele>
        <time>2021-04-23T10:18:46.000Z</time>
      </trkpt>
      <trkpt lat="45.1689" lon="5.62061">
        <ele>1145</ele>
        <time>2021-04-23T10:18:48.000Z</time>
      </trkpt>
      <trkpt lat="45.16902" lon="5.62068">
        <ele>1144.2</ele>
        <time>2021-04-23T10:18:51.000Z</time>
      </trkpt>
      <trkpt lat="45.16914" lon="5.62075">
        <ele>1143.4</ele>
        <time>2021-04-23T10:18:54.000Z</time>
      </trkpt>
      <trkpt lat="45.16918" lon="5.62079">
        <ele>1143</ele>
        <time>2021-04-23T10:18:55.000Z</time>
      </trkpt>
      <trkpt lat="45.16927" lon="5.62086">
        <ele>1141.8</ele>
        <time>2021-04-23T10:18:57.000Z</time>
      </trkpt>
      <trkpt lat="45.16932" lon="5.62089">
        <ele>1141.2</ele>
        <time>2021-04-23T10:18:58.000Z</time>
      </trkpt>
      <trkpt lat="45.16939" lon="5.62092">
        <ele>1140.6</ele>
        <time>2021-04-23T10:18:59.000Z</time>
      </trkpt>
      <trkpt lat="45.16951" lon="5.62098">
        <ele>1138.6</ele>
        <time>2021-04-23T10:19:01.000Z</time>
      </trkpt>
      <trkpt lat="45.16957" lon="5.62102">
        <ele>1137.2</ele>
        <time>2021-04-23T10:19:02.000Z</time>
      </trkpt>
      <trkpt lat="45.16966" lon="5.62108">
        <ele>1135.6</ele>
        <time>2021-04-23T10:19:03.000Z</time>
      </trkpt>
      <trkpt lat="45.16975" lon="5.62113">
        <ele>1134.4</ele>
        <time>2021-04-23T10:19:04.000Z</time>
      </trkpt>
      <trkpt lat="45.16996" lon="5.62127">
        <ele>1133.2</ele>
        <time>2021-04-23T10:19:07.000Z</time>
      </trkpt>
      <trkpt lat="45.17001" lon="5.62131">
        <ele>1133.6</ele>
        <time>2021-04-23T10:19:08.000Z</time>
      </trkpt>
      <trkpt lat="45.17004" lon="5.62134">
        <ele>1135.4</ele>
        <time>2021-04-23T10:19:09.000Z</time>
      </trkpt>
      <trkpt lat="45.17007" lon="5.62135">
        <ele>1136.6</ele>
        <time>2021-04-23T10:19:10.000Z</time>
      </trkpt>
      <trkpt lat="45.17009" lon="5.62135">
        <ele>1137.8</ele>
        <time>2021-04-23T10:19:11.000Z</time>
      </trkpt>
      <trkpt lat="45.17011" lon="5.62135">
        <ele>1139</ele>
        <time>2021-04-23T10:19:12.000Z</time>
      </trkpt>
      <trkpt lat="45.17013" lon="5.62136">
        <ele>1139.6</ele>
        <time>2021-04-23T10:19:13.000Z</time>
      </trkpt>
      <trkpt lat="45.17015" lon="5.62137">
        <ele>1140.2</ele>
        <time>2021-04-23T10:19:14.000Z</time>
      </trkpt>
      <trkpt lat="45.17019" lon="5.62139">
        <ele>1141.4</ele>
        <time>2021-04-23T10:19:16.000Z</time>
      </trkpt>
      <trkpt lat="45.17021" lon="5.62139">
        <ele>1141.8</ele>
        <time>2021-04-23T10:19:17.000Z</time>
      </trkpt>
      <trkpt lat="45.17023" lon="5.6214">
        <ele>1142</ele>
        <time>2021-04-23T10:19:18.000Z</time>
      </trkpt>
      <trkpt lat="45.17033" lon="5.62142">
        <ele>1142.6</ele>
        <time>2021-04-23T10:19:22.000Z</time>
      </trkpt>
      <trkpt lat="45.17037" lon="5.62144">
        <ele>1143</ele>
        <time>2021-04-23T10:19:24.000Z</time>
      </trkpt>
      <trkpt lat="45.17038" lon="5.62144">
        <ele>1143.2</ele>
        <time>2021-04-23T10:19:25.000Z</time>
      </trkpt>
      <trkpt lat="45.17041" lon="5.62145">
        <ele>1143.4</ele>
        <time>2021-04-23T10:19:26.000Z</time>
      </trkpt>
      <trkpt lat="45.17044" lon="5.62145">
        <ele>1143.8</ele>
        <time>2021-04-23T10:19:27.000Z</time>
      </trkpt>
      <trkpt lat="45.17045" lon="5.62146">
        <ele>1144</ele>
        <time>2021-04-23T10:19:28.000Z</time>
      </trkpt>
      <trkpt lat="45.17047" lon="5.62146">
        <ele>1144</ele>
        <time>2021-04-23T10:19:29.000Z</time>
      </trkpt>
      <trkpt lat="45.17049" lon="5.62147">
        <ele>1144.2</ele>
        <time>2021-04-23T10:19:30.000Z</time>
      </trkpt>
      <trkpt lat="45.17052" lon="5.62148">
        <ele>1144.6</ele>
        <time>2021-04-23T10:19:31.000Z</time>
      </trkpt>
      <trkpt lat="45.17054" lon="5.62149">
        <ele>1144.8</ele>
        <time>2021-04-23T10:19:32.000Z</time>
      </trkpt>
      <trkpt lat="45.17056" lon="5.62149">
        <ele>1145</ele>
        <time>2021-04-23T10:19:33.000Z</time>
      </trkpt>
      <trkpt lat="45.17057" lon="5.6215">
        <ele>1145.4</ele>
        <time>2021-04-23T10:19:34.000Z</time>
      </trkpt>
      <trkpt lat="45.17059" lon="5.6215">
        <ele>1145.6</ele>
        <time>2021-04-23T10:19:35.000Z</time>
      </trkpt>
      <trkpt lat="45.17061" lon="5.62151">
        <ele>1145.8</ele>
        <time>2021-04-23T10:19:36.000Z</time>
      </trkpt>
      <trkpt lat="45.17063" lon="5.62152">
        <ele>1145.8</ele>
        <time>2021-04-23T10:19:37.000Z</time>
      </trkpt>
      <trkpt lat="45.17065" lon="5.62153">
        <ele>1146</ele>
        <time>2021-04-23T10:19:38.000Z</time>
      </trkpt>
      <trkpt lat="45.17066" lon="5.62154">
        <ele>1146.2</ele>
        <time>2021-04-23T10:19:39.000Z</time>
      </trkpt>
      <trkpt lat="45.17068" lon="5.62155">
        <ele>1146.4</ele>
        <time>2021-04-23T10:19:40.000Z</time>
      </trkpt>
      <trkpt lat="45.17069" lon="5.62156">
        <ele>1146.4</ele>
        <time>2021-04-23T10:19:41.000Z</time>
      </trkpt>
      <trkpt lat="45.17071" lon="5.62157">
        <ele>1146.6</ele>
        <time>2021-04-23T10:19:42.000Z</time>
      </trkpt>
      <trkpt lat="45.17073" lon="5.62158">
        <ele>1146.8</ele>
        <time>2021-04-23T10:19:43.000Z</time>
      </trkpt>
      <trkpt lat="45.17075" lon="5.62158">
        <ele>1147</ele>
        <time>2021-04-23T10:19:44.000Z</time>
      </trkpt>
      <trkpt lat="45.17076" lon="5.62157">
        <ele>1147</ele>
        <time>2021-04-23T10:19:45.000Z</time>
      </trkpt>
      <trkpt lat="45.17077" lon="5.62157">
        <ele>1147</ele>
        <time>2021-04-23T10:19:46.000Z</time>
      </trkpt>
      <trkpt lat="45.17078" lon="5.62155">
        <ele>1147.2</ele>
        <time>2021-04-23T10:19:47.000Z</time>
      </trkpt>
      <trkpt lat="45.1708" lon="5.62152">
        <ele>1147.2</ele>
        <time>2021-04-23T10:19:48.000Z</time>
      </trkpt>
      <trkpt lat="45.17082" lon="5.6215">
        <ele>1147</ele>
        <time>2021-04-23T10:19:49.000Z</time>
      </trkpt>
      <trkpt lat="45.17083" lon="5.62148">
        <ele>1147</ele>
        <time>2021-04-23T10:19:50.000Z</time>
      </trkpt>
      <trkpt lat="45.17085" lon="5.62145">
        <ele>1146.8</ele>
        <time>2021-04-23T10:19:51.000Z</time>
      </trkpt>
      <trkpt lat="45.17087" lon="5.62144">
        <ele>1146.8</ele>
        <time>2021-04-23T10:19:52.000Z</time>
      </trkpt>
      <trkpt lat="45.17089" lon="5.62142">
        <ele>1146.8</ele>
        <time>2021-04-23T10:19:53.000Z</time>
      </trkpt>
      <trkpt lat="45.17091" lon="5.6214">
        <ele>1146.8</ele>
        <time>2021-04-23T10:19:54.000Z</time>
      </trkpt>
      <trkpt lat="45.17093" lon="5.62139">
        <ele>1146.8</ele>
        <time>2021-04-23T10:19:55.000Z</time>
      </trkpt>
      <trkpt lat="45.17097" lon="5.62138">
        <ele>1146.8</ele>
        <time>2021-04-23T10:19:56.000Z</time>
      </trkpt>
      <trkpt lat="45.171" lon="5.62137">
        <ele>1146.8</ele>
        <time>2021-04-23T10:19:57.000Z</time>
      </trkpt>
      <trkpt lat="45.17103" lon="5.62136">
        <ele>1146.8</ele>
        <time>2021-04-23T10:19:58.000Z</time>
      </trkpt>
      <trkpt lat="45.17106" lon="5.62136">
        <ele>1146.8</ele>
        <time>2021-04-23T10:19:59.000Z</time>
      </trkpt>
      <trkpt lat="45.17108" lon="5.62136">
        <ele>1146.8</ele>
        <time>2021-04-23T10:20:00.000Z</time>
      </trkpt>
      <trkpt lat="45.1711" lon="5.62135">
        <ele>1146.8</ele>
        <time>2021-04-23T10:20:01.000Z</time>
      </trkpt>
      <trkpt lat="45.1712" lon="5.62135">
        <ele>1146.6</ele>
        <time>2021-04-23T10:20:05.000Z</time>
      </trkpt>
      <trkpt lat="45.17133" lon="5.62139">
        <ele>1146.2</ele>
        <time>2021-04-23T10:20:09.000Z</time>
      </trkpt>
      <trkpt lat="45.17137" lon="5.62139">
        <ele>1146</ele>
        <time>2021-04-23T10:20:10.000Z</time>
      </trkpt>
      <trkpt lat="45.17141" lon="5.62139">
        <ele>1145.8</ele>
        <time>2021-04-23T10:20:11.000Z</time>
      </trkpt>
      <trkpt lat="45.17156" lon="5.62148">
        <ele>1145.4</ele>
        <time>2021-04-23T10:20:15.000Z</time>
      </trkpt>
      <trkpt lat="45.17158" lon="5.6215">
        <ele>1145.2</ele>
        <time>2021-04-23T10:20:16.000Z</time>
      </trkpt>
      <trkpt lat="45.17161" lon="5.62153">
        <ele>1145.2</ele>
        <time>2021-04-23T10:20:17.000Z</time>
      </trkpt>
      <trkpt lat="45.17163" lon="5.62156">
        <ele>1145.2</ele>
        <time>2021-04-23T10:20:18.000Z</time>
      </trkpt>
      <trkpt lat="45.17166" lon="5.62158">
        <ele>1145</ele>
        <time>2021-04-23T10:20:19.000Z</time>
      </trkpt>
      <trkpt lat="45.17169" lon="5.6216">
        <ele>1145</ele>
        <time>2021-04-23T10:20:20.000Z</time>
      </trkpt>
      <trkpt lat="45.17174" lon="5.62164">
        <ele>1144.8</ele>
        <time>2021-04-23T10:20:21.000Z</time>
      </trkpt>
      <trkpt lat="45.17184" lon="5.62175">
        <ele>1144.4</ele>
        <time>2021-04-23T10:20:24.000Z</time>
      </trkpt>
      <trkpt lat="45.17187" lon="5.6218">
        <ele>1144.2</ele>
        <time>2021-04-23T10:20:25.000Z</time>
      </trkpt>
      <trkpt lat="45.17189" lon="5.62184">
        <ele>1144</ele>
        <time>2021-04-23T10:20:26.000Z</time>
      </trkpt>
      <trkpt lat="45.1719" lon="5.62188">
        <ele>1144</ele>
        <time>2021-04-23T10:20:27.000Z</time>
      </trkpt>
      <trkpt lat="45.17192" lon="5.62192">
        <ele>1143.8</ele>
        <time>2021-04-23T10:20:28.000Z</time>
      </trkpt>
      <trkpt lat="45.17193" lon="5.62196">
        <ele>1144</ele>
        <time>2021-04-23T10:20:29.000Z</time>
      </trkpt>
      <trkpt lat="45.17195" lon="5.62202">
        <ele>1143.8</ele>
        <time>2021-04-23T10:20:30.000Z</time>
      </trkpt>
      <trkpt lat="45.17197" lon="5.62211">
        <ele>1143.8</ele>
        <time>2021-04-23T10:20:32.000Z</time>
      </trkpt>
      <trkpt lat="45.17198" lon="5.62215">
        <ele>1143.4</ele>
        <time>2021-04-23T10:20:33.000Z</time>
      </trkpt>
      <trkpt lat="45.172" lon="5.62221">
        <ele>1143.2</ele>
        <time>2021-04-23T10:20:34.000Z</time>
      </trkpt>
      <trkpt lat="45.17203" lon="5.62228">
        <ele>1142.4</ele>
        <time>2021-04-23T10:20:35.000Z</time>
      </trkpt>
      <trkpt lat="45.17207" lon="5.62235">
        <ele>1141</ele>
        <time>2021-04-23T10:20:36.000Z</time>
      </trkpt>
      <trkpt lat="45.17214" lon="5.62241">
        <ele>1140</ele>
        <time>2021-04-23T10:20:37.000Z</time>
      </trkpt>
      <trkpt lat="45.1722" lon="5.62245">
        <ele>1139.4</ele>
        <time>2021-04-23T10:20:38.000Z</time>
      </trkpt>
      <trkpt lat="45.17224" lon="5.62247">
        <ele>1139.2</ele>
        <time>2021-04-23T10:20:39.000Z</time>
      </trkpt>
      <trkpt lat="45.1723" lon="5.62251">
        <ele>1138.8</ele>
        <time>2021-04-23T10:20:40.000Z</time>
      </trkpt>
      <trkpt lat="45.17234" lon="5.62253">
        <ele>1138.8</ele>
        <time>2021-04-23T10:20:41.000Z</time>
      </trkpt>
      <trkpt lat="45.17239" lon="5.62256">
        <ele>1138.8</ele>
        <time>2021-04-23T10:20:42.000Z</time>
      </trkpt>
      <trkpt lat="45.17256" lon="5.62262">
        <ele>1138.4</ele>
        <time>2021-04-23T10:20:45.000Z</time>
      </trkpt>
      <trkpt lat="45.17265" lon="5.62266">
        <ele>1138.6</ele>
        <time>2021-04-23T10:20:47.000Z</time>
      </trkpt>
      <trkpt lat="45.17269" lon="5.62268">
        <ele>1138.8</ele>
        <time>2021-04-23T10:20:48.000Z</time>
      </trkpt>
      <trkpt lat="45.17272" lon="5.6227">
        <ele>1138.8</ele>
        <time>2021-04-23T10:20:49.000Z</time>
      </trkpt>
      <trkpt lat="45.17275" lon="5.62272">
        <ele>1139.2</ele>
        <time>2021-04-23T10:20:50.000Z</time>
      </trkpt>
      <trkpt lat="45.17278" lon="5.62275">
        <ele>1139.8</ele>
        <time>2021-04-23T10:20:51.000Z</time>
      </trkpt>
      <trkpt lat="45.17279" lon="5.62279">
        <ele>1140</ele>
        <time>2021-04-23T10:20:52.000Z</time>
      </trkpt>
      <trkpt lat="45.17281" lon="5.62282">
        <ele>1140.2</ele>
        <time>2021-04-23T10:20:53.000Z</time>
      </trkpt>
      <trkpt lat="45.17284" lon="5.62284">
        <ele>1140.4</ele>
        <time>2021-04-23T10:20:54.000Z</time>
      </trkpt>
      <trkpt lat="45.17286" lon="5.62286">
        <ele>1141.2</ele>
        <time>2021-04-23T10:20:55.000Z</time>
      </trkpt>
      <trkpt lat="45.17288" lon="5.62288">
        <ele>1141.8</ele>
        <time>2021-04-23T10:20:56.000Z</time>
      </trkpt>
      <trkpt lat="45.17289" lon="5.62291">
        <ele>1142</ele>
        <time>2021-04-23T10:20:57.000Z</time>
      </trkpt>
      <trkpt lat="45.17292" lon="5.62292">
        <ele>1142.4</ele>
        <time>2021-04-23T10:20:58.000Z</time>
      </trkpt>
      <trkpt lat="45.17293" lon="5.62292">
        <ele>1142.6</ele>
        <time>2021-04-23T10:20:59.000Z</time>
      </trkpt>
      <trkpt lat="45.17297" lon="5.6229">
        <ele>1143</ele>
        <time>2021-04-23T10:21:01.000Z</time>
      </trkpt>
      <trkpt lat="45.17299" lon="5.6229">
        <ele>1143.2</ele>
        <time>2021-04-23T10:21:02.000Z</time>
      </trkpt>
      <trkpt lat="45.17301" lon="5.62289">
        <ele>1143.4</ele>
        <time>2021-04-23T10:21:03.000Z</time>
      </trkpt>
      <trkpt lat="45.17303" lon="5.62288">
        <ele>1143.6</ele>
        <time>2021-04-23T10:21:04.000Z</time>
      </trkpt>
      <trkpt lat="45.17305" lon="5.62288">
        <ele>1143.8</ele>
        <time>2021-04-23T10:21:05.000Z</time>
      </trkpt>
      <trkpt lat="45.17306" lon="5.6229">
        <ele>1144</ele>
        <time>2021-04-23T10:21:06.000Z</time>
      </trkpt>
      <trkpt lat="45.17307" lon="5.62291">
        <ele>1144</ele>
        <time>2021-04-23T10:21:07.000Z</time>
      </trkpt>
      <trkpt lat="45.17307" lon="5.62291">
        <ele>1144</ele>
        <time>2021-04-23T10:21:08.000Z</time>
      </trkpt>
      <trkpt lat="45.17308" lon="5.62291">
        <ele>1144</ele>
        <time>2021-04-23T10:21:09.000Z</time>
      </trkpt>
      <trkpt lat="45.17308" lon="5.6229">
        <ele>1144</ele>
        <time>2021-04-23T10:21:10.000Z</time>
      </trkpt>
      <trkpt lat="45.17308" lon="5.62291">
        <ele>1144</ele>
        <time>2021-04-23T10:21:11.000Z</time>
      </trkpt>
      <trkpt lat="45.17309" lon="5.6229">
        <ele>1144</ele>
        <time>2021-04-23T10:21:12.000Z</time>
      </trkpt>
      <trkpt lat="45.17309" lon="5.62291">
        <ele>1144.2</ele>
        <time>2021-04-23T10:21:13.000Z</time>
      </trkpt>
      <trkpt lat="45.17309" lon="5.62291">
        <ele>1144.2</ele>
        <time>2021-04-23T10:21:14.000Z</time>
      </trkpt>
      <trkpt lat="45.17309" lon="5.62291">
        <ele>1144.2</ele>
        <time>2021-04-23T10:21:15.000Z</time>
      </trkpt>
      <trkpt lat="45.1731" lon="5.6229">
        <ele>1144.4</ele>
        <time>2021-04-23T10:21:16.000Z</time>
      </trkpt>
      <trkpt lat="45.17311" lon="5.6229">
        <ele>1144.4</ele>
        <time>2021-04-23T10:21:17.000Z</time>
      </trkpt>
      <trkpt lat="45.17311" lon="5.62289">
        <ele>1144.4</ele>
        <time>2021-04-23T10:21:18.000Z</time>
      </trkpt>
      <trkpt lat="45.17311" lon="5.62289">
        <ele>1144.4</ele>
        <time>2021-04-23T10:21:19.000Z</time>
      </trkpt>
      <trkpt lat="45.17312" lon="5.62288">
        <ele>1144.4</ele>
        <time>2021-04-23T10:21:20.000Z</time>
      </trkpt>
      <trkpt lat="45.17313" lon="5.62288">
        <ele>1144.4</ele>
        <time>2021-04-23T10:21:21.000Z</time>
      </trkpt>
      <trkpt lat="45.17313" lon="5.62287">
        <ele>1144.4</ele>
        <time>2021-04-23T10:21:23.000Z</time>
      </trkpt>
      <trkpt lat="45.17313" lon="5.62286">
        <ele>1144.4</ele>
        <time>2021-04-23T10:21:24.000Z</time>
      </trkpt>
      <trkpt lat="45.17314" lon="5.62286">
        <ele>1144.4</ele>
        <time>2021-04-23T10:21:25.000Z</time>
      </trkpt>
      <trkpt lat="45.17314" lon="5.62284">
        <ele>1144.4</ele>
        <time>2021-04-23T10:21:27.000Z</time>
      </trkpt>
      <trkpt lat="45.17314" lon="5.62284">
        <ele>1144.4</ele>
        <time>2021-04-23T10:21:28.000Z</time>
      </trkpt>
      <trkpt lat="45.17314" lon="5.62284">
        <ele>1144.6</ele>
        <time>2021-04-23T10:21:29.000Z</time>
      </trkpt>
      <trkpt lat="45.17317" lon="5.62281">
        <ele>1144.8</ele>
        <time>2021-04-23T10:21:33.000Z</time>
      </trkpt>
      <trkpt lat="45.17318" lon="5.62279">
        <ele>1144.8</ele>
        <time>2021-04-23T10:21:34.000Z</time>
      </trkpt>
      <trkpt lat="45.17323" lon="5.62273">
        <ele>1145.8</ele>
        <time>2021-04-23T10:21:37.000Z</time>
      </trkpt>
      <trkpt lat="45.17324" lon="5.62271">
        <ele>1146</ele>
        <time>2021-04-23T10:21:38.000Z</time>
      </trkpt>
      <trkpt lat="45.17325" lon="5.62271">
        <ele>1146.2</ele>
        <time>2021-04-23T10:21:39.000Z</time>
      </trkpt>
      <trkpt lat="45.17326" lon="5.6227">
        <ele>1146.4</ele>
        <time>2021-04-23T10:21:40.000Z</time>
      </trkpt>
      <trkpt lat="45.17328" lon="5.62269">
        <ele>1146.6</ele>
        <time>2021-04-23T10:21:42.000Z</time>
      </trkpt>
      <trkpt lat="45.17329" lon="5.62268">
        <ele>1146.6</ele>
        <time>2021-04-23T10:21:43.000Z</time>
      </trkpt>
      <trkpt lat="45.17331" lon="5.62266">
        <ele>1146.8</ele>
        <time>2021-04-23T10:21:44.000Z</time>
      </trkpt>
      <trkpt lat="45.17332" lon="5.62264">
        <ele>1147</ele>
        <time>2021-04-23T10:21:45.000Z</time>
      </trkpt>
      <trkpt lat="45.17332" lon="5.62262">
        <ele>1147</ele>
        <time>2021-04-23T10:21:46.000Z</time>
      </trkpt>
      <trkpt lat="45.17332" lon="5.6226">
        <ele>1147.2</ele>
        <time>2021-04-23T10:21:47.000Z</time>
      </trkpt>
      <trkpt lat="45.17332" lon="5.6226">
        <ele>1147.2</ele>
        <time>2021-04-23T10:21:48.000Z</time>
      </trkpt>
      <trkpt lat="45.17332" lon="5.62259">
        <ele>1147.4</ele>
        <time>2021-04-23T10:21:49.000Z</time>
      </trkpt>
      <trkpt lat="45.17335" lon="5.62257">
        <ele>1147.4</ele>
        <time>2021-04-23T10:21:50.000Z</time>
      </trkpt>
      <trkpt lat="45.17337" lon="5.62255">
        <ele>1147.4</ele>
        <time>2021-04-23T10:21:51.000Z</time>
      </trkpt>
      <trkpt lat="45.17339" lon="5.62254">
        <ele>1147.4</ele>
        <time>2021-04-23T10:21:52.000Z</time>
      </trkpt>
      <trkpt lat="45.17341" lon="5.62253">
        <ele>1147.4</ele>
        <time>2021-04-23T10:21:53.000Z</time>
      </trkpt>
      <trkpt lat="45.17341" lon="5.62252">
        <ele>1147.4</ele>
        <time>2021-04-23T10:21:54.000Z</time>
      </trkpt>
      <trkpt lat="45.17343" lon="5.62251">
        <ele>1147.4</ele>
        <time>2021-04-23T10:21:55.000Z</time>
      </trkpt>
      <trkpt lat="45.17344" lon="5.6225">
        <ele>1147.4</ele>
        <time>2021-04-23T10:21:56.000Z</time>
      </trkpt>
      <trkpt lat="45.17347" lon="5.62249">
        <ele>1147.4</ele>
        <time>2021-04-23T10:21:57.000Z</time>
      </trkpt>
      <trkpt lat="45.17349" lon="5.62247">
        <ele>1147.4</ele>
        <time>2021-04-23T10:21:58.000Z</time>
      </trkpt>
      <trkpt lat="45.1735" lon="5.62245">
        <ele>1147.4</ele>
        <time>2021-04-23T10:21:59.000Z</time>
      </trkpt>
      <trkpt lat="45.1735" lon="5.62244">
        <ele>1147.4</ele>
        <time>2021-04-23T10:22:00.000Z</time>
      </trkpt>
      <trkpt lat="45.17352" lon="5.62242">
        <ele>1147.4</ele>
        <time>2021-04-23T10:22:01.000Z</time>
      </trkpt>
      <trkpt lat="45.17354" lon="5.62242">
        <ele>1147.4</ele>
        <time>2021-04-23T10:22:02.000Z</time>
      </trkpt>
      <trkpt lat="45.17355" lon="5.62241">
        <ele>1147.4</ele>
        <time>2021-04-23T10:22:03.000Z</time>
      </trkpt>
      <trkpt lat="45.17357" lon="5.6224">
        <ele>1147.4</ele>
        <time>2021-04-23T10:22:04.000Z</time>
      </trkpt>
      <trkpt lat="45.17358" lon="5.62238">
        <ele>1147.4</ele>
        <time>2021-04-23T10:22:05.000Z</time>
      </trkpt>
      <trkpt lat="45.17359" lon="5.62237">
        <ele>1147.2</ele>
        <time>2021-04-23T10:22:06.000Z</time>
      </trkpt>
      <trkpt lat="45.17369" lon="5.6223">
        <ele>1147</ele>
        <time>2021-04-23T10:22:11.000Z</time>
      </trkpt>
      <trkpt lat="45.1737" lon="5.62232">
        <ele>1147</ele>
        <time>2021-04-23T10:22:12.000Z</time>
      </trkpt>
      <trkpt lat="45.17373" lon="5.62234">
        <ele>1146.6</ele>
        <time>2021-04-23T10:22:14.000Z</time>
      </trkpt>
      <trkpt lat="45.17375" lon="5.62234">
        <ele>1146.2</ele>
        <time>2021-04-23T10:22:15.000Z</time>
      </trkpt>
      <trkpt lat="45.17378" lon="5.62231">
        <ele>1145.8</ele>
        <time>2021-04-23T10:22:17.000Z</time>
      </trkpt>
      <trkpt lat="45.17379" lon="5.62234">
        <ele>1145.8</ele>
        <time>2021-04-23T10:22:18.000Z</time>
      </trkpt>
      <trkpt lat="45.17381" lon="5.62235">
        <ele>1145.4</ele>
        <time>2021-04-23T10:22:19.000Z</time>
      </trkpt>
      <trkpt lat="45.17383" lon="5.62235">
        <ele>1145.2</ele>
        <time>2021-04-23T10:22:20.000Z</time>
      </trkpt>
      <trkpt lat="45.17386" lon="5.62235">
        <ele>1145</ele>
        <time>2021-04-23T10:22:21.000Z</time>
      </trkpt>
      <trkpt lat="45.17388" lon="5.62235">
        <ele>1144.6</ele>
        <time>2021-04-23T10:22:22.000Z</time>
      </trkpt>
      <trkpt lat="45.17389" lon="5.62235">
        <ele>1144.4</ele>
        <time>2021-04-23T10:22:23.000Z</time>
      </trkpt>
      <trkpt lat="45.1739" lon="5.62234">
        <ele>1144.2</ele>
        <time>2021-04-23T10:22:24.000Z</time>
      </trkpt>
      <trkpt lat="45.17391" lon="5.62233">
        <ele>1144.2</ele>
        <time>2021-04-23T10:22:25.000Z</time>
      </trkpt>
      <trkpt lat="45.17392" lon="5.62231">
        <ele>1144.2</ele>
        <time>2021-04-23T10:22:26.000Z</time>
      </trkpt>
      <trkpt lat="45.17394" lon="5.6223">
        <ele>1144.4</ele>
        <time>2021-04-23T10:22:27.000Z</time>
      </trkpt>
      <trkpt lat="45.17397" lon="5.62225">
        <ele>1145</ele>
        <time>2021-04-23T10:22:30.000Z</time>
      </trkpt>
      <trkpt lat="45.17399" lon="5.62223">
        <ele>1145</ele>
        <time>2021-04-23T10:22:31.000Z</time>
      </trkpt>
      <trkpt lat="45.17399" lon="5.62222">
        <ele>1145</ele>
        <time>2021-04-23T10:22:32.000Z</time>
      </trkpt>
      <trkpt lat="45.174" lon="5.6222">
        <ele>1145</ele>
        <time>2021-04-23T10:22:33.000Z</time>
      </trkpt>
      <trkpt lat="45.17401" lon="5.62218">
        <ele>1145.2</ele>
        <time>2021-04-23T10:22:34.000Z</time>
      </trkpt>
      <trkpt lat="45.17402" lon="5.62215">
        <ele>1145.2</ele>
        <time>2021-04-23T10:22:35.000Z</time>
      </trkpt>
      <trkpt lat="45.17403" lon="5.62213">
        <ele>1145.4</ele>
        <time>2021-04-23T10:22:36.000Z</time>
      </trkpt>
      <trkpt lat="45.17404" lon="5.62211">
        <ele>1145.8</ele>
        <time>2021-04-23T10:22:37.000Z</time>
      </trkpt>
      <trkpt lat="45.17405" lon="5.62209">
        <ele>1146.2</ele>
        <time>2021-04-23T10:22:38.000Z</time>
      </trkpt>
      <trkpt lat="45.17406" lon="5.62208">
        <ele>1146.4</ele>
        <time>2021-04-23T10:22:39.000Z</time>
      </trkpt>
      <trkpt lat="45.17406" lon="5.62207">
        <ele>1146.8</ele>
        <time>2021-04-23T10:22:40.000Z</time>
      </trkpt>
      <trkpt lat="45.17406" lon="5.62207">
        <ele>1147</ele>
        <time>2021-04-23T10:22:41.000Z</time>
      </trkpt>
      <trkpt lat="45.17406" lon="5.62207">
        <ele>1147.2</ele>
        <time>2021-04-23T10:22:43.000Z</time>
      </trkpt>
      <trkpt lat="45.17407" lon="5.62205">
        <ele>1147.4</ele>
        <time>2021-04-23T10:22:46.000Z</time>
      </trkpt>
      <trkpt lat="45.17408" lon="5.62203">
        <ele>1147.2</ele>
        <time>2021-04-23T10:22:48.000Z</time>
      </trkpt>
      <trkpt lat="45.17408" lon="5.62203">
        <ele>1147.2</ele>
        <time>2021-04-23T10:22:51.000Z</time>
      </trkpt>
      <trkpt lat="45.17408" lon="5.62203">
        <ele>1147.2</ele>
        <time>2021-04-23T10:22:55.000Z</time>
      </trkpt>
      <trkpt lat="45.17409" lon="5.62202">
        <ele>1147.4</ele>
        <time>2021-04-23T10:22:58.000Z</time>
      </trkpt>
      <trkpt lat="45.17411" lon="5.62199">
        <ele>1147.6</ele>
        <time>2021-04-23T10:23:00.000Z</time>
      </trkpt>
      <trkpt lat="45.17414" lon="5.62194">
        <ele>1147.8</ele>
        <time>2021-04-23T10:23:02.000Z</time>
      </trkpt>
      <trkpt lat="45.17421" lon="5.62184">
        <ele>1147.8</ele>
        <time>2021-04-23T10:23:06.000Z</time>
      </trkpt>
      <trkpt lat="45.17422" lon="5.62181">
        <ele>1147.6</ele>
        <time>2021-04-23T10:23:07.000Z</time>
      </trkpt>
      <trkpt lat="45.17423" lon="5.6218">
        <ele>1147.6</ele>
        <time>2021-04-23T10:23:08.000Z</time>
      </trkpt>
      <trkpt lat="45.17424" lon="5.62175">
        <ele>1147</ele>
        <time>2021-04-23T10:23:21.000Z</time>
      </trkpt>
      <trkpt lat="45.17425" lon="5.62173">
        <ele>1147</ele>
        <time>2021-04-23T10:23:22.000Z</time>
      </trkpt>
      <trkpt lat="45.17425" lon="5.62172">
        <ele>1147</ele>
        <time>2021-04-23T10:23:24.000Z</time>
      </trkpt>
      <trkpt lat="45.17427" lon="5.62173">
        <ele>1147</ele>
        <time>2021-04-23T10:23:27.000Z</time>
      </trkpt>
      <trkpt lat="45.1743" lon="5.62178">
        <ele>1146.2</ele>
        <time>2021-04-23T10:23:30.000Z</time>
      </trkpt>
      <trkpt lat="45.17431" lon="5.62179">
        <ele>1145.8</ele>
        <time>2021-04-23T10:23:31.000Z</time>
      </trkpt>
      <trkpt lat="45.17431" lon="5.62179">
        <ele>1145.4</ele>
        <time>2021-04-23T10:23:32.000Z</time>
      </trkpt>
      <trkpt lat="45.17432" lon="5.62179">
        <ele>1145.4</ele>
        <time>2021-04-23T10:23:33.000Z</time>
      </trkpt>
      <trkpt lat="45.17433" lon="5.6218">
        <ele>1145.2</ele>
        <time>2021-04-23T10:23:34.000Z</time>
      </trkpt>
      <trkpt lat="45.17434" lon="5.62181">
        <ele>1144.8</ele>
        <time>2021-04-23T10:23:35.000Z</time>
      </trkpt>
      <trkpt lat="45.17435" lon="5.62182">
        <ele>1144.4</ele>
        <time>2021-04-23T10:23:36.000Z</time>
      </trkpt>
      <trkpt lat="45.17436" lon="5.62184">
        <ele>1144.2</ele>
        <time>2021-04-23T10:23:37.000Z</time>
      </trkpt>
      <trkpt lat="45.17436" lon="5.62186">
        <ele>1143.8</ele>
        <time>2021-04-23T10:23:38.000Z</time>
      </trkpt>
      <trkpt lat="45.17435" lon="5.62188">
        <ele>1143.4</ele>
        <time>2021-04-23T10:23:39.000Z</time>
      </trkpt>
      <trkpt lat="45.17435" lon="5.6219">
        <ele>1142.8</ele>
        <time>2021-04-23T10:23:40.000Z</time>
      </trkpt>
      <trkpt lat="45.17435" lon="5.62192">
        <ele>1142.4</ele>
        <time>2021-04-23T10:23:41.000Z</time>
      </trkpt>
      <trkpt lat="45.17435" lon="5.62195">
        <ele>1141.2</ele>
        <time>2021-04-23T10:23:42.000Z</time>
      </trkpt>
      <trkpt lat="45.17435" lon="5.62197">
        <ele>1140.4</ele>
        <time>2021-04-23T10:23:43.000Z</time>
      </trkpt>
      <trkpt lat="45.17435" lon="5.62199">
        <ele>1140</ele>
        <time>2021-04-23T10:23:44.000Z</time>
      </trkpt>
      <trkpt lat="45.17435" lon="5.62199">
        <ele>1139.8</ele>
        <time>2021-04-23T10:23:45.000Z</time>
      </trkpt>
      <trkpt lat="45.17435" lon="5.62199">
        <ele>1139.6</ele>
        <time>2021-04-23T10:23:46.000Z</time>
      </trkpt>
      <trkpt lat="45.17434" lon="5.62199">
        <ele>1139.4</ele>
        <time>2021-04-23T10:23:48.000Z</time>
      </trkpt>
      <trkpt lat="45.1744" lon="5.62199">
        <ele>1139.2</ele>
        <time>2021-04-23T10:23:54.000Z</time>
      </trkpt>
      <trkpt lat="45.17446" lon="5.62196">
        <ele>1138.8</ele>
        <time>2021-04-23T10:23:56.000Z</time>
      </trkpt>
      <trkpt lat="45.17453" lon="5.62195">
        <ele>1138.2</ele>
        <time>2021-04-23T10:23:59.000Z</time>
      </trkpt>
      <trkpt lat="45.17455" lon="5.62196">
        <ele>1137.6</ele>
        <time>2021-04-23T10:24:00.000Z</time>
      </trkpt>
      <trkpt lat="45.1746" lon="5.62196">
        <ele>1136.8</ele>
        <time>2021-04-23T10:24:01.000Z</time>
      </trkpt>
      <trkpt lat="45.17463" lon="5.62196">
        <ele>1135.8</ele>
        <time>2021-04-23T10:24:02.000Z</time>
      </trkpt>
      <trkpt lat="45.17466" lon="5.62199">
        <ele>1135</ele>
        <time>2021-04-23T10:24:03.000Z</time>
      </trkpt>
      <trkpt lat="45.17467" lon="5.62201">
        <ele>1134.4</ele>
        <time>2021-04-23T10:24:04.000Z</time>
      </trkpt>
      <trkpt lat="45.17468" lon="5.62204">
        <ele>1133.2</ele>
        <time>2021-04-23T10:24:05.000Z</time>
      </trkpt>
      <trkpt lat="45.17466" lon="5.62212">
        <ele>1132</ele>
        <time>2021-04-23T10:24:07.000Z</time>
      </trkpt>
      <trkpt lat="45.17465" lon="5.62214">
        <ele>1131.8</ele>
        <time>2021-04-23T10:24:08.000Z</time>
      </trkpt>
      <trkpt lat="45.17465" lon="5.62214">
        <ele>1131.6</ele>
        <time>2021-04-23T10:24:09.000Z</time>
      </trkpt>
      <trkpt lat="45.17465" lon="5.62214">
        <ele>1131.4</ele>
        <time>2021-04-23T10:24:12.000Z</time>
      </trkpt>
      <trkpt lat="45.17465" lon="5.62214">
        <ele>1131.2</ele>
        <time>2021-04-23T10:24:14.000Z</time>
      </trkpt>
      <trkpt lat="45.17465" lon="5.62214">
        <ele>1131.2</ele>
        <time>2021-04-23T10:24:17.000Z</time>
      </trkpt>
      <trkpt lat="45.17465" lon="5.62215">
        <ele>1131</ele>
        <time>2021-04-23T10:24:19.000Z</time>
      </trkpt>
      <trkpt lat="45.17464" lon="5.62217">
        <ele>1130.8</ele>
        <time>2021-04-23T10:24:22.000Z</time>
      </trkpt>
      <trkpt lat="45.17464" lon="5.62218">
        <ele>1130.4</ele>
        <time>2021-04-23T10:24:23.000Z</time>
      </trkpt>
      <trkpt lat="45.17464" lon="5.62219">
        <ele>1130</ele>
        <time>2021-04-23T10:24:24.000Z</time>
      </trkpt>
      <trkpt lat="45.17464" lon="5.6222">
        <ele>1129.8</ele>
        <time>2021-04-23T10:24:25.000Z</time>
      </trkpt>
      <trkpt lat="45.17464" lon="5.6222">
        <ele>1128.6</ele>
        <time>2021-04-23T10:24:28.000Z</time>
      </trkpt>
      <trkpt lat="45.17464" lon="5.62221">
        <ele>1127.4</ele>
        <time>2021-04-23T10:24:35.000Z</time>
      </trkpt>
      <trkpt lat="45.17464" lon="5.62221">
        <ele>1126.8</ele>
        <time>2021-04-23T10:24:40.000Z</time>
      </trkpt>
      <trkpt lat="45.17464" lon="5.62221">
        <ele>1126.4</ele>
        <time>2021-04-23T10:24:42.000Z</time>
      </trkpt>
      <trkpt lat="45.17464" lon="5.62223">
        <ele>1125.4</ele>
        <time>2021-04-23T10:24:50.000Z</time>
      </trkpt>
      <trkpt lat="45.17464" lon="5.62224">
        <ele>1124</ele>
        <time>2021-04-23T10:24:54.000Z</time>
      </trkpt>
      <trkpt lat="45.17464" lon="5.62227">
        <ele>1123.2</ele>
        <time>2021-04-23T10:24:55.000Z</time>
      </trkpt>
      <trkpt lat="45.17464" lon="5.62231">
        <ele>1122.2</ele>
        <time>2021-04-23T10:24:56.000Z</time>
      </trkpt>
      <trkpt lat="45.17464" lon="5.62236">
        <ele>1121</ele>
        <time>2021-04-23T10:24:57.000Z</time>
      </trkpt>
      <trkpt lat="45.17465" lon="5.62241">
        <ele>1119.8</ele>
        <time>2021-04-23T10:24:58.000Z</time>
      </trkpt>
      <trkpt lat="45.17465" lon="5.62247">
        <ele>1118</ele>
        <time>2021-04-23T10:25:00.000Z</time>
      </trkpt>
      <trkpt lat="45.17465" lon="5.62249">
        <ele>1117.4</ele>
        <time>2021-04-23T10:25:01.000Z</time>
      </trkpt>
      <trkpt lat="45.17465" lon="5.62252">
        <ele>1116.6</ele>
        <time>2021-04-23T10:25:02.000Z</time>
      </trkpt>
      <trkpt lat="45.17466" lon="5.62257">
        <ele>1116.2</ele>
        <time>2021-04-23T10:25:03.000Z</time>
      </trkpt>
      <trkpt lat="45.17466" lon="5.62262">
        <ele>1114.8</ele>
        <time>2021-04-23T10:25:04.000Z</time>
      </trkpt>
      <trkpt lat="45.17466" lon="5.62269">
        <ele>1113.4</ele>
        <time>2021-04-23T10:25:06.000Z</time>
      </trkpt>
      <trkpt lat="45.17466" lon="5.62273">
        <ele>1111.8</ele>
        <time>2021-04-23T10:25:07.000Z</time>
      </trkpt>
      <trkpt lat="45.17465" lon="5.62278">
        <ele>1110.4</ele>
        <time>2021-04-23T10:25:09.000Z</time>
      </trkpt>
      <trkpt lat="45.17464" lon="5.62279">
        <ele>1110</ele>
        <time>2021-04-23T10:25:10.000Z</time>
      </trkpt>
      <trkpt lat="45.17464" lon="5.62279">
        <ele>1109.6</ele>
        <time>2021-04-23T10:25:13.000Z</time>
      </trkpt>
      <trkpt lat="45.17464" lon="5.62281">
        <ele>1109.2</ele>
        <time>2021-04-23T10:25:15.000Z</time>
      </trkpt>
      <trkpt lat="45.17465" lon="5.62284">
        <ele>1109</ele>
        <time>2021-04-23T10:25:18.000Z</time>
      </trkpt>
      <trkpt lat="45.17467" lon="5.62286">
        <ele>1107.6</ele>
        <time>2021-04-23T10:25:21.000Z</time>
      </trkpt>
      <trkpt lat="45.17467" lon="5.62286">
        <ele>1107.2</ele>
        <time>2021-04-23T10:25:22.000Z</time>
      </trkpt>
      <trkpt lat="45.17467" lon="5.62294">
        <ele>1106.6</ele>
        <time>2021-04-23T10:25:24.000Z</time>
      </trkpt>
      <trkpt lat="45.17467" lon="5.62299">
        <ele>1106.6</ele>
        <time>2021-04-23T10:25:25.000Z</time>
      </trkpt>
      <trkpt lat="45.17465" lon="5.62311">
        <ele>1106.6</ele>
        <time>2021-04-23T10:25:27.000Z</time>
      </trkpt>
      <trkpt lat="45.17464" lon="5.62321">
        <ele>1107</ele>
        <time>2021-04-23T10:25:29.000Z</time>
      </trkpt>
      <trkpt lat="45.17463" lon="5.62323">
        <ele>1107.2</ele>
        <time>2021-04-23T10:25:30.000Z</time>
      </trkpt>
      <trkpt lat="45.17462" lon="5.62325">
        <ele>1107.6</ele>
        <time>2021-04-23T10:25:31.000Z</time>
      </trkpt>
      <trkpt lat="45.17461" lon="5.62327">
        <ele>1108</ele>
        <time>2021-04-23T10:25:32.000Z</time>
      </trkpt>
      <trkpt lat="45.1746" lon="5.62329">
        <ele>1108.2</ele>
        <time>2021-04-23T10:25:33.000Z</time>
      </trkpt>
      <trkpt lat="45.17458" lon="5.62331">
        <ele>1108.6</ele>
        <time>2021-04-23T10:25:34.000Z</time>
      </trkpt>
      <trkpt lat="45.17457" lon="5.62336">
        <ele>1108.6</ele>
        <time>2021-04-23T10:25:35.000Z</time>
      </trkpt>
      <trkpt lat="45.17456" lon="5.62339">
        <ele>1108.8</ele>
        <time>2021-04-23T10:25:36.000Z</time>
      </trkpt>
      <trkpt lat="45.17454" lon="5.62341">
        <ele>1109.2</ele>
        <time>2021-04-23T10:25:37.000Z</time>
      </trkpt>
      <trkpt lat="45.17452" lon="5.62342">
        <ele>1109.4</ele>
        <time>2021-04-23T10:25:38.000Z</time>
      </trkpt>
      <trkpt lat="45.1745" lon="5.62344">
        <ele>1109.6</ele>
        <time>2021-04-23T10:25:39.000Z</time>
      </trkpt>
      <trkpt lat="45.17448" lon="5.62346">
        <ele>1110</ele>
        <time>2021-04-23T10:25:40.000Z</time>
      </trkpt>
      <trkpt lat="45.17445" lon="5.62347">
        <ele>1110.2</ele>
        <time>2021-04-23T10:25:41.000Z</time>
      </trkpt>
      <trkpt lat="45.17444" lon="5.62349">
        <ele>1110.4</ele>
        <time>2021-04-23T10:25:42.000Z</time>
      </trkpt>
      <trkpt lat="45.17443" lon="5.6235">
        <ele>1110.4</ele>
        <time>2021-04-23T10:25:43.000Z</time>
      </trkpt>
      <trkpt lat="45.17441" lon="5.62351">
        <ele>1110.6</ele>
        <time>2021-04-23T10:25:44.000Z</time>
      </trkpt>
      <trkpt lat="45.1744" lon="5.62355">
        <ele>1110.8</ele>
        <time>2021-04-23T10:25:45.000Z</time>
      </trkpt>
      <trkpt lat="45.1744" lon="5.62358">
        <ele>1111.4</ele>
        <time>2021-04-23T10:25:46.000Z</time>
      </trkpt>
      <trkpt lat="45.17439" lon="5.62361">
        <ele>1111.6</ele>
        <time>2021-04-23T10:25:47.000Z</time>
      </trkpt>
      <trkpt lat="45.17438" lon="5.62363">
        <ele>1111.8</ele>
        <time>2021-04-23T10:25:48.000Z</time>
      </trkpt>
      <trkpt lat="45.17437" lon="5.62364">
        <ele>1112</ele>
        <time>2021-04-23T10:25:49.000Z</time>
      </trkpt>
      <trkpt lat="45.17436" lon="5.62366">
        <ele>1112.2</ele>
        <time>2021-04-23T10:25:50.000Z</time>
      </trkpt>
      <trkpt lat="45.17436" lon="5.62367">
        <ele>1112.4</ele>
        <time>2021-04-23T10:25:51.000Z</time>
      </trkpt>
      <trkpt lat="45.17437" lon="5.62368">
        <ele>1112.6</ele>
        <time>2021-04-23T10:25:52.000Z</time>
      </trkpt>
      <trkpt lat="45.17439" lon="5.62366">
        <ele>1113</ele>
        <time>2021-04-23T10:25:55.000Z</time>
      </trkpt>
      <trkpt lat="45.1744" lon="5.62364">
        <ele>1113</ele>
        <time>2021-04-23T10:25:56.000Z</time>
      </trkpt>
      <trkpt lat="45.17442" lon="5.62364">
        <ele>1113</ele>
        <time>2021-04-23T10:25:57.000Z</time>
      </trkpt>
      <trkpt lat="45.17444" lon="5.62363">
        <ele>1113</ele>
        <time>2021-04-23T10:25:58.000Z</time>
      </trkpt>
      <trkpt lat="45.17446" lon="5.62361">
        <ele>1113.2</ele>
        <time>2021-04-23T10:25:59.000Z</time>
      </trkpt>
      <trkpt lat="45.17448" lon="5.6236">
        <ele>1113.2</ele>
        <time>2021-04-23T10:26:00.000Z</time>
      </trkpt>
      <trkpt lat="45.17451" lon="5.62358">
        <ele>1113.2</ele>
        <time>2021-04-23T10:26:01.000Z</time>
      </trkpt>
      <trkpt lat="45.17454" lon="5.62357">
        <ele>1113.2</ele>
        <time>2021-04-23T10:26:02.000Z</time>
      </trkpt>
      <trkpt lat="45.17456" lon="5.62355">
        <ele>1113.2</ele>
        <time>2021-04-23T10:26:03.000Z</time>
      </trkpt>
      <trkpt lat="45.17458" lon="5.62354">
        <ele>1113.2</ele>
        <time>2021-04-23T10:26:04.000Z</time>
      </trkpt>
      <trkpt lat="45.1746" lon="5.62353">
        <ele>1113.2</ele>
        <time>2021-04-23T10:26:05.000Z</time>
      </trkpt>
      <trkpt lat="45.17461" lon="5.62352">
        <ele>1113.2</ele>
        <time>2021-04-23T10:26:06.000Z</time>
      </trkpt>
      <trkpt lat="45.17463" lon="5.6235">
        <ele>1113.2</ele>
        <time>2021-04-23T10:26:07.000Z</time>
      </trkpt>
      <trkpt lat="45.17465" lon="5.62349">
        <ele>1113.2</ele>
        <time>2021-04-23T10:26:08.000Z</time>
      </trkpt>
      <trkpt lat="45.17466" lon="5.62347">
        <ele>1113.4</ele>
        <time>2021-04-23T10:26:09.000Z</time>
      </trkpt>
      <trkpt lat="45.17468" lon="5.62346">
        <ele>1113.4</ele>
        <time>2021-04-23T10:26:10.000Z</time>
      </trkpt>
      <trkpt lat="45.1747" lon="5.62345">
        <ele>1113.6</ele>
        <time>2021-04-23T10:26:11.000Z</time>
      </trkpt>
      <trkpt lat="45.17472" lon="5.62343">
        <ele>1113.6</ele>
        <time>2021-04-23T10:26:12.000Z</time>
      </trkpt>
      <trkpt lat="45.1748" lon="5.62335">
        <ele>1114.4</ele>
        <time>2021-04-23T10:26:16.000Z</time>
      </trkpt>
      <trkpt lat="45.17482" lon="5.62333">
        <ele>1114.6</ele>
        <time>2021-04-23T10:26:17.000Z</time>
      </trkpt>
      <trkpt lat="45.17484" lon="5.62332">
        <ele>1114.8</ele>
        <time>2021-04-23T10:26:18.000Z</time>
      </trkpt>
      <trkpt lat="45.17485" lon="5.62331">
        <ele>1114.8</ele>
        <time>2021-04-23T10:26:19.000Z</time>
      </trkpt>
      <trkpt lat="45.17487" lon="5.62329">
        <ele>1115</ele>
        <time>2021-04-23T10:26:20.000Z</time>
      </trkpt>
      <trkpt lat="45.17488" lon="5.62327">
        <ele>1115.2</ele>
        <time>2021-04-23T10:26:21.000Z</time>
      </trkpt>
      <trkpt lat="45.1749" lon="5.62325">
        <ele>1115.4</ele>
        <time>2021-04-23T10:26:22.000Z</time>
      </trkpt>
      <trkpt lat="45.17492" lon="5.62325">
        <ele>1115.8</ele>
        <time>2021-04-23T10:26:23.000Z</time>
      </trkpt>
      <trkpt lat="45.17494" lon="5.62323">
        <ele>1116</ele>
        <time>2021-04-23T10:26:24.000Z</time>
      </trkpt>
      <trkpt lat="45.17496" lon="5.62321">
        <ele>1116.2</ele>
        <time>2021-04-23T10:26:25.000Z</time>
      </trkpt>
      <trkpt lat="45.17498" lon="5.62319">
        <ele>1116.4</ele>
        <time>2021-04-23T10:26:26.000Z</time>
      </trkpt>
      <trkpt lat="45.175" lon="5.62317">
        <ele>1116.4</ele>
        <time>2021-04-23T10:26:27.000Z</time>
      </trkpt>
      <trkpt lat="45.17502" lon="5.62316">
        <ele>1116.6</ele>
        <time>2021-04-23T10:26:28.000Z</time>
      </trkpt>
      <trkpt lat="45.17503" lon="5.62316">
        <ele>1117</ele>
        <time>2021-04-23T10:26:29.000Z</time>
      </trkpt>
      <trkpt lat="45.17504" lon="5.62316">
        <ele>1117.2</ele>
        <time>2021-04-23T10:26:30.000Z</time>
      </trkpt>
      <trkpt lat="45.17506" lon="5.62316">
        <ele>1117.4</ele>
        <time>2021-04-23T10:26:31.000Z</time>
      </trkpt>
      <trkpt lat="45.17508" lon="5.62316">
        <ele>1117.8</ele>
        <time>2021-04-23T10:26:32.000Z</time>
      </trkpt>
      <trkpt lat="45.17509" lon="5.62316">
        <ele>1118</ele>
        <time>2021-04-23T10:26:33.000Z</time>
      </trkpt>
      <trkpt lat="45.1751" lon="5.62316">
        <ele>1118.2</ele>
        <time>2021-04-23T10:26:34.000Z</time>
      </trkpt>
      <trkpt lat="45.17511" lon="5.62316">
        <ele>1118.4</ele>
        <time>2021-04-23T10:26:35.000Z</time>
      </trkpt>
      <trkpt lat="45.17513" lon="5.62316">
        <ele>1118.8</ele>
        <time>2021-04-23T10:26:36.000Z</time>
      </trkpt>
      <trkpt lat="45.17514" lon="5.62316">
        <ele>1119</ele>
        <time>2021-04-23T10:26:37.000Z</time>
      </trkpt>
      <trkpt lat="45.17516" lon="5.62316">
        <ele>1119.4</ele>
        <time>2021-04-23T10:26:38.000Z</time>
      </trkpt>
      <trkpt lat="45.17517" lon="5.62315">
        <ele>1119.6</ele>
        <time>2021-04-23T10:26:39.000Z</time>
      </trkpt>
      <trkpt lat="45.17518" lon="5.62315">
        <ele>1119.8</ele>
        <time>2021-04-23T10:26:40.000Z</time>
      </trkpt>
      <trkpt lat="45.17519" lon="5.62315">
        <ele>1120.2</ele>
        <time>2021-04-23T10:26:41.000Z</time>
      </trkpt>
      <trkpt lat="45.17521" lon="5.62314">
        <ele>1120.4</ele>
        <time>2021-04-23T10:26:42.000Z</time>
      </trkpt>
      <trkpt lat="45.17522" lon="5.62313">
        <ele>1120.6</ele>
        <time>2021-04-23T10:26:43.000Z</time>
      </trkpt>
      <trkpt lat="45.17524" lon="5.62313">
        <ele>1120.8</ele>
        <time>2021-04-23T10:26:44.000Z</time>
      </trkpt>
      <trkpt lat="45.17525" lon="5.62313">
        <ele>1121</ele>
        <time>2021-04-23T10:26:45.000Z</time>
      </trkpt>
      <trkpt lat="45.17527" lon="5.62313">
        <ele>1121.2</ele>
        <time>2021-04-23T10:26:46.000Z</time>
      </trkpt>
      <trkpt lat="45.17528" lon="5.62312">
        <ele>1121.4</ele>
        <time>2021-04-23T10:26:47.000Z</time>
      </trkpt>
      <trkpt lat="45.1753" lon="5.62311">
        <ele>1121.6</ele>
        <time>2021-04-23T10:26:48.000Z</time>
      </trkpt>
      <trkpt lat="45.17531" lon="5.62311">
        <ele>1121.8</ele>
        <time>2021-04-23T10:26:49.000Z</time>
      </trkpt>
      <trkpt lat="45.17533" lon="5.62312">
        <ele>1122.2</ele>
        <time>2021-04-23T10:26:50.000Z</time>
      </trkpt>
      <trkpt lat="45.17535" lon="5.62312">
        <ele>1122.4</ele>
        <time>2021-04-23T10:26:51.000Z</time>
      </trkpt>
      <trkpt lat="45.17537" lon="5.62311">
        <ele>1122.6</ele>
        <time>2021-04-23T10:26:52.000Z</time>
      </trkpt>
      <trkpt lat="45.17539" lon="5.62311">
        <ele>1122.8</ele>
        <time>2021-04-23T10:26:53.000Z</time>
      </trkpt>
      <trkpt lat="45.17541" lon="5.6231">
        <ele>1123.2</ele>
        <time>2021-04-23T10:26:54.000Z</time>
      </trkpt>
      <trkpt lat="45.17542" lon="5.62311">
        <ele>1123.4</ele>
        <time>2021-04-23T10:26:55.000Z</time>
      </trkpt>
      <trkpt lat="45.17544" lon="5.62311">
        <ele>1123.6</ele>
        <time>2021-04-23T10:26:56.000Z</time>
      </trkpt>
      <trkpt lat="45.17545" lon="5.62311">
        <ele>1123.6</ele>
        <time>2021-04-23T10:26:57.000Z</time>
      </trkpt>
      <trkpt lat="45.17546" lon="5.62311">
        <ele>1123.8</ele>
        <time>2021-04-23T10:26:58.000Z</time>
      </trkpt>
      <trkpt lat="45.17548" lon="5.62311">
        <ele>1124</ele>
        <time>2021-04-23T10:26:59.000Z</time>
      </trkpt>
      <trkpt lat="45.17549" lon="5.6231">
        <ele>1124.2</ele>
        <time>2021-04-23T10:27:00.000Z</time>
      </trkpt>
      <trkpt lat="45.17551" lon="5.6231">
        <ele>1124.6</ele>
        <time>2021-04-23T10:27:01.000Z</time>
      </trkpt>
      <trkpt lat="45.17552" lon="5.62311">
        <ele>1124.8</ele>
        <time>2021-04-23T10:27:02.000Z</time>
      </trkpt>
      <trkpt lat="45.17553" lon="5.62314">
        <ele>1124.8</ele>
        <time>2021-04-23T10:27:03.000Z</time>
      </trkpt>
      <trkpt lat="45.17553" lon="5.62317">
        <ele>1125.2</ele>
        <time>2021-04-23T10:27:04.000Z</time>
      </trkpt>
      <trkpt lat="45.17552" lon="5.62319">
        <ele>1125.4</ele>
        <time>2021-04-23T10:27:05.000Z</time>
      </trkpt>
      <trkpt lat="45.1755" lon="5.6232">
        <ele>1125.6</ele>
        <time>2021-04-23T10:27:06.000Z</time>
      </trkpt>
      <trkpt lat="45.17549" lon="5.62321">
        <ele>1125.8</ele>
        <time>2021-04-23T10:27:07.000Z</time>
      </trkpt>
      <trkpt lat="45.17548" lon="5.62322">
        <ele>1126</ele>
        <time>2021-04-23T10:27:08.000Z</time>
      </trkpt>
      <trkpt lat="45.17546" lon="5.62324">
        <ele>1126.2</ele>
        <time>2021-04-23T10:27:09.000Z</time>
      </trkpt>
      <trkpt lat="45.17545" lon="5.62325">
        <ele>1126.4</ele>
        <time>2021-04-23T10:27:10.000Z</time>
      </trkpt>
      <trkpt lat="45.17544" lon="5.62326">
        <ele>1126.4</ele>
        <time>2021-04-23T10:27:11.000Z</time>
      </trkpt>
      <trkpt lat="45.17543" lon="5.62328">
        <ele>1126.8</ele>
        <time>2021-04-23T10:27:12.000Z</time>
      </trkpt>
      <trkpt lat="45.17541" lon="5.62329">
        <ele>1127.2</ele>
        <time>2021-04-23T10:27:13.000Z</time>
      </trkpt>
      <trkpt lat="45.1754" lon="5.6233">
        <ele>1127.6</ele>
        <time>2021-04-23T10:27:14.000Z</time>
      </trkpt>
      <trkpt lat="45.17539" lon="5.62332">
        <ele>1128</ele>
        <time>2021-04-23T10:27:15.000Z</time>
      </trkpt>
      <trkpt lat="45.17537" lon="5.62334">
        <ele>1128</ele>
        <time>2021-04-23T10:27:16.000Z</time>
      </trkpt>
      <trkpt lat="45.17536" lon="5.62336">
        <ele>1128.4</ele>
        <time>2021-04-23T10:27:17.000Z</time>
      </trkpt>
      <trkpt lat="45.17535" lon="5.62337">
        <ele>1128.6</ele>
        <time>2021-04-23T10:27:18.000Z</time>
      </trkpt>
      <trkpt lat="45.17535" lon="5.62339">
        <ele>1129</ele>
        <time>2021-04-23T10:27:19.000Z</time>
      </trkpt>
      <trkpt lat="45.17534" lon="5.6234">
        <ele>1129.2</ele>
        <time>2021-04-23T10:27:20.000Z</time>
      </trkpt>
      <trkpt lat="45.17533" lon="5.62342">
        <ele>1129.4</ele>
        <time>2021-04-23T10:27:21.000Z</time>
      </trkpt>
      <trkpt lat="45.17532" lon="5.62344">
        <ele>1129.6</ele>
        <time>2021-04-23T10:27:22.000Z</time>
      </trkpt>
      <trkpt lat="45.17532" lon="5.62345">
        <ele>1130</ele>
        <time>2021-04-23T10:27:23.000Z</time>
      </trkpt>
      <trkpt lat="45.17531" lon="5.62347">
        <ele>1130</ele>
        <time>2021-04-23T10:27:24.000Z</time>
      </trkpt>
      <trkpt lat="45.17529" lon="5.62348">
        <ele>1130.2</ele>
        <time>2021-04-23T10:27:25.000Z</time>
      </trkpt>
      <trkpt lat="45.17528" lon="5.62349">
        <ele>1130.2</ele>
        <time>2021-04-23T10:27:26.000Z</time>
      </trkpt>
      <trkpt lat="45.17527" lon="5.6235">
        <ele>1130.2</ele>
        <time>2021-04-23T10:27:27.000Z</time>
      </trkpt>
      <trkpt lat="45.17526" lon="5.62352">
        <ele>1130.2</ele>
        <time>2021-04-23T10:27:28.000Z</time>
      </trkpt>
      <trkpt lat="45.17525" lon="5.62354">
        <ele>1130.2</ele>
        <time>2021-04-23T10:27:29.000Z</time>
      </trkpt>
      <trkpt lat="45.17523" lon="5.62356">
        <ele>1130.2</ele>
        <time>2021-04-23T10:27:30.000Z</time>
      </trkpt>
      <trkpt lat="45.17522" lon="5.62359">
        <ele>1130.2</ele>
        <time>2021-04-23T10:27:31.000Z</time>
      </trkpt>
      <trkpt lat="45.17522" lon="5.62361">
        <ele>1130.2</ele>
        <time>2021-04-23T10:27:32.000Z</time>
      </trkpt>
      <trkpt lat="45.17523" lon="5.62363">
        <ele>1130.4</ele>
        <time>2021-04-23T10:27:33.000Z</time>
      </trkpt>
      <trkpt lat="45.17523" lon="5.62365">
        <ele>1130.6</ele>
        <time>2021-04-23T10:27:34.000Z</time>
      </trkpt>
      <trkpt lat="45.17524" lon="5.62368">
        <ele>1130.8</ele>
        <time>2021-04-23T10:27:35.000Z</time>
      </trkpt>
      <trkpt lat="45.17524" lon="5.6237">
        <ele>1131.2</ele>
        <time>2021-04-23T10:27:36.000Z</time>
      </trkpt>
      <trkpt lat="45.17524" lon="5.62372">
        <ele>1131.6</ele>
        <time>2021-04-23T10:27:37.000Z</time>
      </trkpt>
      <trkpt lat="45.17524" lon="5.62375">
        <ele>1131.8</ele>
        <time>2021-04-23T10:27:38.000Z</time>
      </trkpt>
      <trkpt lat="45.17525" lon="5.62377">
        <ele>1132</ele>
        <time>2021-04-23T10:27:39.000Z</time>
      </trkpt>
      <trkpt lat="45.17525" lon="5.6238">
        <ele>1132.2</ele>
        <time>2021-04-23T10:27:40.000Z</time>
      </trkpt>
      <trkpt lat="45.17524" lon="5.62382">
        <ele>1132.4</ele>
        <time>2021-04-23T10:27:41.000Z</time>
      </trkpt>
      <trkpt lat="45.17524" lon="5.62385">
        <ele>1132.6</ele>
        <time>2021-04-23T10:27:42.000Z</time>
      </trkpt>
      <trkpt lat="45.17523" lon="5.62387">
        <ele>1132.6</ele>
        <time>2021-04-23T10:27:43.000Z</time>
      </trkpt>
      <trkpt lat="45.17522" lon="5.6239">
        <ele>1132.6</ele>
        <time>2021-04-23T10:27:44.000Z</time>
      </trkpt>
      <trkpt lat="45.17523" lon="5.62393">
        <ele>1132.6</ele>
        <time>2021-04-23T10:27:45.000Z</time>
      </trkpt>
      <trkpt lat="45.17524" lon="5.62394">
        <ele>1132.6</ele>
        <time>2021-04-23T10:27:46.000Z</time>
      </trkpt>
      <trkpt lat="45.17525" lon="5.62395">
        <ele>1132.6</ele>
        <time>2021-04-23T10:27:47.000Z</time>
      </trkpt>
      <trkpt lat="45.17526" lon="5.62395">
        <ele>1132.6</ele>
        <time>2021-04-23T10:27:48.000Z</time>
      </trkpt>
      <trkpt lat="45.17528" lon="5.62394">
        <ele>1132.8</ele>
        <time>2021-04-23T10:27:49.000Z</time>
      </trkpt>
      <trkpt lat="45.1753" lon="5.62394">
        <ele>1132.8</ele>
        <time>2021-04-23T10:27:50.000Z</time>
      </trkpt>
      <trkpt lat="45.17532" lon="5.62394">
        <ele>1132.8</ele>
        <time>2021-04-23T10:27:51.000Z</time>
      </trkpt>
      <trkpt lat="45.17534" lon="5.62394">
        <ele>1132.8</ele>
        <time>2021-04-23T10:27:52.000Z</time>
      </trkpt>
      <trkpt lat="45.17537" lon="5.62393">
        <ele>1132.8</ele>
        <time>2021-04-23T10:27:53.000Z</time>
      </trkpt>
      <trkpt lat="45.17539" lon="5.62393">
        <ele>1132.4</ele>
        <time>2021-04-23T10:27:54.000Z</time>
      </trkpt>
      <trkpt lat="45.17542" lon="5.62391">
        <ele>1132.2</ele>
        <time>2021-04-23T10:27:55.000Z</time>
      </trkpt>
      <trkpt lat="45.17545" lon="5.6239">
        <ele>1132.2</ele>
        <time>2021-04-23T10:27:56.000Z</time>
      </trkpt>
      <trkpt lat="45.17547" lon="5.62388">
        <ele>1132</ele>
        <time>2021-04-23T10:27:57.000Z</time>
      </trkpt>
      <trkpt lat="45.17549" lon="5.62387">
        <ele>1131.8</ele>
        <time>2021-04-23T10:27:58.000Z</time>
      </trkpt>
      <trkpt lat="45.1755" lon="5.62385">
        <ele>1131.8</ele>
        <time>2021-04-23T10:27:59.000Z</time>
      </trkpt>
      <trkpt lat="45.17552" lon="5.62384">
        <ele>1131.6</ele>
        <time>2021-04-23T10:28:00.000Z</time>
      </trkpt>
      <trkpt lat="45.17553" lon="5.62383">
        <ele>1131.4</ele>
        <time>2021-04-23T10:28:01.000Z</time>
      </trkpt>
      <trkpt lat="45.17557" lon="5.62381">
        <ele>1130.8</ele>
        <time>2021-04-23T10:28:03.000Z</time>
      </trkpt>
      <trkpt lat="45.17564" lon="5.62379">
        <ele>1129.8</ele>
        <time>2021-04-23T10:28:06.000Z</time>
      </trkpt>
      <trkpt lat="45.17566" lon="5.62381">
        <ele>1129.2</ele>
        <time>2021-04-23T10:28:07.000Z</time>
      </trkpt>
      <trkpt lat="45.17567" lon="5.62383">
        <ele>1129</ele>
        <time>2021-04-23T10:28:08.000Z</time>
      </trkpt>
      <trkpt lat="45.17568" lon="5.62386">
        <ele>1128.8</ele>
        <time>2021-04-23T10:28:09.000Z</time>
      </trkpt>
      <trkpt lat="45.17569" lon="5.62388">
        <ele>1128.6</ele>
        <time>2021-04-23T10:28:10.000Z</time>
      </trkpt>
      <trkpt lat="45.17571" lon="5.62391">
        <ele>1128.6</ele>
        <time>2021-04-23T10:28:11.000Z</time>
      </trkpt>
      <trkpt lat="45.17574" lon="5.62394">
        <ele>1128.2</ele>
        <time>2021-04-23T10:28:13.000Z</time>
      </trkpt>
      <trkpt lat="45.17576" lon="5.62396">
        <ele>1128.2</ele>
        <time>2021-04-23T10:28:14.000Z</time>
      </trkpt>
      <trkpt lat="45.17578" lon="5.62398">
        <ele>1128</ele>
        <time>2021-04-23T10:28:15.000Z</time>
      </trkpt>
      <trkpt lat="45.17583" lon="5.62404">
        <ele>1128.4</ele>
        <time>2021-04-23T10:28:18.000Z</time>
      </trkpt>
      <trkpt lat="45.17585" lon="5.62412">
        <ele>1129</ele>
        <time>2021-04-23T10:28:20.000Z</time>
      </trkpt>
      <trkpt lat="45.17586" lon="5.62413">
        <ele>1129</ele>
        <time>2021-04-23T10:28:21.000Z</time>
      </trkpt>
      <trkpt lat="45.17587" lon="5.62415">
        <ele>1129.2</ele>
        <time>2021-04-23T10:28:22.000Z</time>
      </trkpt>
      <trkpt lat="45.17589" lon="5.62417">
        <ele>1129.6</ele>
        <time>2021-04-23T10:28:23.000Z</time>
      </trkpt>
      <trkpt lat="45.1759" lon="5.6242">
        <ele>1130</ele>
        <time>2021-04-23T10:28:24.000Z</time>
      </trkpt>
      <trkpt lat="45.17592" lon="5.62422">
        <ele>1130.4</ele>
        <time>2021-04-23T10:28:25.000Z</time>
      </trkpt>
      <trkpt lat="45.17593" lon="5.62425">
        <ele>1130.6</ele>
        <time>2021-04-23T10:28:26.000Z</time>
      </trkpt>
      <trkpt lat="45.17594" lon="5.62429">
        <ele>1131</ele>
        <time>2021-04-23T10:28:27.000Z</time>
      </trkpt>
      <trkpt lat="45.17595" lon="5.62431">
        <ele>1131.4</ele>
        <time>2021-04-23T10:28:28.000Z</time>
      </trkpt>
      <trkpt lat="45.17597" lon="5.62435">
        <ele>1132</ele>
        <time>2021-04-23T10:28:30.000Z</time>
      </trkpt>
      <trkpt lat="45.17598" lon="5.62438">
        <ele>1132.2</ele>
        <time>2021-04-23T10:28:31.000Z</time>
      </trkpt>
      <trkpt lat="45.17599" lon="5.62441">
        <ele>1132.6</ele>
        <time>2021-04-23T10:28:32.000Z</time>
      </trkpt>
      <trkpt lat="45.176" lon="5.62442">
        <ele>1132.6</ele>
        <time>2021-04-23T10:28:33.000Z</time>
      </trkpt>
      <trkpt lat="45.176" lon="5.62442">
        <ele>1132.8</ele>
        <time>2021-04-23T10:28:34.000Z</time>
      </trkpt>
      <trkpt lat="45.176" lon="5.62444">
        <ele>1133</ele>
        <time>2021-04-23T10:28:35.000Z</time>
      </trkpt>
      <trkpt lat="45.17601" lon="5.62445">
        <ele>1133</ele>
        <time>2021-04-23T10:28:36.000Z</time>
      </trkpt>
      <trkpt lat="45.17602" lon="5.62447">
        <ele>1133</ele>
        <time>2021-04-23T10:28:37.000Z</time>
      </trkpt>
      <trkpt lat="45.17602" lon="5.6245">
        <ele>1133.2</ele>
        <time>2021-04-23T10:28:38.000Z</time>
      </trkpt>
      <trkpt lat="45.17602" lon="5.62452">
        <ele>1133.2</ele>
        <time>2021-04-23T10:28:39.000Z</time>
      </trkpt>
      <trkpt lat="45.17603" lon="5.62456">
        <ele>1133.2</ele>
        <time>2021-04-23T10:28:40.000Z</time>
      </trkpt>
      <trkpt lat="45.17604" lon="5.62459">
        <ele>1133.4</ele>
        <time>2021-04-23T10:28:41.000Z</time>
      </trkpt>
      <trkpt lat="45.17604" lon="5.6246">
        <ele>1133.4</ele>
        <time>2021-04-23T10:28:42.000Z</time>
      </trkpt>
      <trkpt lat="45.17605" lon="5.62461">
        <ele>1133.4</ele>
        <time>2021-04-23T10:28:43.000Z</time>
      </trkpt>
      <trkpt lat="45.17606" lon="5.62463">
        <ele>1133.4</ele>
        <time>2021-04-23T10:28:44.000Z</time>
      </trkpt>
      <trkpt lat="45.17607" lon="5.62465">
        <ele>1133.4</ele>
        <time>2021-04-23T10:28:45.000Z</time>
      </trkpt>
      <trkpt lat="45.17607" lon="5.62468">
        <ele>1133.4</ele>
        <time>2021-04-23T10:28:46.000Z</time>
      </trkpt>
      <trkpt lat="45.17607" lon="5.62469">
        <ele>1133.4</ele>
        <time>2021-04-23T10:28:47.000Z</time>
      </trkpt>
      <trkpt lat="45.17608" lon="5.62471">
        <ele>1133.2</ele>
        <time>2021-04-23T10:28:48.000Z</time>
      </trkpt>
      <trkpt lat="45.17609" lon="5.62473">
        <ele>1133.2</ele>
        <time>2021-04-23T10:28:49.000Z</time>
      </trkpt>
      <trkpt lat="45.1761" lon="5.62475">
        <ele>1133.4</ele>
        <time>2021-04-23T10:28:50.000Z</time>
      </trkpt>
      <trkpt lat="45.17611" lon="5.62474">
        <ele>1133.4</ele>
        <time>2021-04-23T10:28:51.000Z</time>
      </trkpt>
      <trkpt lat="45.17611" lon="5.62472">
        <ele>1133.4</ele>
        <time>2021-04-23T10:28:52.000Z</time>
      </trkpt>
      <trkpt lat="45.17613" lon="5.62468">
        <ele>1133.4</ele>
        <time>2021-04-23T10:28:53.000Z</time>
      </trkpt>
      <trkpt lat="45.17621" lon="5.62453">
        <ele>1133.4</ele>
        <time>2021-04-23T10:28:59.000Z</time>
      </trkpt>
      <trkpt lat="45.17623" lon="5.62446">
        <ele>1133.6</ele>
        <time>2021-04-23T10:29:03.000Z</time>
      </trkpt>
      <trkpt lat="45.17624" lon="5.62445">
        <ele>1133.6</ele>
        <time>2021-04-23T10:29:04.000Z</time>
      </trkpt>
      <trkpt lat="45.17625" lon="5.62443">
        <ele>1133.6</ele>
        <time>2021-04-23T10:29:05.000Z</time>
      </trkpt>
      <trkpt lat="45.17626" lon="5.6244">
        <ele>1133.8</ele>
        <time>2021-04-23T10:29:06.000Z</time>
      </trkpt>
      <trkpt lat="45.17627" lon="5.62436">
        <ele>1133.8</ele>
        <time>2021-04-23T10:29:07.000Z</time>
      </trkpt>
      <trkpt lat="45.17626" lon="5.62433">
        <ele>1133.8</ele>
        <time>2021-04-23T10:29:08.000Z</time>
      </trkpt>
      <trkpt lat="45.17628" lon="5.6243">
        <ele>1133.8</ele>
        <time>2021-04-23T10:29:09.000Z</time>
      </trkpt>
      <trkpt lat="45.17631" lon="5.62423">
        <ele>1134</ele>
        <time>2021-04-23T10:29:11.000Z</time>
      </trkpt>
      <trkpt lat="45.17632" lon="5.62421">
        <ele>1134</ele>
        <time>2021-04-23T10:29:12.000Z</time>
      </trkpt>
      <trkpt lat="45.17633" lon="5.62419">
        <ele>1134.2</ele>
        <time>2021-04-23T10:29:13.000Z</time>
      </trkpt>
      <trkpt lat="45.17634" lon="5.62417">
        <ele>1134.4</ele>
        <time>2021-04-23T10:29:14.000Z</time>
      </trkpt>
      <trkpt lat="45.17636" lon="5.62411">
        <ele>1134.6</ele>
        <time>2021-04-23T10:29:16.000Z</time>
      </trkpt>
      <trkpt lat="45.17638" lon="5.62409">
        <ele>1134.8</ele>
        <time>2021-04-23T10:29:17.000Z</time>
      </trkpt>
      <trkpt lat="45.1764" lon="5.62408">
        <ele>1135</ele>
        <time>2021-04-23T10:29:18.000Z</time>
      </trkpt>
      <trkpt lat="45.17643" lon="5.62407">
        <ele>1135.2</ele>
        <time>2021-04-23T10:29:19.000Z</time>
      </trkpt>
      <trkpt lat="45.17644" lon="5.62407">
        <ele>1135.4</ele>
        <time>2021-04-23T10:29:20.000Z</time>
      </trkpt>
      <trkpt lat="45.17646" lon="5.62406">
        <ele>1135.4</ele>
        <time>2021-04-23T10:29:21.000Z</time>
      </trkpt>
      <trkpt lat="45.17647" lon="5.62405">
        <ele>1135.6</ele>
        <time>2021-04-23T10:29:22.000Z</time>
      </trkpt>
      <trkpt lat="45.17649" lon="5.62405">
        <ele>1135.6</ele>
        <time>2021-04-23T10:29:23.000Z</time>
      </trkpt>
      <trkpt lat="45.1765" lon="5.62405">
        <ele>1135.8</ele>
        <time>2021-04-23T10:29:24.000Z</time>
      </trkpt>
      <trkpt lat="45.1765" lon="5.62405">
        <ele>1135.8</ele>
        <time>2021-04-23T10:29:25.000Z</time>
      </trkpt>
      <trkpt lat="45.1765" lon="5.62405">
        <ele>1135.8</ele>
        <time>2021-04-23T10:29:26.000Z</time>
      </trkpt>
      <trkpt lat="45.17651" lon="5.62406">
        <ele>1135.8</ele>
        <time>2021-04-23T10:29:36.000Z</time>
      </trkpt>
      <trkpt lat="45.17651" lon="5.62408">
        <ele>1135.8</ele>
        <time>2021-04-23T10:29:37.000Z</time>
      </trkpt>
      <trkpt lat="45.17651" lon="5.62409">
        <ele>1135.8</ele>
        <time>2021-04-23T10:29:38.000Z</time>
      </trkpt>
      <trkpt lat="45.1765" lon="5.62412">
        <ele>1135.8</ele>
        <time>2021-04-23T10:29:39.000Z</time>
      </trkpt>
      <trkpt lat="45.17646" lon="5.62418">
        <ele>1134.8</ele>
        <time>2021-04-23T10:29:41.000Z</time>
      </trkpt>
      <trkpt lat="45.17645" lon="5.62421">
        <ele>1134.4</ele>
        <time>2021-04-23T10:29:42.000Z</time>
      </trkpt>
      <trkpt lat="45.17644" lon="5.62424">
        <ele>1134.2</ele>
        <time>2021-04-23T10:29:43.000Z</time>
      </trkpt>
      <trkpt lat="45.17644" lon="5.62427">
        <ele>1133.8</ele>
        <time>2021-04-23T10:29:44.000Z</time>
      </trkpt>
      <trkpt lat="45.17645" lon="5.6243">
        <ele>1133.6</ele>
        <time>2021-04-23T10:29:45.000Z</time>
      </trkpt>
      <trkpt lat="45.17647" lon="5.62434">
        <ele>1133.4</ele>
        <time>2021-04-23T10:29:46.000Z</time>
      </trkpt>
      <trkpt lat="45.17649" lon="5.62442">
        <ele>1133</ele>
        <time>2021-04-23T10:29:48.000Z</time>
      </trkpt>
      <trkpt lat="45.1765" lon="5.6245">
        <ele>1132.6</ele>
        <time>2021-04-23T10:29:50.000Z</time>
      </trkpt>
      <trkpt lat="45.17651" lon="5.62455">
        <ele>1132.2</ele>
        <time>2021-04-23T10:29:51.000Z</time>
      </trkpt>
      <trkpt lat="45.17651" lon="5.62459">
        <ele>1131.6</ele>
        <time>2021-04-23T10:29:52.000Z</time>
      </trkpt>
      <trkpt lat="45.17653" lon="5.62464">
        <ele>1130.8</ele>
        <time>2021-04-23T10:29:53.000Z</time>
      </trkpt>
      <trkpt lat="45.17654" lon="5.62468">
        <ele>1130.4</ele>
        <time>2021-04-23T10:29:54.000Z</time>
      </trkpt>
      <trkpt lat="45.17655" lon="5.62472">
        <ele>1130.2</ele>
        <time>2021-04-23T10:29:55.000Z</time>
      </trkpt>
      <trkpt lat="45.17656" lon="5.6248">
        <ele>1130</ele>
        <time>2021-04-23T10:29:57.000Z</time>
      </trkpt>
      <trkpt lat="45.17658" lon="5.62484">
        <ele>1130</ele>
        <time>2021-04-23T10:29:58.000Z</time>
      </trkpt>
      <trkpt lat="45.1766" lon="5.62488">
        <ele>1129.8</ele>
        <time>2021-04-23T10:29:59.000Z</time>
      </trkpt>
      <trkpt lat="45.17662" lon="5.62491">
        <ele>1129.4</ele>
        <time>2021-04-23T10:30:00.000Z</time>
      </trkpt>
      <trkpt lat="45.17667" lon="5.62496">
        <ele>1128.4</ele>
        <time>2021-04-23T10:30:02.000Z</time>
      </trkpt>
      <trkpt lat="45.17669" lon="5.62497">
        <ele>1127.8</ele>
        <time>2021-04-23T10:30:03.000Z</time>
      </trkpt>
      <trkpt lat="45.17672" lon="5.62498">
        <ele>1127.4</ele>
        <time>2021-04-23T10:30:04.000Z</time>
      </trkpt>
      <trkpt lat="45.17674" lon="5.625">
        <ele>1126.8</ele>
        <time>2021-04-23T10:30:05.000Z</time>
      </trkpt>
      <trkpt lat="45.17676" lon="5.62504">
        <ele>1126.4</ele>
        <time>2021-04-23T10:30:06.000Z</time>
      </trkpt>
      <trkpt lat="45.1768" lon="5.62507">
        <ele>1126</ele>
        <time>2021-04-23T10:30:07.000Z</time>
      </trkpt>
      <trkpt lat="45.17684" lon="5.62513">
        <ele>1125.6</ele>
        <time>2021-04-23T10:30:08.000Z</time>
      </trkpt>
      <trkpt lat="45.17688" lon="5.62517">
        <ele>1124.2</ele>
        <time>2021-04-23T10:30:09.000Z</time>
      </trkpt>
      <trkpt lat="45.17692" lon="5.62526">
        <ele>1123.6</ele>
        <time>2021-04-23T10:30:10.000Z</time>
      </trkpt>
      <trkpt lat="45.17695" lon="5.62533">
        <ele>1123</ele>
        <time>2021-04-23T10:30:11.000Z</time>
      </trkpt>
      <trkpt lat="45.17699" lon="5.62542">
        <ele>1122</ele>
        <time>2021-04-23T10:30:12.000Z</time>
      </trkpt>
      <trkpt lat="45.177" lon="5.62549">
        <ele>1120.8</ele>
        <time>2021-04-23T10:30:13.000Z</time>
      </trkpt>
      <trkpt lat="45.177" lon="5.62555">
        <ele>1119.6</ele>
        <time>2021-04-23T10:30:14.000Z</time>
      </trkpt>
      <trkpt lat="45.177" lon="5.62559">
        <ele>1118.8</ele>
        <time>2021-04-23T10:30:15.000Z</time>
      </trkpt>
      <trkpt lat="45.17699" lon="5.62566">
        <ele>1118.4</ele>
        <time>2021-04-23T10:30:16.000Z</time>
      </trkpt>
      <trkpt lat="45.17699" lon="5.62569">
        <ele>1118.2</ele>
        <time>2021-04-23T10:30:17.000Z</time>
      </trkpt>
      <trkpt lat="45.17701" lon="5.6257">
        <ele>1117.8</ele>
        <time>2021-04-23T10:30:18.000Z</time>
      </trkpt>
      <trkpt lat="45.17703" lon="5.62572">
        <ele>1117.6</ele>
        <time>2021-04-23T10:30:19.000Z</time>
      </trkpt>
      <trkpt lat="45.17705" lon="5.62575">
        <ele>1117.2</ele>
        <time>2021-04-23T10:30:20.000Z</time>
      </trkpt>
      <trkpt lat="45.17706" lon="5.6258">
        <ele>1116.4</ele>
        <time>2021-04-23T10:30:21.000Z</time>
      </trkpt>
      <trkpt lat="45.17704" lon="5.62584">
        <ele>1114.8</ele>
        <time>2021-04-23T10:30:22.000Z</time>
      </trkpt>
      <trkpt lat="45.17699" lon="5.6259">
        <ele>1112.8</ele>
        <time>2021-04-23T10:30:24.000Z</time>
      </trkpt>
      <trkpt lat="45.17697" lon="5.62593">
        <ele>1112</ele>
        <time>2021-04-23T10:30:25.000Z</time>
      </trkpt>
      <trkpt lat="45.17698" lon="5.62596">
        <ele>1111.2</ele>
        <time>2021-04-23T10:30:26.000Z</time>
      </trkpt>
      <trkpt lat="45.177" lon="5.62597">
        <ele>1110.6</ele>
        <time>2021-04-23T10:30:27.000Z</time>
      </trkpt>
      <trkpt lat="45.17703" lon="5.62598">
        <ele>1110.2</ele>
        <time>2021-04-23T10:30:28.000Z</time>
      </trkpt>
      <trkpt lat="45.17707" lon="5.62601">
        <ele>1109.4</ele>
        <time>2021-04-23T10:30:30.000Z</time>
      </trkpt>
      <trkpt lat="45.17708" lon="5.62602">
        <ele>1109.2</ele>
        <time>2021-04-23T10:30:31.000Z</time>
      </trkpt>
      <trkpt lat="45.17707" lon="5.62606">
        <ele>1108.6</ele>
        <time>2021-04-23T10:30:32.000Z</time>
      </trkpt>
      <trkpt lat="45.17706" lon="5.62609">
        <ele>1107.8</ele>
        <time>2021-04-23T10:30:33.000Z</time>
      </trkpt>
      <trkpt lat="45.17704" lon="5.62611">
        <ele>1107.2</ele>
        <time>2021-04-23T10:30:34.000Z</time>
      </trkpt>
      <trkpt lat="45.17701" lon="5.62619">
        <ele>1106.8</ele>
        <time>2021-04-23T10:30:36.000Z</time>
      </trkpt>
      <trkpt lat="45.177" lon="5.62619">
        <ele>1106.4</ele>
        <time>2021-04-23T10:30:37.000Z</time>
      </trkpt>
      <trkpt lat="45.17701" lon="5.62618">
        <ele>1106</ele>
        <time>2021-04-23T10:30:38.000Z</time>
      </trkpt>
      <trkpt lat="45.17703" lon="5.62618">
        <ele>1106</ele>
        <time>2021-04-23T10:30:39.000Z</time>
      </trkpt>
      <trkpt lat="45.17709" lon="5.6262">
        <ele>1105.2</ele>
        <time>2021-04-23T10:30:41.000Z</time>
      </trkpt>
      <trkpt lat="45.1771" lon="5.62625">
        <ele>1104.2</ele>
        <time>2021-04-23T10:30:42.000Z</time>
      </trkpt>
      <trkpt lat="45.1771" lon="5.62631">
        <ele>1103.4</ele>
        <time>2021-04-23T10:30:44.000Z</time>
      </trkpt>
      <trkpt lat="45.1771" lon="5.62632">
        <ele>1103</ele>
        <time>2021-04-23T10:30:45.000Z</time>
      </trkpt>
      <trkpt lat="45.17712" lon="5.62632">
        <ele>1102.6</ele>
        <time>2021-04-23T10:30:46.000Z</time>
      </trkpt>
      <trkpt lat="45.17716" lon="5.62638">
        <ele>1101.4</ele>
        <time>2021-04-23T10:30:48.000Z</time>
      </trkpt>
      <trkpt lat="45.17717" lon="5.62643">
        <ele>1100.6</ele>
        <time>2021-04-23T10:30:49.000Z</time>
      </trkpt>
      <trkpt lat="45.17717" lon="5.62651">
        <ele>1098.8</ele>
        <time>2021-04-23T10:30:50.000Z</time>
      </trkpt>
      <trkpt lat="45.17718" lon="5.62657">
        <ele>1097.4</ele>
        <time>2021-04-23T10:30:51.000Z</time>
      </trkpt>
      <trkpt lat="45.1772" lon="5.62663">
        <ele>1095.8</ele>
        <time>2021-04-23T10:30:52.000Z</time>
      </trkpt>
      <trkpt lat="45.17722" lon="5.62668">
        <ele>1094.8</ele>
        <time>2021-04-23T10:30:53.000Z</time>
      </trkpt>
      <trkpt lat="45.17725" lon="5.62673">
        <ele>1094.4</ele>
        <time>2021-04-23T10:30:54.000Z</time>
      </trkpt>
      <trkpt lat="45.17727" lon="5.62678">
        <ele>1093.8</ele>
        <time>2021-04-23T10:30:55.000Z</time>
      </trkpt>
      <trkpt lat="45.17728" lon="5.62685">
        <ele>1093</ele>
        <time>2021-04-23T10:30:56.000Z</time>
      </trkpt>
      <trkpt lat="45.17728" lon="5.62691">
        <ele>1091.8</ele>
        <time>2021-04-23T10:30:57.000Z</time>
      </trkpt>
      <trkpt lat="45.17729" lon="5.62697">
        <ele>1090.8</ele>
        <time>2021-04-23T10:30:58.000Z</time>
      </trkpt>
      <trkpt lat="45.17731" lon="5.62701">
        <ele>1090</ele>
        <time>2021-04-23T10:30:59.000Z</time>
      </trkpt>
      <trkpt lat="45.17732" lon="5.62706">
        <ele>1089.2</ele>
        <time>2021-04-23T10:31:00.000Z</time>
      </trkpt>
      <trkpt lat="45.17731" lon="5.62716">
        <ele>1088.2</ele>
        <time>2021-04-23T10:31:02.000Z</time>
      </trkpt>
      <trkpt lat="45.17732" lon="5.62718">
        <ele>1088</ele>
        <time>2021-04-23T10:31:03.000Z</time>
      </trkpt>
      <trkpt lat="45.17733" lon="5.62721">
        <ele>1087.6</ele>
        <time>2021-04-23T10:31:04.000Z</time>
      </trkpt>
      <trkpt lat="45.17734" lon="5.62725">
        <ele>1086.8</ele>
        <time>2021-04-23T10:31:05.000Z</time>
      </trkpt>
      <trkpt lat="45.17735" lon="5.62729">
        <ele>1086.2</ele>
        <time>2021-04-23T10:31:06.000Z</time>
      </trkpt>
      <trkpt lat="45.17737" lon="5.62734">
        <ele>1086</ele>
        <time>2021-04-23T10:31:07.000Z</time>
      </trkpt>
      <trkpt lat="45.17738" lon="5.6274">
        <ele>1085.8</ele>
        <time>2021-04-23T10:31:08.000Z</time>
      </trkpt>
      <trkpt lat="45.17738" lon="5.62745">
        <ele>1085.4</ele>
        <time>2021-04-23T10:31:09.000Z</time>
      </trkpt>
      <trkpt lat="45.17738" lon="5.62751">
        <ele>1085.2</ele>
        <time>2021-04-23T10:31:10.000Z</time>
      </trkpt>
      <trkpt lat="45.1774" lon="5.62753">
        <ele>1085</ele>
        <time>2021-04-23T10:31:11.000Z</time>
      </trkpt>
      <trkpt lat="45.17741" lon="5.62756">
        <ele>1084.6</ele>
        <time>2021-04-23T10:31:12.000Z</time>
      </trkpt>
      <trkpt lat="45.17743" lon="5.62759">
        <ele>1084.2</ele>
        <time>2021-04-23T10:31:13.000Z</time>
      </trkpt>
      <trkpt lat="45.17745" lon="5.62762">
        <ele>1084</ele>
        <time>2021-04-23T10:31:14.000Z</time>
      </trkpt>
      <trkpt lat="45.17746" lon="5.62766">
        <ele>1083.6</ele>
        <time>2021-04-23T10:31:15.000Z</time>
      </trkpt>
      <trkpt lat="45.17747" lon="5.62769">
        <ele>1083.4</ele>
        <time>2021-04-23T10:31:16.000Z</time>
      </trkpt>
      <trkpt lat="45.17748" lon="5.62771">
        <ele>1083</ele>
        <time>2021-04-23T10:31:17.000Z</time>
      </trkpt>
      <trkpt lat="45.17749" lon="5.62774">
        <ele>1082.8</ele>
        <time>2021-04-23T10:31:18.000Z</time>
      </trkpt>
      <trkpt lat="45.17749" lon="5.62779">
        <ele>1082.6</ele>
        <time>2021-04-23T10:31:19.000Z</time>
      </trkpt>
      <trkpt lat="45.17749" lon="5.62783">
        <ele>1082.4</ele>
        <time>2021-04-23T10:31:20.000Z</time>
      </trkpt>
      <trkpt lat="45.17749" lon="5.62787">
        <ele>1082</ele>
        <time>2021-04-23T10:31:21.000Z</time>
      </trkpt>
      <trkpt lat="45.1775" lon="5.6279">
        <ele>1081.2</ele>
        <time>2021-04-23T10:31:22.000Z</time>
      </trkpt>
      <trkpt lat="45.17751" lon="5.62794">
        <ele>1080.6</ele>
        <time>2021-04-23T10:31:23.000Z</time>
      </trkpt>
      <trkpt lat="45.17753" lon="5.62797">
        <ele>1080.2</ele>
        <time>2021-04-23T10:31:24.000Z</time>
      </trkpt>
      <trkpt lat="45.17756" lon="5.628">
        <ele>1079.2</ele>
        <time>2021-04-23T10:31:25.000Z</time>
      </trkpt>
      <trkpt lat="45.17757" lon="5.62804">
        <ele>1078.8</ele>
        <time>2021-04-23T10:31:26.000Z</time>
      </trkpt>
      <trkpt lat="45.17758" lon="5.62808">
        <ele>1078.4</ele>
        <time>2021-04-23T10:31:27.000Z</time>
      </trkpt>
      <trkpt lat="45.17757" lon="5.62811">
        <ele>1078.4</ele>
        <time>2021-04-23T10:31:28.000Z</time>
      </trkpt>
      <trkpt lat="45.17756" lon="5.62813">
        <ele>1078</ele>
        <time>2021-04-23T10:31:29.000Z</time>
      </trkpt>
      <trkpt lat="45.17754" lon="5.62814">
        <ele>1077.6</ele>
        <time>2021-04-23T10:31:30.000Z</time>
      </trkpt>
      <trkpt lat="45.17749" lon="5.62819">
        <ele>1077.4</ele>
        <time>2021-04-23T10:31:32.000Z</time>
      </trkpt>
      <trkpt lat="45.17747" lon="5.62823">
        <ele>1077.8</ele>
        <time>2021-04-23T10:31:33.000Z</time>
      </trkpt>
      <trkpt lat="45.17747" lon="5.62825">
        <ele>1078</ele>
        <time>2021-04-23T10:31:34.000Z</time>
      </trkpt>
      <trkpt lat="45.17747" lon="5.62826">
        <ele>1078</ele>
        <time>2021-04-23T10:31:35.000Z</time>
      </trkpt>
      <trkpt lat="45.17746" lon="5.62827">
        <ele>1078.2</ele>
        <time>2021-04-23T10:31:36.000Z</time>
      </trkpt>
      <trkpt lat="45.17747" lon="5.62829">
        <ele>1078.2</ele>
        <time>2021-04-23T10:31:37.000Z</time>
      </trkpt>
      <trkpt lat="45.17747" lon="5.62831">
        <ele>1078.2</ele>
        <time>2021-04-23T10:31:38.000Z</time>
      </trkpt>
      <trkpt lat="45.17748" lon="5.62832">
        <ele>1078.2</ele>
        <time>2021-04-23T10:31:39.000Z</time>
      </trkpt>
      <trkpt lat="45.17748" lon="5.62836">
        <ele>1078</ele>
        <time>2021-04-23T10:31:41.000Z</time>
      </trkpt>
      <trkpt lat="45.17747" lon="5.62839">
        <ele>1077.8</ele>
        <time>2021-04-23T10:31:42.000Z</time>
      </trkpt>
      <trkpt lat="45.17746" lon="5.62841">
        <ele>1077.6</ele>
        <time>2021-04-23T10:31:43.000Z</time>
      </trkpt>
      <trkpt lat="45.17745" lon="5.62844">
        <ele>1077.4</ele>
        <time>2021-04-23T10:31:44.000Z</time>
      </trkpt>
      <trkpt lat="45.17744" lon="5.62846">
        <ele>1077.4</ele>
        <time>2021-04-23T10:31:45.000Z</time>
      </trkpt>
      <trkpt lat="45.17744" lon="5.62848">
        <ele>1077.2</ele>
        <time>2021-04-23T10:31:46.000Z</time>
      </trkpt>
      <trkpt lat="45.17743" lon="5.6285">
        <ele>1077</ele>
        <time>2021-04-23T10:31:47.000Z</time>
      </trkpt>
      <trkpt lat="45.17743" lon="5.62853">
        <ele>1076.8</ele>
        <time>2021-04-23T10:31:48.000Z</time>
      </trkpt>
      <trkpt lat="45.17741" lon="5.62861">
        <ele>1076.6</ele>
        <time>2021-04-23T10:31:51.000Z</time>
      </trkpt>
      <trkpt lat="45.1774" lon="5.62863">
        <ele>1076.4</ele>
        <time>2021-04-23T10:31:52.000Z</time>
      </trkpt>
      <trkpt lat="45.1774" lon="5.62864">
        <ele>1076.4</ele>
        <time>2021-04-23T10:31:53.000Z</time>
      </trkpt>
      <trkpt lat="45.1774" lon="5.62865">
        <ele>1076.2</ele>
        <time>2021-04-23T10:31:54.000Z</time>
      </trkpt>
      <trkpt lat="45.17741" lon="5.62866">
        <ele>1076.2</ele>
        <time>2021-04-23T10:31:55.000Z</time>
      </trkpt>
      <trkpt lat="45.17742" lon="5.62865">
        <ele>1076</ele>
        <time>2021-04-23T10:31:56.000Z</time>
      </trkpt>
      <trkpt lat="45.17743" lon="5.62865">
        <ele>1075.6</ele>
        <time>2021-04-23T10:31:57.000Z</time>
      </trkpt>
      <trkpt lat="45.17745" lon="5.62866">
        <ele>1075.2</ele>
        <time>2021-04-23T10:31:58.000Z</time>
      </trkpt>
      <trkpt lat="45.17746" lon="5.62868">
        <ele>1074.2</ele>
        <time>2021-04-23T10:31:59.000Z</time>
      </trkpt>
      <trkpt lat="45.17747" lon="5.6287">
        <ele>1073.4</ele>
        <time>2021-04-23T10:32:00.000Z</time>
      </trkpt>
      <trkpt lat="45.17749" lon="5.62872">
        <ele>1072.4</ele>
        <time>2021-04-23T10:32:01.000Z</time>
      </trkpt>
      <trkpt lat="45.17752" lon="5.62874">
        <ele>1071</ele>
        <time>2021-04-23T10:32:02.000Z</time>
      </trkpt>
      <trkpt lat="45.17754" lon="5.62878">
        <ele>1069.8</ele>
        <time>2021-04-23T10:32:03.000Z</time>
      </trkpt>
      <trkpt lat="45.17755" lon="5.62882">
        <ele>1068.8</ele>
        <time>2021-04-23T10:32:04.000Z</time>
      </trkpt>
      <trkpt lat="45.17756" lon="5.62886">
        <ele>1068.2</ele>
        <time>2021-04-23T10:32:05.000Z</time>
      </trkpt>
      <trkpt lat="45.17758" lon="5.62889">
        <ele>1067.8</ele>
        <time>2021-04-23T10:32:06.000Z</time>
      </trkpt>
      <trkpt lat="45.17758" lon="5.62893">
        <ele>1066.2</ele>
        <time>2021-04-23T10:32:07.000Z</time>
      </trkpt>
      <trkpt lat="45.17756" lon="5.62897">
        <ele>1065</ele>
        <time>2021-04-23T10:32:08.000Z</time>
      </trkpt>
      <trkpt lat="45.17756" lon="5.629">
        <ele>1063.8</ele>
        <time>2021-04-23T10:32:09.000Z</time>
      </trkpt>
      <trkpt lat="45.17754" lon="5.62904">
        <ele>1063.2</ele>
        <time>2021-04-23T10:32:10.000Z</time>
      </trkpt>
      <trkpt lat="45.17754" lon="5.62907">
        <ele>1063</ele>
        <time>2021-04-23T10:32:11.000Z</time>
      </trkpt>
      <trkpt lat="45.17753" lon="5.62909">
        <ele>1062.4</ele>
        <time>2021-04-23T10:32:12.000Z</time>
      </trkpt>
      <trkpt lat="45.17753" lon="5.6291">
        <ele>1061.8</ele>
        <time>2021-04-23T10:32:13.000Z</time>
      </trkpt>
      <trkpt lat="45.17753" lon="5.62909">
        <ele>1061.2</ele>
        <time>2021-04-23T10:32:14.000Z</time>
      </trkpt>
      <trkpt lat="45.17755" lon="5.62908">
        <ele>1060.4</ele>
        <time>2021-04-23T10:32:15.000Z</time>
      </trkpt>
      <trkpt lat="45.17757" lon="5.62907">
        <ele>1059.8</ele>
        <time>2021-04-23T10:32:16.000Z</time>
      </trkpt>
      <trkpt lat="45.17761" lon="5.62914">
        <ele>1058.6</ele>
        <time>2021-04-23T10:32:18.000Z</time>
      </trkpt>
      <trkpt lat="45.17762" lon="5.62925">
        <ele>1056.6</ele>
        <time>2021-04-23T10:32:20.000Z</time>
      </trkpt>
      <trkpt lat="45.17762" lon="5.62933">
        <ele>1055.2</ele>
        <time>2021-04-23T10:32:22.000Z</time>
      </trkpt>
      <trkpt lat="45.17762" lon="5.62935">
        <ele>1054.8</ele>
        <time>2021-04-23T10:32:23.000Z</time>
      </trkpt>
      <trkpt lat="45.17764" lon="5.62935">
        <ele>1054.2</ele>
        <time>2021-04-23T10:32:24.000Z</time>
      </trkpt>
      <trkpt lat="45.17764" lon="5.62935">
        <ele>1053.6</ele>
        <time>2021-04-23T10:32:25.000Z</time>
      </trkpt>
      <trkpt lat="45.17766" lon="5.62935">
        <ele>1052.8</ele>
        <time>2021-04-23T10:32:26.000Z</time>
      </trkpt>
      <trkpt lat="45.17766" lon="5.62937">
        <ele>1052</ele>
        <time>2021-04-23T10:32:27.000Z</time>
      </trkpt>
      <trkpt lat="45.17767" lon="5.6294">
        <ele>1051.4</ele>
        <time>2021-04-23T10:32:28.000Z</time>
      </trkpt>
      <trkpt lat="45.17768" lon="5.62943">
        <ele>1050.6</ele>
        <time>2021-04-23T10:32:29.000Z</time>
      </trkpt>
      <trkpt lat="45.17769" lon="5.62945">
        <ele>1050.2</ele>
        <time>2021-04-23T10:32:30.000Z</time>
      </trkpt>
      <trkpt lat="45.1777" lon="5.62947">
        <ele>1049.4</ele>
        <time>2021-04-23T10:32:31.000Z</time>
      </trkpt>
      <trkpt lat="45.17772" lon="5.62952">
        <ele>1047.4</ele>
        <time>2021-04-23T10:32:33.000Z</time>
      </trkpt>
      <trkpt lat="45.17773" lon="5.62954">
        <ele>1046.8</ele>
        <time>2021-04-23T10:32:34.000Z</time>
      </trkpt>
      <trkpt lat="45.17775" lon="5.62954">
        <ele>1046.6</ele>
        <time>2021-04-23T10:32:35.000Z</time>
      </trkpt>
      <trkpt lat="45.17776" lon="5.62955">
        <ele>1046.4</ele>
        <time>2021-04-23T10:32:36.000Z</time>
      </trkpt>
      <trkpt lat="45.17776" lon="5.62957">
        <ele>1046.8</ele>
        <time>2021-04-23T10:32:38.000Z</time>
      </trkpt>
      <trkpt lat="45.17775" lon="5.62958">
        <ele>1047</ele>
        <time>2021-04-23T10:32:39.000Z</time>
      </trkpt>
      <trkpt lat="45.17775" lon="5.62958">
        <ele>1047.2</ele>
        <time>2021-04-23T10:32:40.000Z</time>
      </trkpt>
      <trkpt lat="45.17775" lon="5.62958">
        <ele>1047.2</ele>
        <time>2021-04-23T10:32:41.000Z</time>
      </trkpt>
      <trkpt lat="45.17774" lon="5.62958">
        <ele>1047.4</ele>
        <time>2021-04-23T10:32:42.000Z</time>
      </trkpt>
      <trkpt lat="45.17774" lon="5.62958">
        <ele>1047.6</ele>
        <time>2021-04-23T10:32:43.000Z</time>
      </trkpt>
      <trkpt lat="45.17774" lon="5.62959">
        <ele>1047.8</ele>
        <time>2021-04-23T10:32:44.000Z</time>
      </trkpt>
      <trkpt lat="45.17774" lon="5.6296">
        <ele>1048</ele>
        <time>2021-04-23T10:32:45.000Z</time>
      </trkpt>
      <trkpt lat="45.17774" lon="5.62961">
        <ele>1048.4</ele>
        <time>2021-04-23T10:32:47.000Z</time>
      </trkpt>
      <trkpt lat="45.17774" lon="5.62962">
        <ele>1048.6</ele>
        <time>2021-04-23T10:32:48.000Z</time>
      </trkpt>
      <trkpt lat="45.17773" lon="5.62962">
        <ele>1048.8</ele>
        <time>2021-04-23T10:32:49.000Z</time>
      </trkpt>
      <trkpt lat="45.17773" lon="5.62963">
        <ele>1049</ele>
        <time>2021-04-23T10:32:50.000Z</time>
      </trkpt>
      <trkpt lat="45.17773" lon="5.62964">
        <ele>1049.2</ele>
        <time>2021-04-23T10:32:51.000Z</time>
      </trkpt>
      <trkpt lat="45.17773" lon="5.62965">
        <ele>1049.6</ele>
        <time>2021-04-23T10:32:52.000Z</time>
      </trkpt>
      <trkpt lat="45.17773" lon="5.62965">
        <ele>1049.8</ele>
        <time>2021-04-23T10:32:53.000Z</time>
      </trkpt>
      <trkpt lat="45.17773" lon="5.62966">
        <ele>1050</ele>
        <time>2021-04-23T10:32:54.000Z</time>
      </trkpt>
      <trkpt lat="45.17773" lon="5.62968">
        <ele>1050.2</ele>
        <time>2021-04-23T10:32:55.000Z</time>
      </trkpt>
      <trkpt lat="45.17773" lon="5.62969">
        <ele>1050.6</ele>
        <time>2021-04-23T10:32:56.000Z</time>
      </trkpt>
      <trkpt lat="45.17773" lon="5.6297">
        <ele>1050.8</ele>
        <time>2021-04-23T10:32:57.000Z</time>
      </trkpt>
      <trkpt lat="45.17774" lon="5.62975">
        <ele>1051.8</ele>
        <time>2021-04-23T10:33:01.000Z</time>
      </trkpt>
      <trkpt lat="45.17774" lon="5.62976">
        <ele>1051.8</ele>
        <time>2021-04-23T10:33:02.000Z</time>
      </trkpt>
      <trkpt lat="45.17775" lon="5.62979">
        <ele>1052.6</ele>
        <time>2021-04-23T10:33:05.000Z</time>
      </trkpt>
      <trkpt lat="45.17775" lon="5.6298">
        <ele>1052.8</ele>
        <time>2021-04-23T10:33:06.000Z</time>
      </trkpt>
      <trkpt lat="45.17775" lon="5.62981">
        <ele>1053</ele>
        <time>2021-04-23T10:33:07.000Z</time>
      </trkpt>
      <trkpt lat="45.17775" lon="5.62982">
        <ele>1053</ele>
        <time>2021-04-23T10:33:08.000Z</time>
      </trkpt>
      <trkpt lat="45.17775" lon="5.62984">
        <ele>1053.2</ele>
        <time>2021-04-23T10:33:09.000Z</time>
      </trkpt>
      <trkpt lat="45.17775" lon="5.62984">
        <ele>1053.4</ele>
        <time>2021-04-23T10:33:10.000Z</time>
      </trkpt>
      <trkpt lat="45.17775" lon="5.62985">
        <ele>1053.4</ele>
        <time>2021-04-23T10:33:11.000Z</time>
      </trkpt>
      <trkpt lat="45.17776" lon="5.62986">
        <ele>1053.6</ele>
        <time>2021-04-23T10:33:12.000Z</time>
      </trkpt>
      <trkpt lat="45.17776" lon="5.62987">
        <ele>1053.6</ele>
        <time>2021-04-23T10:33:13.000Z</time>
      </trkpt>
      <trkpt lat="45.17776" lon="5.62988">
        <ele>1053.6</ele>
        <time>2021-04-23T10:33:14.000Z</time>
      </trkpt>
      <trkpt lat="45.17776" lon="5.62988">
        <ele>1053.8</ele>
        <time>2021-04-23T10:33:15.000Z</time>
      </trkpt>
      <trkpt lat="45.17775" lon="5.62989">
        <ele>1054</ele>
        <time>2021-04-23T10:33:16.000Z</time>
      </trkpt>
      <trkpt lat="45.17775" lon="5.6299">
        <ele>1054.2</ele>
        <time>2021-04-23T10:33:17.000Z</time>
      </trkpt>
      <trkpt lat="45.17774" lon="5.62991">
        <ele>1054.4</ele>
        <time>2021-04-23T10:33:18.000Z</time>
      </trkpt>
      <trkpt lat="45.17774" lon="5.62991">
        <ele>1054.6</ele>
        <time>2021-04-23T10:33:19.000Z</time>
      </trkpt>
      <trkpt lat="45.17774" lon="5.62991">
        <ele>1054.8</ele>
        <time>2021-04-23T10:33:20.000Z</time>
      </trkpt>
      <trkpt lat="45.17774" lon="5.62991">
        <ele>1055.2</ele>
        <time>2021-04-23T10:33:22.000Z</time>
      </trkpt>
      <trkpt lat="45.17774" lon="5.62992">
        <ele>1055.4</ele>
        <time>2021-04-23T10:33:23.000Z</time>
      </trkpt>
      <trkpt lat="45.17774" lon="5.62993">
        <ele>1055.6</ele>
        <time>2021-04-23T10:33:24.000Z</time>
      </trkpt>
      <trkpt lat="45.17774" lon="5.62993">
        <ele>1055.8</ele>
        <time>2021-04-23T10:33:26.000Z</time>
      </trkpt>
      <trkpt lat="45.17774" lon="5.62993">
        <ele>1055.8</ele>
        <time>2021-04-23T10:33:29.000Z</time>
      </trkpt>
      <trkpt lat="45.17774" lon="5.62993">
        <ele>1055.8</ele>
        <time>2021-04-23T10:33:32.000Z</time>
      </trkpt>
      <trkpt lat="45.17774" lon="5.62993">
        <ele>1055.8</ele>
        <time>2021-04-23T10:33:33.000Z</time>
      </trkpt>
      <trkpt lat="45.17774" lon="5.62994">
        <ele>1056</ele>
        <time>2021-04-23T10:33:40.000Z</time>
      </trkpt>
      <trkpt lat="45.17774" lon="5.62995">
        <ele>1056</ele>
        <time>2021-04-23T10:33:41.000Z</time>
      </trkpt>
      <trkpt lat="45.17774" lon="5.62998">
        <ele>1056</ele>
        <time>2021-04-23T10:33:42.000Z</time>
      </trkpt>
      <trkpt lat="45.1777" lon="5.6301">
        <ele>1055.4</ele>
        <time>2021-04-23T10:33:46.000Z</time>
      </trkpt>
      <trkpt lat="45.17768" lon="5.63013">
        <ele>1055.4</ele>
        <time>2021-04-23T10:33:47.000Z</time>
      </trkpt>
      <trkpt lat="45.17767" lon="5.63016">
        <ele>1055.4</ele>
        <time>2021-04-23T10:33:48.000Z</time>
      </trkpt>
      <trkpt lat="45.17764" lon="5.63022">
        <ele>1055.6</ele>
        <time>2021-04-23T10:33:50.000Z</time>
      </trkpt>
      <trkpt lat="45.17758" lon="5.63032">
        <ele>1056</ele>
        <time>2021-04-23T10:33:54.000Z</time>
      </trkpt>
      <trkpt lat="45.17758" lon="5.63035">
        <ele>1056</ele>
        <time>2021-04-23T10:33:55.000Z</time>
      </trkpt>
      <trkpt lat="45.17752" lon="5.63047">
        <ele>1056</ele>
        <time>2021-04-23T10:33:59.000Z</time>
      </trkpt>
      <trkpt lat="45.17745" lon="5.63062">
        <ele>1056</ele>
        <time>2021-04-23T10:34:04.000Z</time>
      </trkpt>
      <trkpt lat="45.17741" lon="5.63072">
        <ele>1056.2</ele>
        <time>2021-04-23T10:34:07.000Z</time>
      </trkpt>
      <trkpt lat="45.1774" lon="5.63074">
        <ele>1056.2</ele>
        <time>2021-04-23T10:34:08.000Z</time>
      </trkpt>
      <trkpt lat="45.17736" lon="5.63083">
        <ele>1056.2</ele>
        <time>2021-04-23T10:34:11.000Z</time>
      </trkpt>
      <trkpt lat="45.17735" lon="5.63086">
        <ele>1056.2</ele>
        <time>2021-04-23T10:34:12.000Z</time>
      </trkpt>
      <trkpt lat="45.17734" lon="5.63089">
        <ele>1056.4</ele>
        <time>2021-04-23T10:34:13.000Z</time>
      </trkpt>
      <trkpt lat="45.17732" lon="5.63095">
        <ele>1056.6</ele>
        <time>2021-04-23T10:34:15.000Z</time>
      </trkpt>
      <trkpt lat="45.1773" lon="5.63097">
        <ele>1056.4</ele>
        <time>2021-04-23T10:34:16.000Z</time>
      </trkpt>
      <trkpt lat="45.17729" lon="5.631">
        <ele>1056.8</ele>
        <time>2021-04-23T10:34:17.000Z</time>
      </trkpt>
      <trkpt lat="45.17728" lon="5.63102">
        <ele>1056.8</ele>
        <time>2021-04-23T10:34:18.000Z</time>
      </trkpt>
      <trkpt lat="45.17726" lon="5.63105">
        <ele>1057</ele>
        <time>2021-04-23T10:34:19.000Z</time>
      </trkpt>
      <trkpt lat="45.17723" lon="5.63113">
        <ele>1057.2</ele>
        <time>2021-04-23T10:34:22.000Z</time>
      </trkpt>
      <trkpt lat="45.17716" lon="5.63126">
        <ele>1058</ele>
        <time>2021-04-23T10:34:27.000Z</time>
      </trkpt>
      <trkpt lat="45.17715" lon="5.63129">
        <ele>1058</ele>
        <time>2021-04-23T10:34:28.000Z</time>
      </trkpt>
      <trkpt lat="45.17714" lon="5.63131">
        <ele>1058</ele>
        <time>2021-04-23T10:34:29.000Z</time>
      </trkpt>
      <trkpt lat="45.17713" lon="5.63133">
        <ele>1058</ele>
        <time>2021-04-23T10:34:30.000Z</time>
      </trkpt>
      <trkpt lat="45.17712" lon="5.63135">
        <ele>1058</ele>
        <time>2021-04-23T10:34:31.000Z</time>
      </trkpt>
      <trkpt lat="45.17696" lon="5.63126">
        <ele>1074.8</ele>
      </trkpt>
      <trkpt lat="45.17659" lon="5.63148">
        <ele>1083.2</ele>
      </trkpt>
      <trkpt lat="45.1764" lon="5.63166">
        <ele>1085.4</ele>
      </trkpt>
      <trkpt lat="45.17636" lon="5.6316">
        <ele>1087.1</ele>
      </trkpt>
      <trkpt lat="45.17587" lon="5.63176">
        <ele>1094.3</ele>
      </trkpt>
      <trkpt lat="45.17571" lon="5.6319">
        <ele>1094.4</ele>
      </trkpt>
      <trkpt lat="45.17546" lon="5.63169">
        <ele>1103.6</ele>
      </trkpt>
      <trkpt lat="45.17531" lon="5.63154">
        <ele>1108.9</ele>
      </trkpt>
      <trkpt lat="45.17536" lon="5.6314">
        <ele>1110.2</ele>
      </trkpt>
      <trkpt lat="45.17555" lon="5.63127">
        <ele>1108.9</ele>
      </trkpt>
      <trkpt lat="45.17565" lon="5.63066">
        <ele>1115.9</ele>
      </trkpt>
      <trkpt lat="45.17587" lon="5.63014">
        <ele>1116.9</ele>
      </trkpt>
      <trkpt lat="45.17595" lon="5.63001">
        <ele>1115.6</ele>
      </trkpt>
      <trkpt lat="45.17602" lon="5.62942">
        <ele>1109</ele>
      </trkpt>
      <trkpt lat="45.17589" lon="5.62887">
        <ele>1110.3</ele>
      </trkpt>
      <trkpt lat="45.17499" lon="5.63011">
        <ele>1125.8</ele>
      </trkpt>
      <trkpt lat="45.17418" lon="5.62955">
        <ele>1126.8</ele>
      </trkpt>
      <trkpt lat="45.17385" lon="5.62933">
        <ele>1128.8</ele>
      </trkpt>
      <trkpt lat="45.1731" lon="5.62938">
        <ele>1137.9</ele>
      </trkpt>
      <trkpt lat="45.17269" lon="5.63018">
        <ele>1148.4</ele>
      </trkpt>
      <trkpt lat="45.17241" lon="5.63015">
        <ele>1151.6</ele>
      </trkpt>
      <trkpt lat="45.17223" lon="5.63012">
        <ele>1153.5</ele>
      </trkpt>
      <trkpt lat="45.17206" lon="5.63047">
        <ele>1155.3</ele>
      </trkpt>
      <trkpt lat="45.17191" lon="5.63051">
        <ele>1157.2</ele>
      </trkpt>
      <trkpt lat="45.17161" lon="5.63105">
        <ele>1161.9</ele>
      </trkpt>
      <trkpt lat="45.1714" lon="5.63087">
        <ele>1161.8</ele>
      </trkpt>
    </trkseg>
  </trk>
</gpx>